Wetterdaten: Sonntag, 07.08.2016
Datum Zeit Temp. A. Temp. A. max Feuchte A. Luftdruck Regen Wind Richtung Richtung Sonnenschein ET UV Solar Taupunkt Windben
07.08.2016 00:00 13,1 C 13,1 C 92 % 1028,4 hPa 0,0 mm 4,4 km/h (1 Bft) SO 136 0 min 0,000 mm 0,0 UV-I 0 W/m 11,8 C 8,0 km/h (2 Bft)
07.08.2016 00:01 13,1 C 13,1 C 92 % 1028,4 hPa 0,0 mm 1,9 km/h (1 Bft) SO 130 0 min 0,000 mm 0,0 UV-I 0 W/m 11,8 C 4,8 km/h (1 Bft)
07.08.2016 00:02 13,0 C 13,1 C 92 % 1028,4 hPa 0,0 mm 1,2 km/h (1 Bft) SO 130 0 min 0,000 mm 0,0 UV-I 0 W/m 11,7 C 3,2 km/h (1 Bft)
07.08.2016 00:03 13,0 C 13,0 C 92 % 1028,4 hPa 0,0 mm 0,1 km/h (0 Bft) SO 130 0 min 0,000 mm 0,0 UV-I 0 W/m 11,7 C 1,6 km/h (1 Bft)
07.08.2016 00:04 12,9 C 13,0 C 92 % 1028,4 hPa 0,0 mm 0,8 km/h (0 Bft) SO 130 0 min 0,000 mm 0,0 UV-I 0 W/m 11,6 C 1,6 km/h (1 Bft)
07.08.2016 00:05 12,9 C 12,9 C 92 % 1028,4 hPa 0,0 mm 0,1 km/h (0 Bft) SO 130 0 min 0,000 mm 0,0 UV-I 0 W/m 11,6 C 1,6 km/h (1 Bft)
07.08.2016 00:06 12,9 C 12,9 C 93 % 1028,4 hPa 0,0 mm 0,1 km/h (0 Bft) SO 127 0 min 0,000 mm 0,0 UV-I 0 W/m 11,8 C 1,6 km/h (1 Bft)
07.08.2016 00:07 12,9 C 12,9 C 93 % 1028,4 hPa 0,0 mm 1,2 km/h (1 Bft) SO 127 0 min 0,000 mm 0,0 UV-I 0 W/m 11,8 C 3,2 km/h (1 Bft)
07.08.2016 00:08 12,9 C 12,9 C 93 % 1028,4 hPa 0,0 mm 0,8 km/h (0 Bft) SO 127 0 min 0,000 mm 0,0 UV-I 0 W/m 11,8 C 1,6 km/h (1 Bft)
07.08.2016 00:09 12,9 C 12,9 C 93 % 1028,4 hPa 0,0 mm 0,3 km/h (0 Bft) SO 127 0 min 0,000 mm 0,0 UV-I 0 W/m 11,8 C 1,6 km/h (1 Bft)
07.08.2016 00:10 12,8 C 12,9 C 93 % 1028,3 hPa 0,0 mm 0,0 km/h (0 Bft) SO 127 0 min 0,000 mm 0,0 UV-I 0 W/m 11,7 C 0,0 km/h (0 Bft)
07.08.2016 00:11 12,8 C 12,9 C 93 % 1028,3 hPa 0,0 mm 0,0 km/h (0 Bft) SO 127 0 min 0,000 mm 0,0 UV-I 0 W/m 11,7 C 0,0 km/h (0 Bft)
07.08.2016 00:12 12,8 C 12,9 C 93 % 1028,4 hPa 0,0 mm 0,0 km/h (0 Bft) SO 127 0 min 0,000 mm 0,0 UV-I 0 W/m 11,7 C 0,0 km/h (0 Bft)
07.08.2016 00:13 12,8 C 12,9 C 93 % 1028,4 hPa 0,0 mm 0,0 km/h (0 Bft) SO 128 0 min 0,000 mm 0,0 UV-I 0 W/m 11,7 C 0,0 km/h (0 Bft)
07.08.2016 00:14 12,8 C 12,9 C 93 % 1028,4 hPa 0,0 mm 0,0 km/h (0 Bft) S-SW 202 0 min 0,000 mm 0,0 UV-I 0 W/m 11,7 C 0,0 km/h (0 Bft)
07.08.2016 00:15 12,8 C 12,9 C 93 % 1028,3 hPa 0,0 mm 0,0 km/h (0 Bft) S-SW 202 0 min 0,000 mm 0,0 UV-I 0 W/m 11,7 C 0,0 km/h (0 Bft)
07.08.2016 00:16 12,8 C 12,8 C 92 % 1028,4 hPa 0,0 mm 0,0 km/h (0 Bft) S-SW 202 0 min 0,000 mm 0,0 UV-I 0 W/m 11,5 C 0,0 km/h (0 Bft)
07.08.2016 00:17 12,9 C 12,9 C 92 % 1028,4 hPa 0,0 mm 0,0 km/h (0 Bft) S-SW 202 0 min 0,000 mm 0,0 UV-I 0 W/m 11,6 C 0,0 km/h (0 Bft)
07.08.2016 00:18 12,9 C 12,9 C 93 % 1028,3 hPa 0,0 mm 0,0 km/h (0 Bft) S-SW 202 0 min 0,000 mm 0,0 UV-I 0 W/m 11,8 C 0,0 km/h (0 Bft)
07.08.2016 00:19 12,9 C 12,9 C 93 % 1028,3 hPa 0,0 mm 0,0 km/h (0 Bft) S-SW 202 0 min 0,000 mm 0,0 UV-I 0 W/m 11,8 C 0,0 km/h (0 Bft)
07.08.2016 00:20 12,9 C 12,9 C 93 % 1028,3 hPa 0,0 mm 0,0 km/h (0 Bft) S-SW 202 0 min 0,000 mm 0,0 UV-I 0 W/m 11,8 C 0,0 km/h (0 Bft)
07.08.2016 00:21 12,8 C 12,9 C 93 % 1028,3 hPa 0,0 mm 0,0 km/h (0 Bft) S-SW 202 0 min 0,000 mm 0,0 UV-I 0 W/m 11,7 C 0,0 km/h (0 Bft)
07.08.2016 00:22 12,8 C 12,8 C 93 % 1028,3 hPa 0,0 mm 0,0 km/h (0 Bft) S-SW 202 0 min 0,000 mm 0,0 UV-I 0 W/m 11,7 C 0,0 km/h (0 Bft)
07.08.2016 00:23 12,8 C 12,8 C 93 % 1028,3 hPa 0,0 mm 0,0 km/h (0 Bft) S-SW 202 0 min 0,000 mm 0,0 UV-I 0 W/m 11,7 C 0,0 km/h (0 Bft)
07.08.2016 00:24 12,8 C 12,8 C 93 % 1028,3 hPa 0,0 mm 0,0 km/h (0 Bft) S-SW 202 0 min 0,000 mm 0,0 UV-I 0 W/m 11,7 C 0,0 km/h (0 Bft)
07.08.2016 00:25 12,8 C 12,8 C 93 % 1028,3 hPa 0,0 mm 0,0 km/h (0 Bft) S-SW 202 0 min 0,000 mm 0,0 UV-I 0 W/m 11,7 C 0,0 km/h (0 Bft)
07.08.2016 00:26 12,8 C 12,8 C 93 % 1028,2 hPa 0,0 mm 0,0 km/h (0 Bft) S-SW 202 0 min 0,000 mm 0,0 UV-I 0 W/m 11,7 C 0,0 km/h (0 Bft)
07.08.2016 00:27 12,8 C 12,8 C 93 % 1028,2 hPa 0,0 mm 0,0 km/h (0 Bft) S-SW 202 0 min 0,000 mm 0,0 UV-I 0 W/m 11,7 C 0,0 km/h (0 Bft)
07.08.2016 00:28 12,8 C 12,8 C 93 % 1028,3 hPa 0,0 mm 0,0 km/h (0 Bft) S-SW 202 0 min 0,000 mm 0,0 UV-I 0 W/m 11,7 C 0,0 km/h (0 Bft)
07.08.2016 00:29 12,8 C 12,8 C 93 % 1028,3 hPa 0,0 mm 0,0 km/h (0 Bft) S-SW 202 0 min 0,000 mm 0,0 UV-I 0 W/m 11,7 C 0,0 km/h (0 Bft)
07.08.2016 00:30 12,8 C 12,8 C 93 % 1028,3 hPa 0,0 mm 0,0 km/h (0 Bft) S-SW 202 0 min 0,000 mm 0,0 UV-I 0 W/m 11,7 C 0,0 km/h (0 Bft)
07.08.2016 00:31 12,8 C 12,8 C 93 % 1028,2 hPa 0,0 mm 0,0 km/h (0 Bft) S-SW 202 0 min 0,000 mm 0,0 UV-I 0 W/m 11,7 C 0,0 km/h (0 Bft)
07.08.2016 00:32 12,8 C 12,8 C 93 % 1028,2 hPa 0,0 mm 0,0 km/h (0 Bft) S-SW 202 0 min 0,000 mm 0,0 UV-I 0 W/m 11,7 C 0,0 km/h (0 Bft)
07.08.2016 00:33 12,7 C 12,8 C 93 % 1028,3 hPa 0,0 mm 0,0 km/h (0 Bft) S-SW 202 0 min 0,000 mm 0,0 UV-I 0 W/m 11,6 C 0,0 km/h (0 Bft)
07.08.2016 00:34 12,7 C 12,7 C 93 % 1028,3 hPa 0,0 mm 0,0 km/h (0 Bft) S-SW 202 0 min 0,000 mm 0,0 UV-I 0 W/m 11,6 C 0,0 km/h (0 Bft)
07.08.2016 00:35 12,7 C 12,7 C 93 % 1028,3 hPa 0,0 mm 0,0 km/h (0 Bft) S-SW 202 0 min 0,000 mm 0,0 UV-I 0 W/m 11,6 C 0,0 km/h (0 Bft)
07.08.2016 00:36 12,7 C 12,7 C 93 % 1028,3 hPa 0,0 mm 0,0 km/h (0 Bft) S-SW 202 0 min 0,000 mm 0,0 UV-I 0 W/m 11,6 C 0,0 km/h (0 Bft)
07.08.2016 00:37 12,7 C 12,7 C 93 % 1028,3 hPa 0,0 mm 0,0 km/h (0 Bft) S-SW 202 0 min 0,000 mm 0,0 UV-I 0 W/m 11,6 C 0,0 km/h (0 Bft)
07.08.2016 00:38 12,7 C 12,7 C 93 % 1028,3 hPa 0,0 mm 0,0 km/h (0 Bft) S-SW 202 0 min 0,000 mm 0,0 UV-I 0 W/m 11,6 C 0,0 km/h (0 Bft)
07.08.2016 00:39 12,6 C 12,7 C 93 % 1028,3 hPa 0,0 mm 0,0 km/h (0 Bft) S-SW 207 0 min 0,000 mm 0,0 UV-I 0 W/m 11,5 C 0,0 km/h (0 Bft)
07.08.2016 00:40 12,6 C 12,6 C 93 % 1028,4 hPa 0,0 mm 0,0 km/h (0 Bft) S-SW 198 0 min 0,000 mm 0,0 UV-I 0 W/m 11,5 C 0,0 km/h (0 Bft)
07.08.2016 00:41 12,6 C 12,7 C 93 % 1028,3 hPa 0,0 mm 0,0 km/h (0 Bft) S-SW 198 0 min 0,000 mm 0,0 UV-I 0 W/m 11,5 C 0,0 km/h (0 Bft)
07.08.2016 00:42 12,6 C 12,7 C 93 % 1028,3 hPa 0,0 mm 0,0 km/h (0 Bft) S-SW 198 0 min 0,000 mm 0,0 UV-I 0 W/m 11,5 C 0,0 km/h (0 Bft)
07.08.2016 00:43 12,6 C 12,6 C 93 % 1028,3 hPa 0,0 mm 0,0 km/h (0 Bft) S-SW 198 0 min 0,000 mm 0,0 UV-I 0 W/m 11,5 C 0,0 km/h (0 Bft)
07.08.2016 00:44 12,6 C 12,6 C 93 % 1028,3 hPa 0,0 mm 0,0 km/h (0 Bft) S-SW 198 0 min 0,000 mm 0,0 UV-I 0 W/m 11,5 C 0,0 km/h (0 Bft)
07.08.2016 00:45 12,6 C 12,6 C 93 % 1028,4 hPa 0,0 mm 0,0 km/h (0 Bft) S-SW 198 0 min 0,000 mm 0,0 UV-I 0 W/m 11,5 C 0,0 km/h (0 Bft)
07.08.2016 00:46 12,5 C 12,6 C 93 % 1028,3 hPa 0,0 mm 0,0 km/h (0 Bft) S-SW 198 0 min 0,000 mm 0,0 UV-I 0 W/m 11,4 C 0,0 km/h (0 Bft)
07.08.2016 00:47 12,5 C 12,5 C 93 % 1028,3 hPa 0,0 mm 0,0 km/h (0 Bft) S-SW 198 0 min 0,000 mm 0,0 UV-I 0 W/m 11,4 C 0,0 km/h (0 Bft)
07.08.2016 00:48 12,4 C 12,5 C 93 % 1028,3 hPa 0,0 mm 0,0 km/h (0 Bft) S-SW 198 0 min 0,000 mm 0,0 UV-I 0 W/m 11,3 C 0,0 km/h (0 Bft)
07.08.2016 00:49 12,4 C 12,4 C 93 % 1028,4 hPa 0,0 mm 0,0 km/h (0 Bft) S-SW 198 0 min 0,000 mm 0,0 UV-I 0 W/m 11,3 C 0,0 km/h (0 Bft)
07.08.2016 00:50 12,4 C 12,4 C 93 % 1028,4 hPa 0,0 mm 0,0 km/h (0 Bft) S-SW 198 0 min 0,000 mm 0,0 UV-I 0 W/m 11,3 C 0,0 km/h (0 Bft)
07.08.2016 00:51 12,4 C 12,4 C 93 % 1028,3 hPa 0,0 mm 0,0 km/h (0 Bft) S-SW 198 0 min 0,000 mm 0,0 UV-I 0 W/m 11,3 C 0,0 km/h (0 Bft)
07.08.2016 00:52 12,4 C 12,4 C 93 % 1028,3 hPa 0,0 mm 0,0 km/h (0 Bft) S-SW 198 0 min 0,000 mm 0,0 UV-I 0 W/m 11,3 C 0,0 km/h (0 Bft)
07.08.2016 00:53 12,4 C 12,4 C 93 % 1028,3 hPa 0,0 mm 0,0 km/h (0 Bft) S-SW 198 0 min 0,000 mm 0,0 UV-I 0 W/m 11,3 C 0,0 km/h (0 Bft)
07.08.2016 00:54 12,3 C 12,4 C 93 % 1028,3 hPa 0,0 mm 0,0 km/h (0 Bft) S-SW 198 0 min 0,000 mm 0,0 UV-I 0 W/m 11,2 C 0,0 km/h (0 Bft)
07.08.2016 00:55 12,3 C 12,3 C 93 % 1028,3 hPa 0,0 mm 0,0 km/h (0 Bft) S-SW 198 0 min 0,000 mm 0,0 UV-I 0 W/m 11,2 C 0,0 km/h (0 Bft)
07.08.2016 00:56 12,3 C 12,3 C 93 % 1028,3 hPa 0,0 mm 0,0 km/h (0 Bft) S-SW 198 0 min 0,000 mm 0,0 UV-I 0 W/m 11,2 C 0,0 km/h (0 Bft)
07.08.2016 00:57 12,2 C 12,3 C 93 % 1028,3 hPa 0,0 mm 0,0 km/h (0 Bft) S-SW 198 0 min 0,000 mm 0,0 UV-I 0 W/m 11,1 C 0,0 km/h (0 Bft)
07.08.2016 00:58 12,2 C 12,2 C 93 % 1028,3 hPa 0,0 mm 0,0 km/h (0 Bft) S-SW 198 0 min 0,000 mm 0,0 UV-I 0 W/m 11,1 C 0,0 km/h (0 Bft)
07.08.2016 00:59 12,2 C 12,2 C 93 % 1028,3 hPa 0,0 mm 0,0 km/h (0 Bft) S-SW 198 0 min 0,000 mm 0,0 UV-I 0 W/m 11,1 C 0,0 km/h (0 Bft)
07.08.2016 01:00 12,2 C 12,2 C 93 % 1028,3 hPa 0,0 mm 0,0 km/h (0 Bft) S-SW 198 0 min 0,000 mm 0,0 UV-I 0 W/m 11,1 C 0,0 km/h (0 Bft)
07.08.2016 01:02 12,2 C 12,2 C 93 % 1028,2 hPa 0,0 mm 0,0 km/h (0 Bft) S-SW 198 0 min 0,000 mm 0,0 UV-I 0 W/m 11,1 C 0,0 km/h (0 Bft)
07.08.2016 01:03 12,1 C 12,2 C 93 % 1028,3 hPa 0,0 mm 0,0 km/h (0 Bft) S-SW 198 0 min 0,000 mm 0,0 UV-I 0 W/m 11,0 C 0,0 km/h (0 Bft)
07.08.2016 01:04 12,1 C 12,1 C 93 % 1028,3 hPa 0,0 mm 0,0 km/h (0 Bft) S-SW 198 0 min 0,000 mm 0,0 UV-I 0 W/m 11,0 C 0,0 km/h (0 Bft)
07.08.2016 01:05 12,1 C 12,1 C 93 % 1028,3 hPa 0,0 mm 0,0 km/h (0 Bft) S-SW 198 0 min 0,000 mm 0,0 UV-I 0 W/m 11,0 C 0,0 km/h (0 Bft)
07.08.2016 01:06 12,1 C 12,1 C 93 % 1028,3 hPa 0,0 mm 0,0 km/h (0 Bft) S-SW 198 0 min 0,000 mm 0,0 UV-I 0 W/m 11,0 C 0,0 km/h (0 Bft)
07.08.2016 01:07 12,1 C 12,1 C 93 % 1028,3 hPa 0,0 mm 0,0 km/h (0 Bft) S-SW 198 0 min 0,000 mm 0,0 UV-I 0 W/m 11,0 C 0,0 km/h (0 Bft)
07.08.2016 01:08 12,1 C 12,1 C 93 % 1028,3 hPa 0,0 mm 0,0 km/h (0 Bft) SW 226 0 min 0,000 mm 0,0 UV-I 0 W/m 11,0 C 0,0 km/h (0 Bft)
07.08.2016 01:09 12,1 C 12,1 C 93 % 1028,3 hPa 0,0 mm 0,0 km/h (0 Bft) SW 226 0 min 0,000 mm 0,0 UV-I 0 W/m 11,0 C 0,0 km/h (0 Bft)
07.08.2016 01:10 12,1 C 12,1 C 93 % 1028,4 hPa 0,0 mm 0,0 km/h (0 Bft) SW 226 0 min 0,000 mm 0,0 UV-I 0 W/m 11,0 C 0,0 km/h (0 Bft)
07.08.2016 01:11 12,1 C 12,1 C 93 % 1028,4 hPa 0,0 mm 0,0 km/h (0 Bft) SW 226 0 min 0,000 mm 0,0 UV-I 0 W/m 11,0 C 0,0 km/h (0 Bft)
07.08.2016 01:12 12,0 C 12,1 C 92 % 1028,4 hPa 0,0 mm 0,0 km/h (0 Bft) SW 226 0 min 0,000 mm 0,0 UV-I 0 W/m 10,7 C 0,0 km/h (0 Bft)
07.08.2016 01:13 11,9 C 12,0 C 92 % 1028,4 hPa 0,0 mm 0,0 km/h (0 Bft) SW 226 0 min 0,000 mm 0,0 UV-I 0 W/m 10,6 C 0,0 km/h (0 Bft)
07.08.2016 01:14 12,0 C 12,0 C 93 % 1028,4 hPa 0,0 mm 0,0 km/h (0 Bft) SW 226 0 min 0,000 mm 0,0 UV-I 0 W/m 10,9 C 0,0 km/h (0 Bft)
07.08.2016 01:15 11,9 C 12,0 C 92 % 1028,4 hPa 0,0 mm 0,0 km/h (0 Bft) SW 226 0 min 0,000 mm 0,0 UV-I 0 W/m 10,6 C 0,0 km/h (0 Bft)
07.08.2016 01:16 11,9 C 11,9 C 93 % 1028,4 hPa 0,0 mm 0,0 km/h (0 Bft) SW 226 0 min 0,000 mm 0,0 UV-I 0 W/m 10,8 C 0,0 km/h (0 Bft)
07.08.2016 01:17 11,9 C 11,9 C 93 % 1028,4 hPa 0,0 mm 0,0 km/h (0 Bft) SW 226 0 min 0,000 mm 0,0 UV-I 0 W/m 10,8 C 0,0 km/h (0 Bft)
07.08.2016 01:18 11,9 C 11,9 C 93 % 1028,4 hPa 0,0 mm 0,0 km/h (0 Bft) SW 226 0 min 0,000 mm 0,0 UV-I 0 W/m 10,8 C 0,0 km/h (0 Bft)
07.08.2016 01:19 11,8 C 11,9 C 93 % 1028,3 hPa 0,0 mm 0,0 km/h (0 Bft) SW 226 0 min 0,000 mm 0,0 UV-I 0 W/m 10,7 C 0,0 km/h (0 Bft)
07.08.2016 01:20 11,8 C 11,9 C 93 % 1028,4 hPa 0,0 mm 0,0 km/h (0 Bft) SW 226 0 min 0,000 mm 0,0 UV-I 0 W/m 10,7 C 0,0 km/h (0 Bft)
07.08.2016 01:21 11,8 C 11,8 C 93 % 1028,4 hPa 0,0 mm 0,0 km/h (0 Bft) SW 226 0 min 0,000 mm 0,0 UV-I 0 W/m 10,7 C 0,0 km/h (0 Bft)
07.08.2016 01:22 11,8 C 11,8 C 93 % 1028,4 hPa 0,0 mm 0,0 km/h (0 Bft) SW 226 0 min 0,000 mm 0,0 UV-I 0 W/m 10,7 C 0,0 km/h (0 Bft)
07.08.2016 01:23 11,8 C 11,8 C 93 % 1028,4 hPa 0,0 mm 0,0 km/h (0 Bft) SW 226 0 min 0,000 mm 0,0 UV-I 0 W/m 10,7 C 0,0 km/h (0 Bft)
07.08.2016 01:24 11,8 C 11,8 C 93 % 1028,4 hPa 0,0 mm 0,0 km/h (0 Bft) SW 226 0 min 0,000 mm 0,0 UV-I 0 W/m 10,7 C 0,0 km/h (0 Bft)
07.08.2016 01:25 11,8 C 11,8 C 94 % 1028,4 hPa 0,0 mm 0,0 km/h (0 Bft) SW 226 0 min 0,000 mm 0,0 UV-I 0 W/m 10,9 C 0,0 km/h (0 Bft)
07.08.2016 01:26 11,8 C 11,8 C 93 % 1028,4 hPa 0,0 mm 0,0 km/h (0 Bft) O-NO 69 0 min 0,000 mm 0,0 UV-I 0 W/m 10,7 C 0,0 km/h (0 Bft)
07.08.2016 01:27 11,9 C 11,9 C 93 % 1028,4 hPa 0,0 mm 0,0 km/h (0 Bft) N-NO 17 0 min 0,000 mm 0,0 UV-I 0 W/m 10,8 C 0,0 km/h (0 Bft)
07.08.2016 01:28 11,9 C 11,9 C 93 % 1028,4 hPa 0,0 mm 0,0 km/h (0 Bft) N-NO 13 0 min 0,000 mm 0,0 UV-I 0 W/m 10,8 C 0,0 km/h (0 Bft)
07.08.2016 01:29 11,9 C 11,9 C 93 % 1028,4 hPa 0,0 mm 1,7 km/h (1 Bft) W 269 0 min 0,000 mm 0,0 UV-I 0 W/m 10,8 C 3,2 km/h (1 Bft)
07.08.2016 01:30 11,9 C 11,9 C 92 % 1028,4 hPa 0,0 mm 1,7 km/h (1 Bft) W 281 0 min 0,000 mm 0,0 UV-I 0 W/m 10,6 C 3,2 km/h (1 Bft)
07.08.2016 01:31 11,9 C 11,9 C 93 % 1028,4 hPa 0,0 mm 1,2 km/h (1 Bft) W-NW 283 0 min 0,000 mm 0,0 UV-I 0 W/m 10,8 C 3,2 km/h (1 Bft)
07.08.2016 01:32 11,9 C 11,9 C 93 % 1028,4 hPa 0,0 mm 0,1 km/h (0 Bft) W-NW 283 0 min 0,000 mm 0,0 UV-I 0 W/m 10,8 C 1,6 km/h (1 Bft)
07.08.2016 01:33 11,8 C 11,9 C 93 % 1028,4 hPa 0,0 mm 0,0 km/h (0 Bft) W-NW 283 0 min 0,000 mm 0,0 UV-I 0 W/m 10,7 C 0,0 km/h (0 Bft)
07.08.2016 01:34 11,8 C 11,8 C 93 % 1028,4 hPa 0,0 mm 0,0 km/h (0 Bft) W-NW 283 0 min 0,000 mm 0,0 UV-I 0 W/m 10,7 C 0,0 km/h (0 Bft)
07.08.2016 01:35 11,8 C 11,8 C 93 % 1028,4 hPa 0,0 mm 0,0 km/h (0 Bft) W-NW 283 0 min 0,000 mm 0,0 UV-I 0 W/m 10,7 C 0,0 km/h (0 Bft)
07.08.2016 01:36 11,8 C 11,8 C 93 % 1028,4 hPa 0,0 mm 0,0 km/h (0 Bft) W-NW 283 0 min 0,000 mm 0,0 UV-I 0 W/m 10,7 C 0,0 km/h (0 Bft)
07.08.2016 01:37 11,8 C 11,8 C 93 % 1028,5 hPa 0,0 mm 0,0 km/h (0 Bft) W-NW 283 0 min 0,000 mm 0,0 UV-I 0 W/m 10,7 C 0,0 km/h (0 Bft)
07.08.2016 01:38 11,7 C 11,8 C 93 % 1028,4 hPa 0,0 mm 1,1 km/h (1 Bft) W-NW 283 0 min 0,000 mm 0,0 UV-I 0 W/m 10,6 C 1,6 km/h (1 Bft)
07.08.2016 01:39 11,7 C 11,7 C 93 % 1028,5 hPa 0,0 mm 1,5 km/h (1 Bft) W-NW 283 0 min 0,000 mm 0,0 UV-I 0 W/m 10,6 C 1,6 km/h (1 Bft)
07.08.2016 01:40 11,6 C 11,7 C 93 % 1028,4 hPa 0,0 mm 1,6 km/h (1 Bft) W-NW 283 0 min 0,000 mm 0,0 UV-I 0 W/m 10,5 C 1,6 km/h (1 Bft)
07.08.2016 01:41 11,6 C 11,7 C 94 % 1028,4 hPa 0,0 mm 0,8 km/h (0 Bft) W-NW 283 0 min 0,000 mm 0,0 UV-I 0 W/m 10,7 C 1,6 km/h (1 Bft)
07.08.2016 01:42 11,6 C 11,6 C 94 % 1028,4 hPa 0,0 mm 0,0 km/h (0 Bft) W-NW 283 0 min 0,000 mm 0,0 UV-I 0 W/m 10,7 C 0,0 km/h (0 Bft)
07.08.2016 01:43 11,6 C 11,6 C 94 % 1028,4 hPa 0,0 mm 0,0 km/h (0 Bft) W-NW 283 0 min 0,000 mm 0,0 UV-I 0 W/m 10,7 C 0,0 km/h (0 Bft)
07.08.2016 01:44 11,6 C 11,6 C 94 % 1028,5 hPa 0,0 mm 0,0 km/h (0 Bft) W-NW 283 0 min 0,000 mm 0,0 UV-I 0 W/m 10,7 C 0,0 km/h (0 Bft)
07.08.2016 01:45 11,6 C 11,6 C 94 % 1028,4 hPa 0,0 mm 0,0 km/h (0 Bft) W-NW 283 0 min 0,000 mm 0,0 UV-I 0 W/m 10,7 C 0,0 km/h (0 Bft)
07.08.2016 01:46 11,6 C 11,6 C 93 % 1028,4 hPa 0,0 mm 0,1 km/h (0 Bft) W-NW 283 0 min 0,000 mm 0,0 UV-I 0 W/m 10,5 C 1,6 km/h (1 Bft)
07.08.2016 01:47 11,5 C 11,6 C 94 % 1028,4 hPa 0,0 mm 0,5 km/h (0 Bft) W-NW 283 0 min 0,000 mm 0,0 UV-I 0 W/m 10,6 C 1,6 km/h (1 Bft)
07.08.2016 01:48 11,5 C 11,5 C 94 % 1028,3 hPa 0,0 mm 0,0 km/h (0 Bft) W-NW 283 0 min 0,000 mm 0,0 UV-I 0 W/m 10,6 C 0,0 km/h (0 Bft)
07.08.2016 01:49 11,4 C 11,5 C 94 % 1028,3 hPa 0,0 mm 0,0 km/h (0 Bft) W-NW 283 0 min 0,000 mm 0,0 UV-I 0 W/m 10,5 C 0,0 km/h (0 Bft)
07.08.2016 01:50 11,4 C 11,4 C 94 % 1028,3 hPa 0,0 mm 0,0 km/h (0 Bft) W-NW 283 0 min 0,000 mm 0,0 UV-I 0 W/m 10,5 C 0,0 km/h (0 Bft)
07.08.2016 01:51 11,3 C 11,4 C 94 % 1028,3 hPa 0,0 mm 0,0 km/h (0 Bft) W-NW 283 0 min 0,000 mm 0,0 UV-I 0 W/m 10,4 C 0,0 km/h (0 Bft)
07.08.2016 01:52 11,3 C 11,4 C 94 % 1028,4 hPa 0,0 mm 0,0 km/h (0 Bft) W-NW 283 0 min 0,000 mm 0,0 UV-I 0 W/m 10,4 C 0,0 km/h (0 Bft)
07.08.2016 01:53 11,3 C 11,3 C 94 % 1028,3 hPa 0,0 mm 0,0 km/h (0 Bft) W-NW 283 0 min 0,000 mm 0,0 UV-I 0 W/m 10,4 C 0,0 km/h (0 Bft)
07.08.2016 01:54 11,3 C 11,3 C 94 % 1028,3 hPa 0,0 mm 0,0 km/h (0 Bft) W-NW 283 0 min 0,000 mm 0,0 UV-I 0 W/m 10,4 C 0,0 km/h (0 Bft)
07.08.2016 01:55 11,3 C 11,3 C 94 % 1028,3 hPa 0,0 mm 0,0 km/h (0 Bft) W-NW 283 0 min 0,000 mm 0,0 UV-I 0 W/m 10,4 C 0,0 km/h (0 Bft)
07.08.2016 01:56 11,3 C 11,3 C 94 % 1028,4 hPa 0,0 mm 0,0 km/h (0 Bft) W-NW 283 0 min 0,000 mm 0,0 UV-I 0 W/m 10,4 C 0,0 km/h (0 Bft)
07.08.2016 01:57 11,3 C 11,3 C 94 % 1028,3 hPa 0,0 mm 0,0 km/h (0 Bft) W-NW 283 0 min 0,000 mm 0,0 UV-I 0 W/m 10,4 C 0,0 km/h (0 Bft)
07.08.2016 01:58 11,3 C 11,3 C 94 % 1028,3 hPa 0,0 mm 0,0 km/h (0 Bft) W-NW 283 0 min 0,000 mm 0,0 UV-I 0 W/m 10,4 C 0,0 km/h (0 Bft)
07.08.2016 01:59 11,3 C 11,3 C 95 % 1028,3 hPa 0,0 mm 0,0 km/h (0 Bft) W-NW 283 0 min 0,000 mm 0,0 UV-I 0 W/m 10,5 C 0,0 km/h (0 Bft)
07.08.2016 02:00 11,3 C 11,3 C 95 % 1028,3 hPa 0,0 mm 0,1 km/h (0 Bft) W-NW 283 0 min 0,000 mm 0,0 UV-I 0 W/m 10,5 C 1,6 km/h (1 Bft)
07.08.2016 02:01 11,3 C 11,3 C 94 % 1028,3 hPa 0,0 mm 0,0 km/h (0 Bft) W-NW 283 0 min 0,000 mm 0,0 UV-I 0 W/m 10,4 C 0,0 km/h (0 Bft)
07.08.2016 02:02 11,3 C 11,3 C 94 % 1028,3 hPa 0,0 mm 0,0 km/h (0 Bft) W-NW 283 0 min 0,000 mm 0,0 UV-I 0 W/m 10,4 C 0,0 km/h (0 Bft)
07.08.2016 02:03 11,3 C 11,3 C 95 % 1028,3 hPa 0,0 mm 0,1 km/h (0 Bft) W-NW 283 0 min 0,000 mm 0,0 UV-I 0 W/m 10,5 C 1,6 km/h (1 Bft)
07.08.2016 02:04 11,3 C 11,3 C 95 % 1028,3 hPa 0,0 mm 0,3 km/h (0 Bft) W-NW 283 0 min 0,000 mm 0,0 UV-I 0 W/m 10,5 C 1,6 km/h (1 Bft)
07.08.2016 02:05 11,3 C 11,3 C 95 % 1028,3 hPa 0,0 mm 0,1 km/h (0 Bft) W-NW 283 0 min 0,000 mm 0,0 UV-I 0 W/m 10,5 C 1,6 km/h (1 Bft)
07.08.2016 02:06 11,3 C 11,3 C 95 % 1028,3 hPa 0,0 mm 0,0 km/h (0 Bft) W-NW 283 0 min 0,000 mm 0,0 UV-I 0 W/m 10,5 C 0,0 km/h (0 Bft)
07.08.2016 02:07 11,3 C 11,3 C 95 % 1028,3 hPa 0,0 mm 0,0 km/h (0 Bft) W-NW 283 0 min 0,000 mm 0,0 UV-I 0 W/m 10,5 C 0,0 km/h (0 Bft)
07.08.2016 02:08 11,3 C 11,3 C 95 % 1028,2 hPa 0,0 mm 0,0 km/h (0 Bft) W-NW 283 0 min 0,000 mm 0,0 UV-I 0 W/m 10,5 C 0,0 km/h (0 Bft)
07.08.2016 02:09 11,3 C 11,3 C 95 % 1028,3 hPa 0,0 mm 0,0 km/h (0 Bft) W-NW 283 0 min 0,000 mm 0,0 UV-I 0 W/m 10,5 C 0,0 km/h (0 Bft)
07.08.2016 02:10 11,3 C 11,3 C 95 % 1028,2 hPa 0,0 mm 0,0 km/h (0 Bft) W-NW 283 0 min 0,000 mm 0,0 UV-I 0 W/m 10,5 C 0,0 km/h (0 Bft)
07.08.2016 02:11 11,3 C 11,3 C 95 % 1028,3 hPa 0,0 mm 0,0 km/h (0 Bft) W-NW 283 0 min 0,000 mm 0,0 UV-I 0 W/m 10,5 C 0,0 km/h (0 Bft)
07.08.2016 02:12 11,3 C 11,3 C 95 % 1028,3 hPa 0,0 mm 0,4 km/h (0 Bft) W-NW 283 0 min 0,000 mm 0,0 UV-I 0 W/m 10,5 C 1,6 km/h (1 Bft)
07.08.2016 02:13 11,3 C 11,3 C 95 % 1028,3 hPa 0,0 mm 0,0 km/h (0 Bft) W-NW 283 0 min 0,000 mm 0,0 UV-I 0 W/m 10,5 C 0,0 km/h (0 Bft)
07.08.2016 02:14 11,3 C 11,3 C 95 % 1028,3 hPa 0,0 mm 0,0 km/h (0 Bft) W-NW 283 0 min 0,000 mm 0,0 UV-I 0 W/m 10,5 C 0,0 km/h (0 Bft)
07.08.2016 02:15 11,3 C 11,3 C 95 % 1028,3 hPa 0,0 mm 0,0 km/h (0 Bft) W-NW 283 0 min 0,000 mm 0,0 UV-I 0 W/m 10,5 C 0,0 km/h (0 Bft)
07.08.2016 02:16 11,3 C 11,3 C 95 % 1028,2 hPa 0,0 mm 0,0 km/h (0 Bft) W-NW 283 0 min 0,000 mm 0,0 UV-I 0 W/m 10,5 C 0,0 km/h (0 Bft)
07.08.2016 02:17 11,3 C 11,3 C 95 % 1028,3 hPa 0,0 mm 0,0 km/h (0 Bft) W-NW 283 0 min 0,000 mm 0,0 UV-I 0 W/m 10,5 C 0,0 km/h (0 Bft)
07.08.2016 02:18 11,3 C 11,3 C 95 % 1028,2 hPa 0,0 mm 0,0 km/h (0 Bft) W-NW 283 0 min 0,000 mm 0,0 UV-I 0 W/m 10,5 C 0,0 km/h (0 Bft)
07.08.2016 02:19 11,3 C 11,3 C 95 % 1028,2 hPa 0,0 mm 0,3 km/h (0 Bft) W-NW 283 0 min 0,000 mm 0,0 UV-I 0 W/m 10,5 C 1,6 km/h (1 Bft)
07.08.2016 02:20 11,3 C 11,3 C 95 % 1028,2 hPa 0,0 mm 0,0 km/h (0 Bft) W-NW 283 0 min 0,000 mm 0,0 UV-I 0 W/m 10,5 C 0,0 km/h (0 Bft)
07.08.2016 02:21 11,3 C 11,3 C 95 % 1028,1 hPa 0,0 mm 0,0 km/h (0 Bft) W-NW 283 0 min 0,000 mm 0,0 UV-I 0 W/m 10,5 C 0,0 km/h (0 Bft)
07.08.2016 02:22 11,2 C 11,3 C 95 % 1028,2 hPa 0,0 mm 0,0 km/h (0 Bft) W-NW 283 0 min 0,000 mm 0,0 UV-I 0 W/m 10,4 C 0,0 km/h (0 Bft)
07.08.2016 02:23 11,2 C 11,2 C 95 % 1028,2 hPa 0,0 mm 0,0 km/h (0 Bft) W-NW 283 0 min 0,000 mm 0,0 UV-I 0 W/m 10,4 C 0,0 km/h (0 Bft)
07.08.2016 02:24 11,2 C 11,3 C 95 % 1028,2 hPa 0,0 mm 0,1 km/h (0 Bft) W-NW 283 0 min 0,000 mm 0,0 UV-I 0 W/m 10,4 C 1,6 km/h (1 Bft)
07.08.2016 02:25 11,3 C 11,3 C 95 % 1028,2 hPa 0,0 mm 0,0 km/h (0 Bft) W-NW 283 0 min 0,000 mm 0,0 UV-I 0 W/m 10,5 C 0,0 km/h (0 Bft)
07.08.2016 02:26 11,3 C 11,3 C 95 % 1028,1 hPa 0,0 mm 0,3 km/h (0 Bft) W-NW 283 0 min 0,000 mm 0,0 UV-I 0 W/m 10,5 C 1,6 km/h (1 Bft)
07.08.2016 02:27 11,3 C 11,3 C 95 % 1028,2 hPa 0,0 mm 0,1 km/h (0 Bft) W-NW 283 0 min 0,000 mm 0,0 UV-I 0 W/m 10,5 C 1,6 km/h (1 Bft)
07.08.2016 02:28 11,2 C 11,3 C 95 % 1028,2 hPa 0,0 mm 0,0 km/h (0 Bft) W-NW 283 0 min 0,000 mm 0,0 UV-I 0 W/m 10,4 C 0,0 km/h (0 Bft)
07.08.2016 02:29 11,2 C 11,3 C 95 % 1028,1 hPa 0,0 mm 0,0 km/h (0 Bft) W-NW 283 0 min 0,000 mm 0,0 UV-I 0 W/m 10,4 C 0,0 km/h (0 Bft)
07.08.2016 02:30 11,2 C 11,3 C 95 % 1028,2 hPa 0,0 mm 0,1 km/h (0 Bft) W-NW 283 0 min 0,000 mm 0,0 UV-I 0 W/m 10,4 C 1,6 km/h (1 Bft)
07.08.2016 02:31 11,2 C 11,3 C 95 % 1028,1 hPa 0,0 mm 0,1 km/h (0 Bft) W-NW 283 0 min 0,000 mm 0,0 UV-I 0 W/m 10,4 C 1,6 km/h (1 Bft)
07.08.2016 02:32 11,2 C 11,3 C 95 % 1028,1 hPa 0,0 mm 0,0 km/h (0 Bft) W-NW 283 0 min 0,000 mm 0,0 UV-I 0 W/m 10,4 C 0,0 km/h (0 Bft)
07.08.2016 02:33 11,2 C 11,2 C 95 % 1028,1 hPa 0,0 mm 0,0 km/h (0 Bft) W-NW 283 0 min 0,000 mm 0,0 UV-I 0 W/m 10,4 C 0,0 km/h (0 Bft)
07.08.2016 02:34 11,2 C 11,2 C 95 % 1028,2 hPa 0,0 mm 0,0 km/h (0 Bft) W-NW 283 0 min 0,000 mm 0,0 UV-I 0 W/m 10,4 C 0,0 km/h (0 Bft)
07.08.2016 02:35 11,2 C 11,2 C 95 % 1028,1 hPa 0,0 mm 0,0 km/h (0 Bft) W-NW 283 0 min 0,000 mm 0,0 UV-I 0 W/m 10,4 C 0,0 km/h (0 Bft)
07.08.2016 02:36 11,2 C 11,2 C 95 % 1028,2 hPa 0,0 mm 0,0 km/h (0 Bft) W-NW 283 0 min 0,000 mm 0,0 UV-I 0 W/m 10,4 C 0,0 km/h (0 Bft)
07.08.2016 02:37 11,2 C 11,2 C 95 % 1028,2 hPa 0,0 mm 0,2 km/h (0 Bft) W-NW 283 0 min 0,000 mm 0,0 UV-I 0 W/m 10,4 C 1,6 km/h (1 Bft)
07.08.2016 02:38 11,2 C 11,2 C 95 % 1028,2 hPa 0,0 mm 0,0 km/h (0 Bft) W-NW 283 0 min 0,000 mm 0,0 UV-I 0 W/m 10,4 C 0,0 km/h (0 Bft)
07.08.2016 02:39 11,2 C 11,2 C 95 % 1028,1 hPa 0,0 mm 0,1 km/h (0 Bft) W-NW 283 0 min 0,000 mm 0,0 UV-I 0 W/m 10,4 C 1,6 km/h (1 Bft)
07.08.2016 02:40 11,2 C 11,2 C 95 % 1028,2 hPa 0,0 mm 0,0 km/h (0 Bft) W-NW 283 0 min 0,000 mm 0,0 UV-I 0 W/m 10,4 C 0,0 km/h (0 Bft)
07.08.2016 02:41 11,2 C 11,2 C 95 % 1028,1 hPa 0,0 mm 0,0 km/h (0 Bft) W-NW 283 0 min 0,000 mm 0,0 UV-I 0 W/m 10,4 C 0,0 km/h (0 Bft)
07.08.2016 02:42 11,2 C 11,2 C 95 % 1028,2 hPa 0,0 mm 0,2 km/h (0 Bft) W-NW 283 0 min 0,000 mm 0,0 UV-I 0 W/m 10,4 C 1,6 km/h (1 Bft)
07.08.2016 02:43 11,2 C 11,2 C 95 % 1028,2 hPa 0,0 mm 0,0 km/h (0 Bft) W-NW 283 0 min 0,000 mm 0,0 UV-I 0 W/m 10,4 C 0,0 km/h (0 Bft)
07.08.2016 02:44 11,2 C 11,2 C 95 % 1028,2 hPa 0,0 mm 0,2 km/h (0 Bft) W-NW 283 0 min 0,000 mm 0,0 UV-I 0 W/m 10,4 C 1,6 km/h (1 Bft)
07.08.2016 02:45 11,2 C 11,2 C 95 % 1028,2 hPa 0,0 mm 0,0 km/h (0 Bft) W-NW 283 0 min 0,000 mm 0,0 UV-I 0 W/m 10,4 C 0,0 km/h (0 Bft)
07.08.2016 02:46 11,2 C 11,2 C 95 % 1028,2 hPa 0,0 mm 0,0 km/h (0 Bft) W-NW 283 0 min 0,000 mm 0,0 UV-I 0 W/m 10,4 C 0,0 km/h (0 Bft)
07.08.2016 02:47 11,2 C 11,2 C 95 % 1028,1 hPa 0,0 mm 0,0 km/h (0 Bft) W-NW 283 0 min 0,000 mm 0,0 UV-I 0 W/m 10,4 C 0,0 km/h (0 Bft)
07.08.2016 02:48 11,2 C 11,2 C 95 % 1028,2 hPa 0,0 mm 0,0 km/h (0 Bft) W-NW 283 0 min 0,000 mm 0,0 UV-I 0 W/m 10,4 C 0,0 km/h (0 Bft)
07.08.2016 02:49 11,1 C 11,2 C 95 % 1028,1 hPa 0,0 mm 0,5 km/h (0 Bft) W-NW 283 0 min 0,000 mm 0,0 UV-I 0 W/m 10,3 C 3,2 km/h (1 Bft)
07.08.2016 02:50 11,1 C 11,1 C 95 % 1028,1 hPa 0,0 mm 0,7 km/h (0 Bft) W-NW 283 0 min 0,000 mm 0,0 UV-I 0 W/m 10,3 C 1,6 km/h (1 Bft)
07.08.2016 02:51 11,1 C 11,1 C 95 % 1028,1 hPa 0,0 mm 0,1 km/h (0 Bft) W-NW 283 0 min 0,000 mm 0,0 UV-I 0 W/m 10,3 C 1,6 km/h (1 Bft)
07.08.2016 02:52 11,1 C 11,1 C 95 % 1028,1 hPa 0,0 mm 0,0 km/h (0 Bft) W-NW 283 0 min 0,000 mm 0,0 UV-I 0 W/m 10,3 C 0,0 km/h (0 Bft)
07.08.2016 02:53 11,0 C 11,1 C 95 % 1028,1 hPa 0,0 mm 0,3 km/h (0 Bft) W-NW 283 0 min 0,000 mm 0,0 UV-I 0 W/m 10,2 C 1,6 km/h (1 Bft)
07.08.2016 02:54 11,0 C 11,0 C 95 % 1028,0 hPa 0,0 mm 0,1 km/h (0 Bft) W-NW 283 0 min 0,000 mm 0,0 UV-I 0 W/m 10,2 C 1,6 km/h (1 Bft)
07.08.2016 02:55 11,0 C 11,0 C 95 % 1028,0 hPa 0,0 mm 0,0 km/h (0 Bft) W-NW 283 0 min 0,000 mm 0,0 UV-I 0 W/m 10,2 C 0,0 km/h (0 Bft)
07.08.2016 02:56 10,9 C 11,0 C 94 % 1028,0 hPa 0,0 mm 0,0 km/h (0 Bft) W-NW 283 0 min 0,000 mm 0,0 UV-I 0 W/m 10,0 C 0,0 km/h (0 Bft)
07.08.2016 02:57 10,9 C 10,9 C 95 % 1028,0 hPa 0,0 mm 0,0 km/h (0 Bft) W-NW 283 0 min 0,000 mm 0,0 UV-I 0 W/m 10,1 C 0,0 km/h (0 Bft)
07.08.2016 02:58 10,8 C 10,9 C 94 % 1028,0 hPa 0,0 mm 0,0 km/h (0 Bft) W-NW 283 0 min 0,000 mm 0,0 UV-I 0 W/m 9,9 C 0,0 km/h (0 Bft)
07.08.2016 02:59 10,8 C 10,8 C 95 % 1028,1 hPa 0,0 mm 0,0 km/h (0 Bft) W-NW 283 0 min 0,000 mm 0,0 UV-I 0 W/m 10,0 C 0,0 km/h (0 Bft)
07.08.2016 03:00 10,8 C 10,8 C 95 % 1028,1 hPa 0,0 mm 0,0 km/h (0 Bft) W-NW 283 0 min 0,000 mm 0,0 UV-I 0 W/m 10,0 C 0,0 km/h (0 Bft)
07.08.2016 03:01 10,8 C 10,8 C 95 % 1028,0 hPa 0,0 mm 0,0 km/h (0 Bft) W-NW 283 0 min 0,000 mm 0,0 UV-I 0 W/m 10,0 C 0,0 km/h (0 Bft)
07.08.2016 03:02 10,8 C 10,8 C 95 % 1028,1 hPa 0,0 mm 0,0 km/h (0 Bft) W-NW 283 0 min 0,000 mm 0,0 UV-I 0 W/m 10,0 C 0,0 km/h (0 Bft)
07.08.2016 03:03 10,8 C 10,8 C 95 % 1028,1 hPa 0,0 mm 0,0 km/h (0 Bft) W-NW 283 0 min 0,000 mm 0,0 UV-I 0 W/m 10,0 C 0,0 km/h (0 Bft)
07.08.2016 03:04 10,8 C 10,8 C 95 % 1028,1 hPa 0,0 mm 0,0 km/h (0 Bft) W-NW 283 0 min 0,000 mm 0,0 UV-I 0 W/m 10,0 C 0,0 km/h (0 Bft)
07.08.2016 03:05 10,8 C 10,8 C 95 % 1028,0 hPa 0,0 mm 0,0 km/h (0 Bft) W-NW 283 0 min 0,000 mm 0,0 UV-I 0 W/m 10,0 C 0,0 km/h (0 Bft)
07.08.2016 03:06 10,8 C 10,8 C 95 % 1028,1 hPa 0,0 mm 0,0 km/h (0 Bft) W-NW 283 0 min 0,000 mm 0,0 UV-I 0 W/m 10,0 C 0,0 km/h (0 Bft)
07.08.2016 03:07 10,8 C 10,8 C 95 % 1028,1 hPa 0,0 mm 0,0 km/h (0 Bft) W-NW 283 0 min 0,000 mm 0,0 UV-I 0 W/m 10,0 C 0,0 km/h (0 Bft)
07.08.2016 03:08 10,8 C 10,8 C 95 % 1028,1 hPa 0,0 mm 0,0 km/h (0 Bft) W-NW 283 0 min 0,000 mm 0,0 UV-I 0 W/m 10,0 C 0,0 km/h (0 Bft)
07.08.2016 03:09 10,7 C 10,8 C 95 % 1028,0 hPa 0,0 mm 0,0 km/h (0 Bft) W-NW 283 0 min 0,000 mm 0,0 UV-I 0 W/m 9,9 C 0,0 km/h (0 Bft)
07.08.2016 03:10 10,7 C 10,7 C 95 % 1028,0 hPa 0,0 mm 0,0 km/h (0 Bft) W-NW 283 0 min 0,000 mm 0,0 UV-I 0 W/m 9,9 C 0,0 km/h (0 Bft)
07.08.2016 03:11 10,7 C 10,7 C 95 % 1028,0 hPa 0,0 mm 0,0 km/h (0 Bft) W-NW 283 0 min 0,000 mm 0,0 UV-I 0 W/m 9,9 C 0,0 km/h (0 Bft)
07.08.2016 03:12 10,7 C 10,7 C 95 % 1028,0 hPa 0,0 mm 0,0 km/h (0 Bft) W-NW 283 0 min 0,000 mm 0,0 UV-I 0 W/m 9,9 C 0,0 km/h (0 Bft)
07.08.2016 03:13 10,7 C 10,7 C 95 % 1028,0 hPa 0,0 mm 0,0 km/h (0 Bft) W-NW 283 0 min 0,000 mm 0,0 UV-I 0 W/m 9,9 C 0,0 km/h (0 Bft)
07.08.2016 03:14 10,7 C 10,7 C 95 % 1028,0 hPa 0,0 mm 0,0 km/h (0 Bft) W-NW 283 0 min 0,000 mm 0,0 UV-I 0 W/m 9,9 C 0,0 km/h (0 Bft)
07.08.2016 03:15 10,8 C 10,8 C 96 % 1028,0 hPa 0,0 mm 0,0 km/h (0 Bft) W-NW 283 0 min 0,000 mm 0,0 UV-I 0 W/m 10,2 C 0,0 km/h (0 Bft)
07.08.2016 03:16 10,8 C 10,8 C 96 % 1028,1 hPa 0,0 mm 0,0 km/h (0 Bft) W-NW 283 0 min 0,000 mm 0,0 UV-I 0 W/m 10,2 C 0,0 km/h (0 Bft)
07.08.2016 03:17 10,8 C 10,8 C 95 % 1028,1 hPa 0,0 mm 0,0 km/h (0 Bft) W-NW 283 0 min 0,000 mm 0,0 UV-I 0 W/m 10,0 C 0,0 km/h (0 Bft)
07.08.2016 03:18 10,7 C 10,8 C 95 % 1028,0 hPa 0,0 mm 0,0 km/h (0 Bft) W-NW 283 0 min 0,000 mm 0,0 UV-I 0 W/m 9,9 C 0,0 km/h (0 Bft)
07.08.2016 03:19 10,7 C 10,7 C 95 % 1028,0 hPa 0,0 mm 0,0 km/h (0 Bft) W-NW 283 0 min 0,000 mm 0,0 UV-I 0 W/m 9,9 C 0,0 km/h (0 Bft)
07.08.2016 03:20 10,7 C 10,7 C 95 % 1028,0 hPa 0,0 mm 0,0 km/h (0 Bft) W-NW 283 0 min 0,000 mm 0,0 UV-I 0 W/m 9,9 C 0,0 km/h (0 Bft)
07.08.2016 03:21 10,7 C 10,7 C 96 % 1028,0 hPa 0,0 mm 0,0 km/h (0 Bft) W-NW 283 0 min 0,000 mm 0,0 UV-I 0 W/m 10,1 C 0,0 km/h (0 Bft)
07.08.2016 03:22 10,7 C 10,7 C 96 % 1028,0 hPa 0,0 mm 0,0 km/h (0 Bft) W-NW 283 0 min 0,000 mm 0,0 UV-I 0 W/m 10,1 C 0,0 km/h (0 Bft)
07.08.2016 03:23 10,7 C 10,7 C 96 % 1028,0 hPa 0,0 mm 0,0 km/h (0 Bft) W-NW 283 0 min 0,000 mm 0,0 UV-I 0 W/m 10,1 C 0,0 km/h (0 Bft)
07.08.2016 03:24 10,7 C 10,7 C 96 % 1028,0 hPa 0,0 mm 0,0 km/h (0 Bft) W-NW 283 0 min 0,000 mm 0,0 UV-I 0 W/m 10,1 C 0,0 km/h (0 Bft)
07.08.2016 03:25 10,8 C 10,8 C 96 % 1028,0 hPa 0,0 mm 0,0 km/h (0 Bft) W-NW 283 0 min 0,000 mm 0,0 UV-I 0 W/m 10,2 C 0,0 km/h (0 Bft)
07.08.2016 03:26 10,8 C 10,8 C 96 % 1028,0 hPa 0,0 mm 0,0 km/h (0 Bft) W-NW 283 0 min 0,000 mm 0,0 UV-I 0 W/m 10,2 C 0,0 km/h (0 Bft)
07.08.2016 03:27 10,8 C 10,8 C 96 % 1028,0 hPa 0,0 mm 0,0 km/h (0 Bft) W-NW 283 0 min 0,000 mm 0,0 UV-I 0 W/m 10,2 C 0,0 km/h (0 Bft)
07.08.2016 03:28 10,8 C 10,8 C 96 % 1028,0 hPa 0,0 mm 0,0 km/h (0 Bft) W-NW 283 0 min 0,000 mm 0,0 UV-I 0 W/m 10,2 C 0,0 km/h (0 Bft)
07.08.2016 03:29 10,7 C 10,8 C 96 % 1028,0 hPa 0,0 mm 0,0 km/h (0 Bft) W-NW 283 0 min 0,000 mm 0,0 UV-I 0 W/m 10,1 C 0,0 km/h (0 Bft)
07.08.2016 03:30 10,7 C 10,7 C 96 % 1028,1 hPa 0,0 mm 0,0 km/h (0 Bft) W-NW 283 0 min 0,000 mm 0,0 UV-I 0 W/m 10,1 C 0,0 km/h (0 Bft)
07.08.2016 03:31 10,7 C 10,7 C 96 % 1028,1 hPa 0,0 mm 0,0 km/h (0 Bft) W-NW 283 0 min 0,000 mm 0,0 UV-I 0 W/m 10,1 C 0,0 km/h (0 Bft)
07.08.2016 03:32 10,7 C 10,7 C 96 % 1028,0 hPa 0,0 mm 0,0 km/h (0 Bft) W-NW 283 0 min 0,000 mm 0,0 UV-I 0 W/m 10,1 C 0,0 km/h (0 Bft)
07.08.2016 03:33 10,8 C 10,8 C 96 % 1028,1 hPa 0,0 mm 0,0 km/h (0 Bft) W-NW 283 0 min 0,000 mm 0,0 UV-I 0 W/m 10,2 C 0,0 km/h (0 Bft)
07.08.2016 03:34 10,8 C 10,8 C 96 % 1028,0 hPa 0,0 mm 0,0 km/h (0 Bft) W-NW 283 0 min 0,000 mm 0,0 UV-I 0 W/m 10,2 C 0,0 km/h (0 Bft)
07.08.2016 03:35 10,8 C 10,8 C 96 % 1028,0 hPa 0,0 mm 0,0 km/h (0 Bft) W-NW 283 0 min 0,000 mm 0,0 UV-I 0 W/m 10,2 C 0,0 km/h (0 Bft)
07.08.2016 03:36 10,7 C 10,8 C 96 % 1028,1 hPa 0,0 mm 0,0 km/h (0 Bft) W-NW 283 0 min 0,000 mm 0,0 UV-I 0 W/m 10,1 C 0,0 km/h (0 Bft)
07.08.2016 03:37 10,7 C 10,7 C 96 % 1028,0 hPa 0,0 mm 0,0 km/h (0 Bft) W-NW 283 0 min 0,000 mm 0,0 UV-I 0 W/m 10,1 C 0,0 km/h (0 Bft)
07.08.2016 03:38 10,7 C 10,7 C 96 % 1028,1 hPa 0,0 mm 0,0 km/h (0 Bft) W-NW 283 0 min 0,000 mm 0,0 UV-I 0 W/m 10,1 C 0,0 km/h (0 Bft)
07.08.2016 03:39 10,7 C 10,7 C 96 % 1028,0 hPa 0,0 mm 0,0 km/h (0 Bft) W-NW 283 0 min 0,000 mm 0,0 UV-I 0 W/m 10,1 C 0,0 km/h (0 Bft)
07.08.2016 03:40 10,7 C 10,7 C 96 % 1028,0 hPa 0,0 mm 0,0 km/h (0 Bft) W-NW 283 0 min 0,000 mm 0,0 UV-I 0 W/m 10,1 C 0,0 km/h (0 Bft)
07.08.2016 03:41 10,7 C 10,7 C 96 % 1028,0 hPa 0,0 mm 0,0 km/h (0 Bft) W-NW 283 0 min 0,000 mm 0,0 UV-I 0 W/m 10,1 C 0,0 km/h (0 Bft)
07.08.2016 03:42 10,7 C 10,7 C 96 % 1028,1 hPa 0,0 mm 0,0 km/h (0 Bft) W-NW 283 0 min 0,000 mm 0,0 UV-I 0 W/m 10,1 C 0,0 km/h (0 Bft)
07.08.2016 03:43 10,7 C 10,7 C 96 % 1028,0 hPa 0,0 mm 0,0 km/h (0 Bft) W-NW 283 0 min 0,000 mm 0,0 UV-I 0 W/m 10,1 C 0,0 km/h (0 Bft)
07.08.2016 03:44 10,6 C 10,7 C 96 % 1028,0 hPa 0,0 mm 0,0 km/h (0 Bft) W-NW 283 0 min 0,000 mm 0,0 UV-I 0 W/m 10,0 C 0,0 km/h (0 Bft)
07.08.2016 03:45 10,6 C 10,6 C 96 % 1028,1 hPa 0,0 mm 0,0 km/h (0 Bft) W-NW 283 0 min 0,000 mm 0,0 UV-I 0 W/m 10,0 C 0,0 km/h (0 Bft)
07.08.2016 03:46 10,6 C 10,6 C 96 % 1028,0 hPa 0,0 mm 0,0 km/h (0 Bft) W-NW 283 0 min 0,000 mm 0,0 UV-I 0 W/m 10,0 C 0,0 km/h (0 Bft)
07.08.2016 03:47 10,6 C 10,6 C 96 % 1028,0 hPa 0,0 mm 0,0 km/h (0 Bft) W-NW 283 0 min 0,000 mm 0,0 UV-I 0 W/m 10,0 C 0,0 km/h (0 Bft)
07.08.2016 03:48 10,6 C 10,6 C 96 % 1028,0 hPa 0,0 mm 0,0 km/h (0 Bft) W-NW 283 0 min 0,000 mm 0,0 UV-I 0 W/m 10,0 C 0,0 km/h (0 Bft)
07.08.2016 03:49 10,6 C 10,6 C 96 % 1028,0 hPa 0,0 mm 0,0 km/h (0 Bft) W-NW 283 0 min 0,000 mm 0,0 UV-I 0 W/m 10,0 C 0,0 km/h (0 Bft)
07.08.2016 03:50 10,6 C 10,6 C 96 % 1028,0 hPa 0,0 mm 0,0 km/h (0 Bft) W-NW 283 0 min 0,000 mm 0,0 UV-I 0 W/m 10,0 C 0,0 km/h (0 Bft)
07.08.2016 03:51 10,6 C 10,6 C 96 % 1028,0 hPa 0,0 mm 0,0 km/h (0 Bft) W-NW 283 0 min 0,000 mm 0,0 UV-I 0 W/m 10,0 C 0,0 km/h (0 Bft)
07.08.2016 03:52 10,6 C 10,6 C 96 % 1028,0 hPa 0,0 mm 0,0 km/h (0 Bft) W-NW 283 0 min 0,000 mm 0,0 UV-I 0 W/m 10,0 C 0,0 km/h (0 Bft)
07.08.2016 03:53 10,6 C 10,6 C 96 % 1028,0 hPa 0,0 mm 0,0 km/h (0 Bft) W-NW 283 0 min 0,000 mm 0,0 UV-I 0 W/m 10,0 C 0,0 km/h (0 Bft)
07.08.2016 03:54 10,6 C 10,6 C 96 % 1028,0 hPa 0,0 mm 0,0 km/h (0 Bft) W-NW 283 0 min 0,000 mm 0,0 UV-I 0 W/m 10,0 C 0,0 km/h (0 Bft)
07.08.2016 03:55 10,4 C 10,6 C 96 % 1028,0 hPa 0,0 mm 0,0 km/h (0 Bft) W-NW 283 0 min 0,000 mm 0,0 UV-I 0 W/m 9,8 C 0,0 km/h (0 Bft)
07.08.2016 03:56 10,4 C 10,4 C 96 % 1028,0 hPa 0,0 mm 0,0 km/h (0 Bft) W-NW 283 0 min 0,000 mm 0,0 UV-I 0 W/m 9,8 C 0,0 km/h (0 Bft)
07.08.2016 03:57 10,4 C 10,4 C 96 % 1028,0 hPa 0,0 mm 0,0 km/h (0 Bft) W-NW 283 0 min 0,000 mm 0,0 UV-I 0 W/m 9,8 C 0,0 km/h (0 Bft)
07.08.2016 03:58 10,4 C 10,4 C 96 % 1028,0 hPa 0,0 mm 0,0 km/h (0 Bft) W-NW 283 0 min 0,000 mm 0,0 UV-I 0 W/m 9,8 C 0,0 km/h (0 Bft)
07.08.2016 03:59 10,3 C 10,4 C 96 % 1028,0 hPa 0,0 mm 0,0 km/h (0 Bft) W-NW 283 0 min 0,000 mm 0,0 UV-I 0 W/m 9,7 C 0,0 km/h (0 Bft)
07.08.2016 04:00 10,3 C 10,3 C 96 % 1027,9 hPa 0,0 mm 0,0 km/h (0 Bft) W-NW 283 0 min 0,000 mm 0,0 UV-I 0 W/m 9,7 C 0,0 km/h (0 Bft)
07.08.2016 04:01 10,3 C 10,3 C 96 % 1027,9 hPa 0,0 mm 0,0 km/h (0 Bft) W-NW 283 0 min 0,000 mm 0,0 UV-I 0 W/m 9,7 C 0,0 km/h (0 Bft)
07.08.2016 04:02 10,3 C 10,3 C 96 % 1028,0 hPa 0,0 mm 0,0 km/h (0 Bft) W-NW 283 0 min 0,000 mm 0,0 UV-I 0 W/m 9,7 C 0,0 km/h (0 Bft)
07.08.2016 04:03 10,3 C 10,3 C 96 % 1027,9 hPa 0,0 mm 0,0 km/h (0 Bft) W-NW 283 0 min 0,000 mm 0,0 UV-I 0 W/m 9,7 C 0,0 km/h (0 Bft)
07.08.2016 04:04 10,3 C 10,3 C 96 % 1027,9 hPa 0,0 mm 0,0 km/h (0 Bft) W-NW 283 0 min 0,000 mm 0,0 UV-I 0 W/m 9,7 C 0,0 km/h (0 Bft)
07.08.2016 04:05 10,3 C 10,3 C 96 % 1027,9 hPa 0,0 mm 0,0 km/h (0 Bft) W-NW 283 0 min 0,000 mm 0,0 UV-I 0 W/m 9,7 C 0,0 km/h (0 Bft)
07.08.2016 04:06 10,2 C 10,3 C 96 % 1027,9 hPa 0,0 mm 0,0 km/h (0 Bft) W-NW 283 0 min 0,000 mm 0,0 UV-I 0 W/m 9,6 C 0,0 km/h (0 Bft)
07.08.2016 04:07 10,2 C 10,2 C 96 % 1027,9 hPa 0,0 mm 0,0 km/h (0 Bft) W-NW 283 0 min 0,000 mm 0,0 UV-I 0 W/m 9,6 C 0,0 km/h (0 Bft)
07.08.2016 04:08 10,1 C 10,2 C 96 % 1027,9 hPa 0,0 mm 0,0 km/h (0 Bft) W-NW 283 0 min 0,000 mm 0,0 UV-I 0 W/m 9,5 C 0,0 km/h (0 Bft)
07.08.2016 04:09 10,0 C 10,1 C 95 % 1027,9 hPa 0,0 mm 0,0 km/h (0 Bft) W-NW 283 0 min 0,000 mm 0,0 UV-I 0 W/m 9,2 C 0,0 km/h (0 Bft)
07.08.2016 04:10 9,9 C 10,0 C 96 % 1027,9 hPa 0,0 mm 0,0 km/h (0 Bft) W-NW 283 0 min 0,000 mm 0,0 UV-I 0 W/m 9,3 C 0,0 km/h (0 Bft)
07.08.2016 04:11 9,9 C 9,9 C 96 % 1027,9 hPa 0,0 mm 0,0 km/h (0 Bft) W-NW 283 0 min 0,000 mm 0,0 UV-I 0 W/m 9,3 C 0,0 km/h (0 Bft)
07.08.2016 04:12 9,8 C 9,9 C 96 % 1027,9 hPa 0,0 mm 0,0 km/h (0 Bft) W-NW 283 0 min 0,000 mm 0,0 UV-I 0 W/m 9,2 C 0,0 km/h (0 Bft)
07.08.2016 04:13 9,8 C 9,8 C 96 % 1027,9 hPa 0,0 mm 0,0 km/h (0 Bft) W-NW 283 0 min 0,000 mm 0,0 UV-I 0 W/m 9,2 C 0,0 km/h (0 Bft)
07.08.2016 04:14 9,9 C 9,9 C 96 % 1027,9 hPa 0,0 mm 0,0 km/h (0 Bft) W-NW 283 0 min 0,000 mm 0,0 UV-I 0 W/m 9,3 C 0,0 km/h (0 Bft)
07.08.2016 04:15 9,9 C 9,9 C 96 % 1027,9 hPa 0,0 mm 0,0 km/h (0 Bft) W-NW 283 0 min 0,000 mm 0,0 UV-I 0 W/m 9,3 C 0,0 km/h (0 Bft)
07.08.2016 04:16 9,9 C 9,9 C 96 % 1027,8 hPa 0,0 mm 0,0 km/h (0 Bft) W-NW 283 0 min 0,000 mm 0,0 UV-I 0 W/m 9,3 C 0,0 km/h (0 Bft)
07.08.2016 04:17 9,9 C 9,9 C 96 % 1027,9 hPa 0,0 mm 0,0 km/h (0 Bft) W-NW 283 0 min 0,000 mm 0,0 UV-I 0 W/m 9,3 C 0,0 km/h (0 Bft)
07.08.2016 04:18 9,8 C 9,9 C 96 % 1027,8 hPa 0,0 mm 0,0 km/h (0 Bft) W-NW 283 0 min 0,000 mm 0,0 UV-I 0 W/m 9,2 C 0,0 km/h (0 Bft)
07.08.2016 04:19 9,8 C 9,8 C 96 % 1027,8 hPa 0,0 mm 0,0 km/h (0 Bft) W-NW 283 0 min 0,000 mm 0,0 UV-I 0 W/m 9,2 C 0,0 km/h (0 Bft)
07.08.2016 04:20 9,8 C 9,8 C 96 % 1027,8 hPa 0,0 mm 0,0 km/h (0 Bft) W-NW 283 0 min 0,000 mm 0,0 UV-I 0 W/m 9,2 C 0,0 km/h (0 Bft)
07.08.2016 04:21 9,8 C 9,8 C 96 % 1027,8 hPa 0,0 mm 0,0 km/h (0 Bft) W-NW 283 0 min 0,000 mm 0,0 UV-I 0 W/m 9,2 C 0,0 km/h (0 Bft)
07.08.2016 04:22 9,9 C 9,9 C 96 % 1027,8 hPa 0,0 mm 0,0 km/h (0 Bft) W-NW 283 0 min 0,000 mm 0,0 UV-I 0 W/m 9,3 C 0,0 km/h (0 Bft)
07.08.2016 04:23 9,9 C 9,9 C 96 % 1027,8 hPa 0,0 mm 0,0 km/h (0 Bft) W-NW 283 0 min 0,000 mm 0,0 UV-I 0 W/m 9,3 C 0,0 km/h (0 Bft)
07.08.2016 04:24 9,9 C 9,9 C 96 % 1027,8 hPa 0,0 mm 0,0 km/h (0 Bft) W-NW 283 0 min 0,000 mm 0,0 UV-I 0 W/m 9,3 C 0,0 km/h (0 Bft)
07.08.2016 04:25 9,8 C 9,9 C 96 % 1027,8 hPa 0,0 mm 0,0 km/h (0 Bft) W-NW 283 0 min 0,000 mm 0,0 UV-I 0 W/m 9,2 C 0,0 km/h (0 Bft)
07.08.2016 04:26 9,8 C 9,8 C 96 % 1027,8 hPa 0,0 mm 0,0 km/h (0 Bft) W-NW 283 0 min 0,000 mm 0,0 UV-I 0 W/m 9,2 C 0,0 km/h (0 Bft)
07.08.2016 04:27 9,8 C 9,8 C 96 % 1027,8 hPa 0,0 mm 0,0 km/h (0 Bft) W-NW 283 0 min 0,000 mm 0,0 UV-I 0 W/m 9,2 C 0,0 km/h (0 Bft)
07.08.2016 04:28 9,8 C 9,8 C 96 % 1027,8 hPa 0,0 mm 0,0 km/h (0 Bft) W-NW 283 0 min 0,000 mm 0,0 UV-I 0 W/m 9,2 C 0,0 km/h (0 Bft)
07.08.2016 04:29 9,8 C 9,8 C 96 % 1027,7 hPa 0,0 mm 0,0 km/h (0 Bft) W-NW 283 0 min 0,000 mm 0,0 UV-I 0 W/m 9,2 C 0,0 km/h (0 Bft)
07.08.2016 04:30 9,8 C 9,8 C 96 % 1027,7 hPa 0,0 mm 0,0 km/h (0 Bft) W-NW 283 0 min 0,000 mm 0,0 UV-I 0 W/m 9,2 C 0,0 km/h (0 Bft)
07.08.2016 04:31 9,8 C 9,8 C 96 % 1027,7 hPa 0,0 mm 0,0 km/h (0 Bft) W-NW 283 0 min 0,000 mm 0,0 UV-I 0 W/m 9,2 C 0,0 km/h (0 Bft)
07.08.2016 04:32 9,8 C 9,8 C 96 % 1027,7 hPa 0,0 mm 0,0 km/h (0 Bft) W-NW 283 0 min 0,000 mm 0,0 UV-I 0 W/m 9,2 C 0,0 km/h (0 Bft)
07.08.2016 04:33 9,7 C 9,8 C 96 % 1027,7 hPa 0,0 mm 0,0 km/h (0 Bft) W-NW 283 0 min 0,000 mm 0,0 UV-I 0 W/m 9,1 C 0,0 km/h (0 Bft)
07.08.2016 04:34 9,7 C 9,7 C 96 % 1027,7 hPa 0,0 mm 0,0 km/h (0 Bft) W-NW 283 0 min 0,000 mm 0,0 UV-I 0 W/m 9,1 C 0,0 km/h (0 Bft)
07.08.2016 04:35 9,7 C 9,7 C 96 % 1027,7 hPa 0,0 mm 0,0 km/h (0 Bft) W-NW 283 0 min 0,000 mm 0,0 UV-I 0 W/m 9,1 C 0,0 km/h (0 Bft)
07.08.2016 04:36 9,7 C 9,8 C 96 % 1027,7 hPa 0,0 mm 0,0 km/h (0 Bft) W-NW 283 0 min 0,000 mm 0,0 UV-I 0 W/m 9,1 C 0,0 km/h (0 Bft)
07.08.2016 04:37 9,7 C 9,7 C 96 % 1027,7 hPa 0,0 mm 0,0 km/h (0 Bft) W-NW 283 0 min 0,000 mm 0,0 UV-I 0 W/m 9,1 C 0,0 km/h (0 Bft)
07.08.2016 04:38 9,7 C 9,7 C 96 % 1027,7 hPa 0,0 mm 0,0 km/h (0 Bft) W-NW 283 0 min 0,000 mm 0,0 UV-I 0 W/m 9,1 C 0,0 km/h (0 Bft)
07.08.2016 04:39 9,7 C 9,7 C 96 % 1027,7 hPa 0,0 mm 0,0 km/h (0 Bft) W-NW 283 0 min 0,000 mm 0,0 UV-I 0 W/m 9,1 C 0,0 km/h (0 Bft)
07.08.2016 04:40 9,6 C 9,7 C 96 % 1027,7 hPa 0,0 mm 0,0 km/h (0 Bft) W-NW 283 0 min 0,000 mm 0,0 UV-I 0 W/m 9,0 C 0,0 km/h (0 Bft)
07.08.2016 04:41 9,6 C 9,7 C 96 % 1027,7 hPa 0,0 mm 0,0 km/h (0 Bft) W-NW 283 0 min 0,000 mm 0,0 UV-I 0 W/m 9,0 C 0,0 km/h (0 Bft)
07.08.2016 04:42 9,6 C 9,7 C 96 % 1027,7 hPa 0,0 mm 0,0 km/h (0 Bft) W-NW 283 0 min 0,000 mm 0,0 UV-I 0 W/m 9,0 C 0,0 km/h (0 Bft)
07.08.2016 04:43 9,7 C 9,7 C 96 % 1027,7 hPa 0,0 mm 0,0 km/h (0 Bft) W-NW 283 0 min 0,000 mm 0,0 UV-I 0 W/m 9,1 C 0,0 km/h (0 Bft)
07.08.2016 04:44 9,7 C 9,7 C 96 % 1027,7 hPa 0,0 mm 0,0 km/h (0 Bft) W-NW 283 0 min 0,000 mm 0,0 UV-I 0 W/m 9,1 C 0,0 km/h (0 Bft)
07.08.2016 04:45 9,7 C 9,7 C 96 % 1027,7 hPa 0,0 mm 0,0 km/h (0 Bft) W-NW 283 0 min 0,000 mm 0,0 UV-I 0 W/m 9,1 C 0,0 km/h (0 Bft)
07.08.2016 04:46 9,8 C 9,8 C 96 % 1027,6 hPa 0,0 mm 0,0 km/h (0 Bft) W-NW 283 0 min 0,000 mm 0,0 UV-I 0 W/m 9,2 C 0,0 km/h (0 Bft)
07.08.2016 04:47 9,9 C 9,9 C 96 % 1027,7 hPa 0,0 mm 0,0 km/h (0 Bft) W-NW 283 0 min 0,000 mm 0,0 UV-I 0 W/m 9,3 C 0,0 km/h (0 Bft)
07.08.2016 04:48 9,9 C 9,9 C 96 % 1027,7 hPa 0,0 mm 0,0 km/h (0 Bft) W-NW 283 0 min 0,000 mm 0,0 UV-I 0 W/m 9,3 C 0,0 km/h (0 Bft)
07.08.2016 04:49 9,9 C 9,9 C 96 % 1027,7 hPa 0,0 mm 0,0 km/h (0 Bft) W-NW 283 0 min 0,000 mm 0,0 UV-I 0 W/m 9,3 C 0,0 km/h (0 Bft)
07.08.2016 04:50 9,9 C 9,9 C 96 % 1027,7 hPa 0,0 mm 0,0 km/h (0 Bft) W-NW 283 0 min 0,000 mm 0,0 UV-I 0 W/m 9,3 C 0,0 km/h (0 Bft)
07.08.2016 04:51 9,9 C 9,9 C 97 % 1027,7 hPa 0,0 mm 0,0 km/h (0 Bft) W-NW 283 0 min 0,000 mm 0,0 UV-I 0 W/m 9,4 C 0,0 km/h (0 Bft)
07.08.2016 04:52 9,9 C 9,9 C 97 % 1027,7 hPa 0,0 mm 0,0 km/h (0 Bft) W-NW 283 0 min 0,000 mm 0,0 UV-I 0 W/m 9,4 C 0,0 km/h (0 Bft)
07.08.2016 04:53 9,9 C 9,9 C 97 % 1027,7 hPa 0,0 mm 0,0 km/h (0 Bft) W-NW 283 0 min 0,000 mm 0,0 UV-I 0 W/m 9,4 C 0,0 km/h (0 Bft)
07.08.2016 04:54 10,1 C 10,1 C 97 % 1027,7 hPa 0,0 mm 0,0 km/h (0 Bft) W-NW 283 0 min 0,000 mm 0,0 UV-I 0 W/m 9,6 C 0,0 km/h (0 Bft)
07.08.2016 04:55 10,1 C 10,1 C 97 % 1027,7 hPa 0,0 mm 0,0 km/h (0 Bft) W-NW 282 0 min 0,000 mm 0,0 UV-I 0 W/m 9,6 C 0,0 km/h (0 Bft)
07.08.2016 04:56 10,2 C 10,2 C 96 % 1027,7 hPa 0,0 mm 1,1 km/h (1 Bft) W 272 0 min 0,000 mm 0,0 UV-I 0 W/m 9,6 C 3,2 km/h (1 Bft)
07.08.2016 04:57 10,2 C 10,2 C 96 % 1027,7 hPa 0,0 mm 0,0 km/h (0 Bft) W 272 0 min 0,000 mm 0,0 UV-I 0 W/m 9,6 C 0,0 km/h (0 Bft)
07.08.2016 04:58 10,3 C 10,3 C 96 % 1027,7 hPa 0,0 mm 0,0 km/h (0 Bft) W 272 0 min 0,000 mm 0,0 UV-I 0 W/m 9,7 C 0,0 km/h (0 Bft)
07.08.2016 04:59 10,3 C 10,3 C 96 % 1027,7 hPa 0,0 mm 0,0 km/h (0 Bft) W 272 0 min 0,000 mm 0,0 UV-I 0 W/m 9,7 C 0,0 km/h (0 Bft)
07.08.2016 05:00 10,3 C 10,3 C 97 % 1027,7 hPa 0,0 mm 0,0 km/h (0 Bft) W 272 0 min 0,000 mm 0,0 UV-I 0 W/m 9,8 C 0,0 km/h (0 Bft)
07.08.2016 05:01 10,3 C 10,3 C 96 % 1027,7 hPa 0,0 mm 0,0 km/h (0 Bft) W 272 0 min 0,000 mm 0,0 UV-I 0 W/m 9,7 C 0,0 km/h (0 Bft)
07.08.2016 05:02 10,3 C 10,3 C 97 % 1027,6 hPa 0,0 mm 0,6 km/h (0 Bft) N-NW 340 0 min 0,000 mm 0,0 UV-I 0 W/m 9,8 C 3,2 km/h (1 Bft)
07.08.2016 05:03 10,3 C 10,3 C 97 % 1027,6 hPa 0,0 mm 0,7 km/h (0 Bft) N-NW 340 0 min 0,000 mm 0,0 UV-I 0 W/m 9,8 C 1,6 km/h (1 Bft)
07.08.2016 05:04 10,3 C 10,3 C 97 % 1027,6 hPa 0,0 mm 0,0 km/h (0 Bft) N-NW 340 0 min 0,000 mm 0,0 UV-I 0 W/m 9,8 C 0,0 km/h (0 Bft)
07.08.2016 05:05 10,3 C 10,3 C 97 % 1027,6 hPa 0,0 mm 0,1 km/h (0 Bft) N-NW 340 0 min 0,000 mm 0,0 UV-I 0 W/m 9,8 C 1,6 km/h (1 Bft)
07.08.2016 05:06 10,3 C 10,3 C 96 % 1027,6 hPa 0,0 mm 0,0 km/h (0 Bft) N-NW 340 0 min 0,000 mm 0,0 UV-I 0 W/m 9,7 C 0,0 km/h (0 Bft)
07.08.2016 05:07 10,3 C 10,3 C 96 % 1027,6 hPa 0,0 mm 0,2 km/h (0 Bft) N-NW 340 0 min 0,000 mm 0,0 UV-I 0 W/m 9,7 C 1,6 km/h (1 Bft)
07.08.2016 05:08 10,3 C 10,3 C 96 % 1027,6 hPa 0,0 mm 0,2 km/h (0 Bft) N-NW 340 0 min 0,000 mm 0,0 UV-I 0 W/m 9,7 C 1,6 km/h (1 Bft)
07.08.2016 05:09 10,2 C 10,3 C 96 % 1027,6 hPa 0,0 mm 0,0 km/h (0 Bft) N-NW 340 0 min 0,000 mm 0,0 UV-I 0 W/m 9,6 C 0,0 km/h (0 Bft)
07.08.2016 05:10 10,2 C 10,3 C 96 % 1027,6 hPa 0,0 mm 0,0 km/h (0 Bft) N-NW 340 0 min 0,000 mm 0,0 UV-I 0 W/m 9,6 C 0,0 km/h (0 Bft)
07.08.2016 05:11 10,3 C 10,3 C 96 % 1027,6 hPa 0,0 mm 0,0 km/h (0 Bft) N-NW 340 0 min 0,000 mm 0,0 UV-I 0 W/m 9,7 C 0,0 km/h (0 Bft)
07.08.2016 05:12 10,3 C 10,3 C 96 % 1027,6 hPa 0,0 mm 0,0 km/h (0 Bft) N-NW 340 0 min 0,000 mm 0,0 UV-I 0 W/m 9,7 C 0,0 km/h (0 Bft)
07.08.2016 05:13 10,2 C 10,3 C 96 % 1027,6 hPa 0,0 mm 0,0 km/h (0 Bft) N-NW 340 0 min 0,000 mm 0,0 UV-I 0 W/m 9,6 C 0,0 km/h (0 Bft)
07.08.2016 05:14 10,2 C 10,2 C 96 % 1027,6 hPa 0,0 mm 0,0 km/h (0 Bft) N-NW 340 0 min 0,000 mm 0,0 UV-I 0 W/m 9,6 C 0,0 km/h (0 Bft)
07.08.2016 05:15 10,2 C 10,2 C 96 % 1027,6 hPa 0,0 mm 0,0 km/h (0 Bft) N-NW 340 0 min 0,000 mm 0,0 UV-I 0 W/m 9,6 C 0,0 km/h (0 Bft)
07.08.2016 05:16 10,2 C 10,2 C 96 % 1027,6 hPa 0,0 mm 0,0 km/h (0 Bft) N-NW 340 0 min 0,000 mm 0,0 UV-I 0 W/m 9,6 C 0,0 km/h (0 Bft)
07.08.2016 05:17 10,2 C 10,2 C 96 % 1027,6 hPa 0,0 mm 0,0 km/h (0 Bft) N-NW 340 0 min 0,000 mm 0,0 UV-I 0 W/m 9,6 C 0,0 km/h (0 Bft)
07.08.2016 05:18 10,1 C 10,2 C 96 % 1027,6 hPa 0,0 mm 0,0 km/h (0 Bft) N-NW 340 0 min 0,000 mm 0,0 UV-I 0 W/m 9,5 C 0,0 km/h (0 Bft)
07.08.2016 05:19 10,1 C 10,1 C 96 % 1027,6 hPa 0,0 mm 0,0 km/h (0 Bft) N-NW 340 0 min 0,000 mm 0,0 UV-I 0 W/m 9,5 C 0,0 km/h (0 Bft)
07.08.2016 05:20 10,0 C 10,1 C 96 % 1027,6 hPa 0,0 mm 0,0 km/h (0 Bft) N-NW 340 0 min 0,000 mm 0,0 UV-I 0 W/m 9,4 C 0,0 km/h (0 Bft)
07.08.2016 05:21 9,9 C 10,0 C 96 % 1027,6 hPa 0,0 mm 0,0 km/h (0 Bft) N-NW 340 0 min 0,000 mm 0,0 UV-I 0 W/m 9,3 C 0,0 km/h (0 Bft)
07.08.2016 05:22 9,8 C 9,9 C 96 % 1027,7 hPa 0,0 mm 0,0 km/h (0 Bft) N-NW 340 0 min 0,000 mm 0,0 UV-I 0 W/m 9,2 C 0,0 km/h (0 Bft)
07.08.2016 05:23 9,8 C 9,8 C 96 % 1027,7 hPa 0,0 mm 0,0 km/h (0 Bft) N-NW 340 0 min 0,000 mm 0,0 UV-I 0 W/m 9,2 C 0,0 km/h (0 Bft)
07.08.2016 05:24 9,8 C 9,8 C 96 % 1027,7 hPa 0,0 mm 0,0 km/h (0 Bft) N-NW 340 0 min 0,000 mm 0,0 UV-I 0 W/m 9,2 C 0,0 km/h (0 Bft)
07.08.2016 05:25 9,8 C 9,8 C 96 % 1027,7 hPa 0,0 mm 0,0 km/h (0 Bft) N-NW 340 0 min 0,000 mm 0,0 UV-I 0 W/m 9,2 C 0,0 km/h (0 Bft)
07.08.2016 05:26 9,7 C 9,8 C 96 % 1027,7 hPa 0,0 mm 0,0 km/h (0 Bft) N-NW 340 0 min 0,000 mm 0,0 UV-I 0 W/m 9,1 C 0,0 km/h (0 Bft)
07.08.2016 05:27 9,7 C 9,8 C 96 % 1027,7 hPa 0,0 mm 0,0 km/h (0 Bft) N-NW 340 0 min 0,000 mm 0,0 UV-I 0 W/m 9,1 C 0,0 km/h (0 Bft)
07.08.2016 05:28 9,8 C 9,8 C 96 % 1027,8 hPa 0,0 mm 0,0 km/h (0 Bft) N-NW 340 0 min 0,000 mm 0,0 UV-I 0 W/m 9,2 C 0,0 km/h (0 Bft)
07.08.2016 05:29 9,8 C 9,8 C 96 % 1027,7 hPa 0,0 mm 0,0 km/h (0 Bft) N-NW 340 0 min 0,000 mm 0,0 UV-I 0 W/m 9,2 C 0,0 km/h (0 Bft)
07.08.2016 05:30 9,7 C 9,8 C 96 % 1027,7 hPa 0,0 mm 0,0 km/h (0 Bft) N-NW 340 0 min 0,000 mm 0,0 UV-I 0 W/m 9,1 C 0,0 km/h (0 Bft)
07.08.2016 05:31 9,8 C 9,8 C 96 % 1027,7 hPa 0,0 mm 0,0 km/h (0 Bft) N-NW 340 0 min 0,000 mm 0,0 UV-I 0 W/m 9,2 C 0,0 km/h (0 Bft)
07.08.2016 05:32 9,8 C 9,8 C 96 % 1027,7 hPa 0,0 mm 0,0 km/h (0 Bft) N-NW 340 0 min 0,000 mm 0,0 UV-I 0 W/m 9,2 C 0,0 km/h (0 Bft)
07.08.2016 05:33 9,8 C 9,8 C 96 % 1027,7 hPa 0,0 mm 0,0 km/h (0 Bft) N-NW 340 0 min 0,000 mm 0,0 UV-I 0 W/m 9,2 C 0,0 km/h (0 Bft)
07.08.2016 05:34 9,8 C 9,8 C 96 % 1027,8 hPa 0,0 mm 0,0 km/h (0 Bft) N-NW 340 0 min 0,000 mm 0,0 UV-I 0 W/m 9,2 C 0,0 km/h (0 Bft)
07.08.2016 05:35 9,8 C 9,8 C 96 % 1027,8 hPa 0,0 mm 0,0 km/h (0 Bft) N-NW 340 0 min 0,000 mm 0,0 UV-I 0 W/m 9,2 C 0,0 km/h (0 Bft)
07.08.2016 05:36 9,7 C 9,8 C 96 % 1027,7 hPa 0,0 mm 0,0 km/h (0 Bft) N-NW 340 0 min 0,000 mm 0,0 UV-I 0 W/m 9,1 C 0,0 km/h (0 Bft)
07.08.2016 05:37 9,7 C 9,7 C 96 % 1027,7 hPa 0,0 mm 0,0 km/h (0 Bft) N-NW 340 0 min 0,000 mm 0,0 UV-I 0 W/m 9,1 C 0,0 km/h (0 Bft)
07.08.2016 05:38 9,7 C 9,7 C 96 % 1027,7 hPa 0,0 mm 0,0 km/h (0 Bft) N-NW 340 0 min 0,000 mm 0,0 UV-I 0 W/m 9,1 C 0,0 km/h (0 Bft)
07.08.2016 05:39 9,7 C 9,7 C 96 % 1027,7 hPa 0,0 mm 0,0 km/h (0 Bft) N-NW 340 0 min 0,000 mm 0,0 UV-I 0 W/m 9,1 C 0,0 km/h (0 Bft)
07.08.2016 05:40 9,6 C 9,7 C 96 % 1027,8 hPa 0,0 mm 0,0 km/h (0 Bft) N-NW 340 0 min 0,000 mm 0,0 UV-I 0 W/m 9,0 C 0,0 km/h (0 Bft)
07.08.2016 05:41 9,6 C 9,6 C 96 % 1027,8 hPa 0,0 mm 0,0 km/h (0 Bft) N-NW 340 0 min 0,000 mm 0,0 UV-I 0 W/m 9,0 C 0,0 km/h (0 Bft)
07.08.2016 05:42 9,6 C 9,6 C 96 % 1027,8 hPa 0,0 mm 0,0 km/h (0 Bft) N-NW 340 0 min 0,000 mm 0,0 UV-I 0 W/m 9,0 C 0,0 km/h (0 Bft)
07.08.2016 05:43 9,6 C 9,6 C 96 % 1027,8 hPa 0,0 mm 0,0 km/h (0 Bft) N-NW 340 0 min 0,000 mm 0,0 UV-I 0 W/m 9,0 C 0,0 km/h (0 Bft)
07.08.2016 05:44 9,6 C 9,6 C 96 % 1027,8 hPa 0,0 mm 0,0 km/h (0 Bft) N-NW 340 0 min 0,000 mm 0,0 UV-I 0 W/m 9,0 C 0,0 km/h (0 Bft)
07.08.2016 05:45 9,6 C 9,6 C 96 % 1027,8 hPa 0,0 mm 0,0 km/h (0 Bft) N-NW 340 0 min 0,000 mm 0,0 UV-I 0 W/m 9,0 C 0,0 km/h (0 Bft)
07.08.2016 05:46 9,5 C 9,6 C 96 % 1027,7 hPa 0,0 mm 0,0 km/h (0 Bft) N-NW 340 0 min 0,000 mm 0,0 UV-I 0 W/m 8,9 C 0,0 km/h (0 Bft)
07.08.2016 05:47 9,4 C 9,6 C 96 % 1027,8 hPa 0,0 mm 0,0 km/h (0 Bft) N-NW 340 0 min 0,000 mm 0,0 UV-I 0 W/m 8,8 C 0,0 km/h (0 Bft)
07.08.2016 05:48 9,4 C 9,4 C 96 % 1027,8 hPa 0,0 mm 0,0 km/h (0 Bft) N-NW 340 0 min 0,000 mm 0,0 UV-I 0 W/m 8,8 C 0,0 km/h (0 Bft)
07.08.2016 05:49 9,4 C 9,4 C 96 % 1027,8 hPa 0,0 mm 0,0 km/h (0 Bft) N-NW 340 0 min 0,000 mm 0,0 UV-I 0 W/m 8,8 C 0,0 km/h (0 Bft)
07.08.2016 05:50 9,4 C 9,4 C 96 % 1027,8 hPa 0,0 mm 0,0 km/h (0 Bft) N-NW 340 0 min 0,000 mm 0,0 UV-I 0 W/m 8,8 C 0,0 km/h (0 Bft)
07.08.2016 05:51 9,3 C 9,4 C 96 % 1027,8 hPa 0,0 mm 0,0 km/h (0 Bft) N-NW 340 0 min 0,000 mm 0,0 UV-I 0 W/m 8,7 C 0,0 km/h (0 Bft)
07.08.2016 05:52 9,2 C 9,3 C 96 % 1027,8 hPa 0,0 mm 0,0 km/h (0 Bft) N-NW 340 0 min 0,000 mm 0,0 UV-I 0 W/m 8,6 C 0,0 km/h (0 Bft)
07.08.2016 05:53 9,2 C 9,2 C 96 % 1027,8 hPa 0,0 mm 0,0 km/h (0 Bft) N-NW 340 0 min 0,000 mm 0,0 UV-I 0 W/m 8,6 C 0,0 km/h (0 Bft)
07.08.2016 05:54 9,2 C 9,2 C 96 % 1027,9 hPa 0,0 mm 0,0 km/h (0 Bft) N-NW 340 0 min 0,000 mm 0,0 UV-I 0 W/m 8,6 C 0,0 km/h (0 Bft)
07.08.2016 05:55 9,2 C 9,2 C 96 % 1027,9 hPa 0,0 mm 0,0 km/h (0 Bft) N-NW 340 0 min 0,000 mm 0,0 UV-I 0 W/m 8,6 C 0,0 km/h (0 Bft)
07.08.2016 05:56 9,2 C 9,2 C 96 % 1027,9 hPa 0,0 mm 0,0 km/h (0 Bft) N-NW 340 0 min 0,000 mm 0,0 UV-I 0 W/m 8,6 C 0,0 km/h (0 Bft)
07.08.2016 05:57 9,2 C 9,2 C 96 % 1027,9 hPa 0,0 mm 0,0 km/h (0 Bft) N-NW 340 0 min 0,000 mm 0,0 UV-I 0 W/m 8,6 C 0,0 km/h (0 Bft)
07.08.2016 05:58 9,2 C 9,2 C 96 % 1027,9 hPa 0,0 mm 0,0 km/h (0 Bft) N-NW 340 0 min 0,000 mm 0,0 UV-I 0 W/m 8,6 C 0,0 km/h (0 Bft)
07.08.2016 05:59 9,2 C 9,2 C 96 % 1027,9 hPa 0,0 mm 0,0 km/h (0 Bft) N-NW 340 0 min 0,000 mm 0,0 UV-I 0 W/m 8,6 C 0,0 km/h (0 Bft)
07.08.2016 06:00 9,2 C 9,2 C 96 % 1027,9 hPa 0,0 mm 0,0 km/h (0 Bft) N-NW 340 0 min 0,000 mm 0,0 UV-I 0 W/m 8,6 C 0,0 km/h (0 Bft)
07.08.2016 06:01 9,3 C 9,3 C 96 % 1027,9 hPa 0,0 mm 0,0 km/h (0 Bft) N-NW 340 0 min 0,000 mm 0,0 UV-I 0 W/m 8,7 C 0,0 km/h (0 Bft)
07.08.2016 06:02 9,4 C 9,4 C 96 % 1027,9 hPa 0,0 mm 0,0 km/h (0 Bft) N-NW 340 0 min 0,000 mm 0,0 UV-I 0 W/m 8,8 C 0,0 km/h (0 Bft)
07.08.2016 06:03 9,4 C 9,4 C 96 % 1027,9 hPa 0,0 mm 0,0 km/h (0 Bft) N-NW 340 0 min 0,000 mm 0,0 UV-I 0 W/m 8,8 C 0,0 km/h (0 Bft)
07.08.2016 06:04 9,4 C 9,4 C 97 % 1028,0 hPa 0,0 mm 0,0 km/h (0 Bft) N-NW 340 0 min 0,000 mm 0,0 UV-I 5 W/m 8,9 C 0,0 km/h (0 Bft)
07.08.2016 06:05 9,4 C 9,4 C 97 % 1028,0 hPa 0,0 mm 0,0 km/h (0 Bft) N-NW 340 0 min 0,000 mm 0,0 UV-I 5 W/m 8,9 C 0,0 km/h (0 Bft)
07.08.2016 06:06 9,5 C 9,5 C 96 % 1028,0 hPa 0,0 mm 0,0 km/h (0 Bft) N-NW 340 0 min 0,000 mm 0,0 UV-I 5 W/m 8,9 C 0,0 km/h (0 Bft)
07.08.2016 06:07 9,5 C 9,5 C 96 % 1028,0 hPa 0,0 mm 0,0 km/h (0 Bft) N-NW 340 0 min 0,000 mm 0,0 UV-I 5 W/m 8,9 C 0,0 km/h (0 Bft)
07.08.2016 06:08 9,6 C 9,6 C 96 % 1028,0 hPa 0,0 mm 0,0 km/h (0 Bft) N-NW 340 0 min 0,000 mm 0,0 UV-I 5 W/m 9,0 C 0,0 km/h (0 Bft)
07.08.2016 06:09 9,5 C 9,6 C 96 % 1028,0 hPa 0,0 mm 0,0 km/h (0 Bft) N-NW 340 0 min 0,000 mm 0,0 UV-I 7 W/m 8,9 C 0,0 km/h (0 Bft)
07.08.2016 06:10 9,4 C 9,5 C 96 % 1028,0 hPa 0,0 mm 0,0 km/h (0 Bft) N-NW 340 0 min 0,000 mm 0,0 UV-I 7 W/m 8,8 C 0,0 km/h (0 Bft)
07.08.2016 06:11 9,4 C 9,4 C 96 % 1027,9 hPa 0,0 mm 0,0 km/h (0 Bft) N-NW 340 0 min 0,000 mm 0,0 UV-I 7 W/m 8,8 C 0,0 km/h (0 Bft)
07.08.2016 06:12 9,4 C 9,4 C 96 % 1028,0 hPa 0,0 mm 0,0 km/h (0 Bft) N-NW 340 0 min 0,000 mm 0,0 UV-I 7 W/m 8,8 C 0,0 km/h (0 Bft)
07.08.2016 06:13 9,4 C 9,4 C 96 % 1028,0 hPa 0,0 mm 0,0 km/h (0 Bft) N-NW 340 0 min 0,000 mm 0,0 UV-I 7 W/m 8,8 C 0,0 km/h (0 Bft)
07.08.2016 06:14 9,4 C 9,4 C 96 % 1028,0 hPa 0,0 mm 0,0 km/h (0 Bft) N-NW 340 0 min 0,000 mm 0,0 UV-I 9 W/m 8,8 C 0,0 km/h (0 Bft)
07.08.2016 06:15 9,4 C 9,4 C 96 % 1028,0 hPa 0,0 mm 0,0 km/h (0 Bft) N-NW 340 0 min 0,000 mm 0,0 UV-I 9 W/m 8,8 C 0,0 km/h (0 Bft)
07.08.2016 06:16 9,3 C 9,4 C 96 % 1028,0 hPa 0,0 mm 0,0 km/h (0 Bft) N-NW 340 0 min 0,000 mm 0,0 UV-I 9 W/m 8,7 C 0,0 km/h (0 Bft)
07.08.2016 06:17 9,3 C 9,3 C 96 % 1027,9 hPa 0,0 mm 0,0 km/h (0 Bft) N-NW 340 0 min 0,000 mm 0,0 UV-I 11 W/m 8,7 C 0,0 km/h (0 Bft)
07.08.2016 06:18 9,3 C 9,3 C 96 % 1028,0 hPa 0,0 mm 0,0 km/h (0 Bft) N-NW 340 0 min 0,000 mm 0,0 UV-I 11 W/m 8,7 C 0,0 km/h (0 Bft)
07.08.2016 06:19 9,3 C 9,3 C 96 % 1028,0 hPa 0,0 mm 0,0 km/h (0 Bft) N-NW 340 0 min 0,000 mm 0,0 UV-I 11 W/m 8,7 C 0,0 km/h (0 Bft)
07.08.2016 06:20 9,2 C 9,3 C 96 % 1028,0 hPa 0,0 mm 0,0 km/h (0 Bft) N-NW 340 0 min 0,000 mm 0,0 UV-I 12 W/m 8,6 C 0,0 km/h (0 Bft)
07.08.2016 06:21 9,2 C 9,2 C 96 % 1028,0 hPa 0,0 mm 0,0 km/h (0 Bft) N-NW 340 0 min 0,000 mm 0,0 UV-I 12 W/m 8,6 C 0,0 km/h (0 Bft)
07.08.2016 06:22 9,2 C 9,2 C 96 % 1028,0 hPa 0,0 mm 0,0 km/h (0 Bft) N-NW 340 0 min 0,000 mm 0,0 UV-I 12 W/m 8,6 C 0,0 km/h (0 Bft)
07.08.2016 06:23 9,2 C 9,2 C 96 % 1028,0 hPa 0,0 mm 0,0 km/h (0 Bft) N-NW 340 0 min 0,000 mm 0,0 UV-I 12 W/m 8,6 C 0,0 km/h (0 Bft)
07.08.2016 06:24 9,2 C 9,2 C 96 % 1028,0 hPa 0,0 mm 0,0 km/h (0 Bft) N-NW 340 0 min 0,000 mm 0,0 UV-I 14 W/m 8,6 C 0,0 km/h (0 Bft)
07.08.2016 06:25 9,2 C 9,2 C 96 % 1028,1 hPa 0,0 mm 0,0 km/h (0 Bft) N-NW 340 0 min 0,000 mm 0,0 UV-I 14 W/m 8,6 C 0,0 km/h (0 Bft)
07.08.2016 06:26 9,2 C 9,2 C 96 % 1028,1 hPa 0,0 mm 0,0 km/h (0 Bft) N-NW 340 0 min 0,000 mm 0,0 UV-I 14 W/m 8,6 C 0,0 km/h (0 Bft)
07.08.2016 06:27 9,2 C 9,2 C 96 % 1028,1 hPa 0,0 mm 0,0 km/h (0 Bft) N-NW 340 0 min 0,000 mm 0,0 UV-I 16 W/m 8,6 C 0,0 km/h (0 Bft)
07.08.2016 06:28 9,2 C 9,2 C 96 % 1028,1 hPa 0,0 mm 0,0 km/h (0 Bft) N-NW 340 0 min 0,000 mm 0,0 UV-I 16 W/m 8,6 C 0,0 km/h (0 Bft)
07.08.2016 06:29 9,2 C 9,2 C 96 % 1028,1 hPa 0,0 mm 0,0 km/h (0 Bft) N-NW 340 0 min 0,000 mm 0,0 UV-I 16 W/m 8,6 C 0,0 km/h (0 Bft)
07.08.2016 06:30 9,2 C 9,2 C 96 % 1028,1 hPa 0,0 mm 0,0 km/h (0 Bft) N-NW 340 0 min 0,000 mm 0,0 UV-I 16 W/m 8,6 C 0,0 km/h (0 Bft)
07.08.2016 06:31 9,3 C 9,3 C 96 % 1028,1 hPa 0,0 mm 0,0 km/h (0 Bft) N-NW 340 0 min 0,000 mm 0,0 UV-I 18 W/m 8,7 C 0,0 km/h (0 Bft)
07.08.2016 06:32 9,3 C 9,3 C 97 % 1028,1 hPa 0,0 mm 0,0 km/h (0 Bft) N-NW 340 0 min 0,000 mm 0,0 UV-I 19 W/m 8,8 C 0,0 km/h (0 Bft)
07.08.2016 06:33 9,4 C 9,4 C 97 % 1028,1 hPa 0,0 mm 0,0 km/h (0 Bft) N-NW 340 0 min 0,000 mm 0,0 UV-I 19 W/m 8,9 C 0,0 km/h (0 Bft)
07.08.2016 06:34 9,4 C 9,4 C 97 % 1028,2 hPa 0,0 mm 0,0 km/h (0 Bft) N-NW 340 0 min 0,000 mm 0,0 UV-I 21 W/m 8,9 C 0,0 km/h (0 Bft)
07.08.2016 06:35 9,5 C 9,5 C 97 % 1028,2 hPa 0,0 mm 0,0 km/h (0 Bft) N-NW 340 0 min 0,000 mm 0,0 UV-I 21 W/m 9,0 C 0,0 km/h (0 Bft)
07.08.2016 06:36 9,5 C 9,5 C 97 % 1028,2 hPa 0,0 mm 0,0 km/h (0 Bft) N-NW 340 0 min 0,000 mm 0,0 UV-I 21 W/m 9,0 C 0,0 km/h (0 Bft)
07.08.2016 06:37 9,5 C 9,5 C 97 % 1028,2 hPa 0,0 mm 0,0 km/h (0 Bft) N-NW 340 0 min 0,000 mm 0,0 UV-I 21 W/m 9,0 C 0,0 km/h (0 Bft)
07.08.2016 06:38 9,6 C 9,6 C 97 % 1028,2 hPa 0,0 mm 0,0 km/h (0 Bft) N-NW 340 0 min 0,000 mm 0,0 UV-I 23 W/m 9,1 C 0,0 km/h (0 Bft)
07.08.2016 06:39 9,6 C 9,6 C 97 % 1028,3 hPa 0,0 mm 0,0 km/h (0 Bft) N-NW 340 0 min 0,000 mm 0,0 UV-I 25 W/m 9,1 C 0,0 km/h (0 Bft)
07.08.2016 06:40 9,6 C 9,6 C 97 % 1028,3 hPa 0,0 mm 0,0 km/h (0 Bft) N-NW 340 0 min 0,000 mm 0,0 UV-I 26 W/m 9,1 C 0,0 km/h (0 Bft)
07.08.2016 06:41 9,6 C 9,6 C 97 % 1028,2 hPa 0,0 mm 0,0 km/h (0 Bft) N-NW 340 0 min 0,000 mm 0,0 UV-I 26 W/m 9,1 C 0,0 km/h (0 Bft)
07.08.2016 06:42 9,6 C 9,6 C 96 % 1028,2 hPa 0,0 mm 0,0 km/h (0 Bft) N-NW 340 0 min 0,000 mm 0,0 UV-I 28 W/m 9,0 C 0,0 km/h (0 Bft)
07.08.2016 06:43 9,6 C 9,6 C 96 % 1028,3 hPa 0,0 mm 0,0 km/h (0 Bft) N-NW 340 0 min 0,000 mm 0,0 UV-I 26 W/m 9,0 C 0,0 km/h (0 Bft)
07.08.2016 06:44 9,6 C 9,6 C 96 % 1028,3 hPa 0,0 mm 0,0 km/h (0 Bft) N-NW 340 0 min 0,000 mm 0,0 UV-I 28 W/m 9,0 C 0,0 km/h (0 Bft)
07.08.2016 06:45 9,6 C 9,6 C 96 % 1028,3 hPa 0,0 mm 0,0 km/h (0 Bft) N-NW 340 0 min 0,000 mm 0,0 UV-I 28 W/m 9,0 C 0,0 km/h (0 Bft)
07.08.2016 06:46 9,6 C 9,6 C 96 % 1028,3 hPa 0,0 mm 0,0 km/h (0 Bft) N-NW 340 0 min 0,000 mm 0,0 UV-I 32 W/m 9,0 C 0,0 km/h (0 Bft)
07.08.2016 06:47 9,6 C 9,6 C 96 % 1028,3 hPa 0,0 mm 0,0 km/h (0 Bft) N-NW 340 0 min 0,000 mm 0,0 UV-I 32 W/m 9,0 C 0,0 km/h (0 Bft)
07.08.2016 06:48 9,7 C 9,7 C 96 % 1028,4 hPa 0,0 mm 0,0 km/h (0 Bft) N-NW 340 0 min 0,000 mm 0,0 UV-I 30 W/m 9,1 C 0,0 km/h (0 Bft)
07.08.2016 06:49 9,7 C 9,7 C 97 % 1028,4 hPa 0,0 mm 0,0 km/h (0 Bft) N-NW 340 0 min 0,000 mm 0,0 UV-I 30 W/m 9,2 C 0,0 km/h (0 Bft)
07.08.2016 06:50 9,7 C 9,7 C 97 % 1028,4 hPa 0,0 mm 0,0 km/h (0 Bft) N-NW 340 0 min 0,000 mm 0,0 UV-I 30 W/m 9,2 C 0,0 km/h (0 Bft)
07.08.2016 06:51 9,7 C 9,7 C 97 % 1028,4 hPa 0,0 mm 0,0 km/h (0 Bft) N-NW 340 0 min 0,000 mm 0,0 UV-I 32 W/m 9,2 C 0,0 km/h (0 Bft)
07.08.2016 06:52 9,7 C 9,7 C 97 % 1028,4 hPa 0,0 mm 0,0 km/h (0 Bft) N-NW 340 0 min 0,000 mm 0,0 UV-I 33 W/m 9,2 C 0,0 km/h (0 Bft)
07.08.2016 06:53 9,6 C 9,7 C 96 % 1028,4 hPa 0,0 mm 0,0 km/h (0 Bft) N-NW 340 0 min 0,000 mm 0,0 UV-I 35 W/m 9,0 C 0,0 km/h (0 Bft)
07.08.2016 06:54 9,6 C 9,6 C 96 % 1028,4 hPa 0,0 mm 0,0 km/h (0 Bft) N-NW 340 0 min 0,000 mm 0,0 UV-I 33 W/m 9,0 C 0,0 km/h (0 Bft)
07.08.2016 06:55 9,6 C 9,6 C 96 % 1028,4 hPa 0,0 mm 0,0 km/h (0 Bft) N-NW 340 0 min 0,000 mm 0,0 UV-I 32 W/m 9,0 C 0,0 km/h (0 Bft)
07.08.2016 06:56 9,6 C 9,6 C 96 % 1028,4 hPa 0,0 mm 0,0 km/h (0 Bft) N-NW 340 0 min 0,000 mm 0,0 UV-I 32 W/m 9,0 C 0,0 km/h (0 Bft)
07.08.2016 06:57 9,6 C 9,6 C 96 % 1028,4 hPa 0,0 mm 0,0 km/h (0 Bft) N-NW 340 0 min 0,000 mm 0,0 UV-I 33 W/m 9,0 C 0,0 km/h (0 Bft)
07.08.2016 06:58 9,6 C 9,6 C 96 % 1028,4 hPa 0,0 mm 0,0 km/h (0 Bft) N-NW 340 0 min 0,000 mm 0,0 UV-I 35 W/m 9,0 C 0,0 km/h (0 Bft)
07.08.2016 06:59 9,6 C 9,6 C 96 % 1028,4 hPa 0,0 mm 0,0 km/h (0 Bft) N-NW 340 0 min 0,000 mm 0,0 UV-I 35 W/m 9,0 C 0,0 km/h (0 Bft)
07.08.2016 07:00 9,6 C 9,6 C 96 % 1028,4 hPa 0,0 mm 0,0 km/h (0 Bft) N-NW 340 0 min 0,000 mm 0,0 UV-I 37 W/m 9,0 C 0,0 km/h (0 Bft)
07.08.2016 07:01 9,6 C 9,6 C 96 % 1028,4 hPa 0,0 mm 0,0 km/h (0 Bft) N-NW 340 0 min 0,000 mm 0,0 UV-I 49 W/m 9,0 C 0,0 km/h (0 Bft)
07.08.2016 07:02 9,6 C 9,6 C 96 % 1028,5 hPa 0,0 mm 0,0 km/h (0 Bft) N-NW 340 0 min 0,000 mm 0,0 UV-I 51 W/m 9,0 C 0,0 km/h (0 Bft)
07.08.2016 07:03 9,7 C 9,7 C 96 % 1028,5 hPa 0,0 mm 0,0 km/h (0 Bft) N-NW 340 0 min 0,000 mm 0,0 UV-I 40 W/m 9,1 C 0,0 km/h (0 Bft)
07.08.2016 07:04 9,7 C 9,7 C 96 % 1028,5 hPa 0,0 mm 0,0 km/h (0 Bft) N-NW 340 0 min 0,000 mm 0,0 UV-I 39 W/m 9,1 C 0,0 km/h (0 Bft)
07.08.2016 07:05 9,7 C 9,7 C 96 % 1028,4 hPa 0,0 mm 0,0 km/h (0 Bft) N-NW 340 0 min 0,000 mm 0,0 UV-I 39 W/m 9,1 C 0,0 km/h (0 Bft)
07.08.2016 07:06 9,7 C 9,7 C 96 % 1028,4 hPa 0,0 mm 0,0 km/h (0 Bft) N-NW 340 0 min 0,000 mm 0,0 UV-I 46 W/m 9,1 C 0,0 km/h (0 Bft)
07.08.2016 07:07 9,7 C 9,7 C 96 % 1028,4 hPa 0,0 mm 0,0 km/h (0 Bft) N-NW 340 0 min 0,000 mm 0,0 UV-I 44 W/m 9,1 C 0,0 km/h (0 Bft)
07.08.2016 07:08 9,7 C 9,8 C 96 % 1028,4 hPa 0,0 mm 0,0 km/h (0 Bft) N-NW 340 0 min 0,000 mm 0,0 UV-I 46 W/m 9,1 C 0,0 km/h (0 Bft)
07.08.2016 07:09 9,7 C 9,8 C 96 % 1028,5 hPa 0,0 mm 0,0 km/h (0 Bft) N-NW 340 0 min 0,000 mm 0,0 UV-I 56 W/m 9,1 C 0,0 km/h (0 Bft)
07.08.2016 07:10 9,8 C 9,8 C 96 % 1028,5 hPa 0,0 mm 0,0 km/h (0 Bft) N-NW 340 0 min 0,000 mm 0,0 UV-I 81 W/m 9,2 C 0,0 km/h (0 Bft)
07.08.2016 07:11 9,8 C 9,8 C 96 % 1028,5 hPa 0,0 mm 0,0 km/h (0 Bft) N-NW 340 0 min 0,000 mm 0,0 UV-I 81 W/m 9,2 C 0,0 km/h (0 Bft)
07.08.2016 07:12 9,8 C 9,8 C 96 % 1028,5 hPa 0,0 mm 0,0 km/h (0 Bft) N-NW 340 1 min 0,000 mm 0,0 UV-I 105 W/m 9,2 C 0,0 km/h (0 Bft)
07.08.2016 07:13 9,9 C 9,9 C 96 % 1028,5 hPa 0,0 mm 0,0 km/h (0 Bft) N-NW 340 0 min 0,000 mm 0,0 UV-I 42 W/m 9,3 C 0,0 km/h (0 Bft)
07.08.2016 07:14 9,9 C 9,9 C 96 % 1028,5 hPa 0,0 mm 0,0 km/h (0 Bft) N-NW 340 0 min 0,000 mm 0,0 UV-I 46 W/m 9,3 C 0,0 km/h (0 Bft)
07.08.2016 07:15 9,9 C 9,9 C 96 % 1028,5 hPa 0,0 mm 0,0 km/h (0 Bft) N-NW 340 0 min 0,000 mm 0,0 UV-I 62 W/m 9,3 C 0,0 km/h (0 Bft)
07.08.2016 07:16 9,9 C 9,9 C 96 % 1028,5 hPa 0,0 mm 0,0 km/h (0 Bft) N-NW 340 0 min 0,000 mm 0,0 UV-I 63 W/m 9,3 C 0,0 km/h (0 Bft)
07.08.2016 07:17 10,0 C 10,0 C 96 % 1028,5 hPa 0,0 mm 0,0 km/h (0 Bft) N-NW 340 0 min 0,000 mm 0,0 UV-I 56 W/m 9,4 C 0,0 km/h (0 Bft)
07.08.2016 07:18 10,0 C 10,0 C 96 % 1028,5 hPa 0,0 mm 0,0 km/h (0 Bft) N-NW 340 0 min 0,000 mm 0,0 UV-I 56 W/m 9,4 C 0,0 km/h (0 Bft)
07.08.2016 07:19 10,0 C 10,0 C 96 % 1028,5 hPa 0,0 mm 0,0 km/h (0 Bft) N-NW 340 0 min 0,000 mm 0,0 UV-I 51 W/m 9,4 C 0,0 km/h (0 Bft)
07.08.2016 07:20 10,1 C 10,1 C 96 % 1028,5 hPa 0,0 mm 0,0 km/h (0 Bft) N-NW 340 0 min 0,000 mm 0,0 UV-I 44 W/m 9,5 C 0,0 km/h (0 Bft)
07.08.2016 07:21 10,2 C 10,2 C 96 % 1028,5 hPa 0,0 mm 0,0 km/h (0 Bft) N-NW 340 0 min 0,000 mm 0,0 UV-I 40 W/m 9,6 C 0,0 km/h (0 Bft)
07.08.2016 07:22 10,2 C 10,2 C 96 % 1028,5 hPa 0,0 mm 0,0 km/h (0 Bft) N-NW 340 0 min 0,000 mm 0,0 UV-I 40 W/m 9,6 C 0,0 km/h (0 Bft)
07.08.2016 07:23 10,3 C 10,3 C 96 % 1028,5 hPa 0,0 mm 0,0 km/h (0 Bft) N-NW 340 0 min 0,000 mm 0,0 UV-I 42 W/m 9,7 C 0,0 km/h (0 Bft)
07.08.2016 07:24 10,3 C 10,3 C 97 % 1028,5 hPa 0,0 mm 0,0 km/h (0 Bft) N-NW 340 0 min 0,000 mm 0,0 UV-I 42 W/m 9,8 C 0,0 km/h (0 Bft)
07.08.2016 07:25 10,4 C 10,4 C 97 % 1028,5 hPa 0,0 mm 0,0 km/h (0 Bft) N-NW 340 0 min 0,000 mm 0,0 UV-I 44 W/m 9,9 C 0,0 km/h (0 Bft)
07.08.2016 07:26 10,4 C 10,4 C 97 % 1028,5 hPa 0,0 mm 0,0 km/h (0 Bft) N-NW 340 0 min 0,000 mm 0,0 UV-I 42 W/m 9,9 C 0,0 km/h (0 Bft)
07.08.2016 07:27 10,5 C 10,5 C 97 % 1028,6 hPa 0,0 mm 0,0 km/h (0 Bft) N-NW 340 0 min 0,000 mm 0,0 UV-I 42 W/m 10,0 C 0,0 km/h (0 Bft)
07.08.2016 07:28 10,6 C 10,6 C 96 % 1028,5 hPa 0,0 mm 0,0 km/h (0 Bft) N-NW 340 0 min 0,000 mm 0,0 UV-I 44 W/m 10,0 C 0,0 km/h (0 Bft)
07.08.2016 07:29 10,6 C 10,6 C 96 % 1028,6 hPa 0,0 mm 0,0 km/h (0 Bft) N-NW 340 0 min 0,000 mm 0,0 UV-I 47 W/m 10,0 C 0,0 km/h (0 Bft)
07.08.2016 07:30 10,7 C 10,7 C 96 % 1028,5 hPa 0,0 mm 0,0 km/h (0 Bft) N-NW 340 0 min 0,000 mm 0,0 UV-I 51 W/m 10,1 C 0,0 km/h (0 Bft)
07.08.2016 07:31 10,7 C 10,7 C 96 % 1028,5 hPa 0,0 mm 0,0 km/h (0 Bft) N-NW 340 0 min 0,000 mm 0,0 UV-I 54 W/m 10,1 C 0,0 km/h (0 Bft)
07.08.2016 07:32 10,7 C 10,8 C 96 % 1028,5 hPa 0,0 mm 0,0 km/h (0 Bft) N-NW 340 0 min 0,000 mm 0,6 UV-I 79 W/m 10,1 C 0,0 km/h (0 Bft)
07.08.2016 07:33 10,8 C 10,8 C 96 % 1028,5 hPa 0,0 mm 0,0 km/h (0 Bft) N-NW 340 0 min 0,000 mm 0,6 UV-I 116 W/m 10,2 C 0,0 km/h (0 Bft)
07.08.2016 07:34 10,9 C 10,9 C 96 % 1028,5 hPa 0,0 mm 0,0 km/h (0 Bft) N-NW 340 1 min 0,000 mm 0,6 UV-I 146 W/m 10,3 C 0,0 km/h (0 Bft)
07.08.2016 07:35 10,9 C 10,9 C 95 % 1028,5 hPa 0,0 mm 0,0 km/h (0 Bft) N-NW 340 1 min 0,000 mm 0,6 UV-I 167 W/m 10,1 C 0,0 km/h (0 Bft)
07.08.2016 07:36 11,0 C 11,0 C 95 % 1028,5 hPa 0,0 mm 0,0 km/h (0 Bft) N-NW 340 1 min 0,000 mm 0,6 UV-I 176 W/m 10,2 C 0,0 km/h (0 Bft)
07.08.2016 07:37 11,1 C 11,1 C 95 % 1028,5 hPa 0,0 mm 0,0 km/h (0 Bft) N-NW 340 1 min 0,000 mm 0,6 UV-I 178 W/m 10,3 C 0,0 km/h (0 Bft)
07.08.2016 07:38 11,2 C 11,2 C 95 % 1028,5 hPa 0,0 mm 0,0 km/h (0 Bft) N-NW 340 1 min 0,000 mm 0,7 UV-I 179 W/m 10,4 C 0,0 km/h (0 Bft)
07.08.2016 07:39 11,2 C 11,2 C 95 % 1028,6 hPa 0,0 mm 0,0 km/h (0 Bft) N-NW 340 1 min 0,000 mm 0,7 UV-I 181 W/m 10,4 C 0,0 km/h (0 Bft)
07.08.2016 07:40 11,3 C 11,3 C 95 % 1028,6 hPa 0,0 mm 0,0 km/h (0 Bft) N-NW 340 1 min 0,000 mm 0,7 UV-I 183 W/m 10,5 C 0,0 km/h (0 Bft)
07.08.2016 07:41 11,3 C 11,3 C 95 % 1028,6 hPa 0,0 mm 0,0 km/h (0 Bft) N-NW 340 1 min 0,000 mm 0,7 UV-I 185 W/m 10,5 C 0,0 km/h (0 Bft)
07.08.2016 07:42 11,3 C 11,3 C 95 % 1028,6 hPa 0,0 mm 0,0 km/h (0 Bft) N-NW 340 1 min 0,000 mm 0,7 UV-I 190 W/m 10,5 C 0,0 km/h (0 Bft)
07.08.2016 07:43 11,4 C 11,4 C 95 % 1028,6 hPa 0,0 mm 0,0 km/h (0 Bft) N-NW 340 1 min 0,000 mm 0,7 UV-I 192 W/m 10,6 C 0,0 km/h (0 Bft)
07.08.2016 07:44 11,6 C 11,6 C 95 % 1028,6 hPa 0,0 mm 0,0 km/h (0 Bft) N-NW 340 1 min 0,000 mm 0,7 UV-I 193 W/m 10,8 C 0,0 km/h (0 Bft)
07.08.2016 07:45 11,6 C 11,6 C 95 % 1028,6 hPa 0,0 mm 0,0 km/h (0 Bft) N-NW 340 1 min 0,000 mm 0,7 UV-I 197 W/m 10,8 C 0,0 km/h (0 Bft)
07.08.2016 07:46 11,7 C 11,7 C 95 % 1028,5 hPa 0,0 mm 0,0 km/h (0 Bft) N-NW 340 1 min 0,000 mm 0,8 UV-I 197 W/m 10,9 C 0,0 km/h (0 Bft)
07.08.2016 07:47 11,7 C 11,7 C 95 % 1028,5 hPa 0,0 mm 0,0 km/h (0 Bft) N-NW 340 1 min 0,000 mm 0,8 UV-I 200 W/m 10,9 C 0,0 km/h (0 Bft)
07.08.2016 07:48 11,8 C 11,8 C 94 % 1028,6 hPa 0,0 mm 0,0 km/h (0 Bft) N-NW 340 1 min 0,000 mm 0,8 UV-I 204 W/m 10,9 C 0,0 km/h (0 Bft)
07.08.2016 07:49 11,8 C 11,8 C 94 % 1028,6 hPa 0,0 mm 0,0 km/h (0 Bft) N-NW 340 1 min 0,000 mm 0,8 UV-I 206 W/m 10,9 C 0,0 km/h (0 Bft)
07.08.2016 07:50 11,8 C 11,8 C 94 % 1028,6 hPa 0,0 mm 0,0 km/h (0 Bft) N-NW 340 1 min 0,000 mm 0,8 UV-I 207 W/m 10,9 C 0,0 km/h (0 Bft)
07.08.2016 07:51 11,9 C 11,9 C 94 % 1028,6 hPa 0,0 mm 0,0 km/h (0 Bft) N-NW 340 1 min 0,000 mm 0,8 UV-I 209 W/m 11,0 C 0,0 km/h (0 Bft)
07.08.2016 07:52 11,9 C 11,9 C 94 % 1028,6 hPa 0,0 mm 0,0 km/h (0 Bft) N-NW 340 1 min 0,000 mm 0,8 UV-I 209 W/m 11,0 C 0,0 km/h (0 Bft)
07.08.2016 07:53 12,0 C 12,0 C 94 % 1028,6 hPa 0,0 mm 0,0 km/h (0 Bft) N-NW 340 1 min 0,000 mm 0,9 UV-I 213 W/m 11,1 C 0,0 km/h (0 Bft)
07.08.2016 07:54 12,1 C 12,1 C 94 % 1028,6 hPa 0,0 mm 0,0 km/h (0 Bft) N-NW 340 1 min 0,000 mm 0,9 UV-I 216 W/m 11,2 C 0,0 km/h (0 Bft)
07.08.2016 07:55 12,1 C 12,2 C 94 % 1028,6 hPa 0,0 mm 0,0 km/h (0 Bft) N-NW 340 1 min 0,000 mm 0,9 UV-I 218 W/m 11,2 C 0,0 km/h (0 Bft)
07.08.2016 07:56 12,2 C 12,2 C 93 % 1028,6 hPa 0,0 mm 0,0 km/h (0 Bft) N-NW 340 1 min 0,000 mm 0,9 UV-I 220 W/m 11,1 C 0,0 km/h (0 Bft)
07.08.2016 07:57 12,2 C 12,2 C 93 % 1028,6 hPa 0,0 mm 0,0 km/h (0 Bft) N-NW 340 1 min 0,000 mm 0,9 UV-I 221 W/m 11,1 C 0,0 km/h (0 Bft)
07.08.2016 07:58 12,3 C 12,3 C 93 % 1028,6 hPa 0,0 mm 0,0 km/h (0 Bft) N-NW 340 1 min 0,000 mm 0,9 UV-I 223 W/m 11,2 C 0,0 km/h (0 Bft)
07.08.2016 07:59 12,3 C 12,3 C 92 % 1028,6 hPa 0,0 mm 0,0 km/h (0 Bft) N-NW 340 1 min 0,000 mm 0,9 UV-I 223 W/m 11,0 C 0,0 km/h (0 Bft)
07.08.2016 08:00 12,4 C 12,4 C 93 % 1028,7 hPa 0,0 mm 0,0 km/h (0 Bft) N-NW 340 1 min 0,051 mm 1,0 UV-I 227 W/m 11,3 C 0,0 km/h (0 Bft)
07.08.2016 08:01 12,5 C 12,5 C 94 % 1028,7 hPa 0,0 mm 0,0 km/h (0 Bft) N-NW 340 1 min 0,000 mm 1,0 UV-I 229 W/m 11,6 C 0,0 km/h (0 Bft)
07.08.2016 08:02 12,7 C 12,7 C 93 % 1028,7 hPa 0,0 mm 0,0 km/h (0 Bft) N-NW 340 1 min 0,000 mm 1,0 UV-I 230 W/m 11,6 C 0,0 km/h (0 Bft)
07.08.2016 08:03 12,7 C 12,7 C 92 % 1028,7 hPa 0,0 mm 0,0 km/h (0 Bft) N-NW 340 1 min 0,000 mm 1,0 UV-I 232 W/m 11,4 C 0,0 km/h (0 Bft)
07.08.2016 08:04 12,7 C 12,7 C 92 % 1028,7 hPa 0,0 mm 0,0 km/h (0 Bft) N-NW 340 1 min 0,000 mm 1,0 UV-I 234 W/m 11,4 C 0,0 km/h (0 Bft)
07.08.2016 08:05 12,7 C 12,7 C 92 % 1028,7 hPa 0,0 mm 0,0 km/h (0 Bft) N-NW 340 1 min 0,000 mm 1,0 UV-I 236 W/m 11,4 C 0,0 km/h (0 Bft)
07.08.2016 08:06 12,8 C 12,8 C 92 % 1028,7 hPa 0,0 mm 0,0 km/h (0 Bft) N-NW 340 1 min 0,000 mm 1,0 UV-I 239 W/m 11,5 C 0,0 km/h (0 Bft)
07.08.2016 08:07 12,7 C 12,8 C 92 % 1028,7 hPa 0,0 mm 0,0 km/h (0 Bft) N-NW 341 1 min 0,000 mm 1,1 UV-I 241 W/m 11,4 C 0,0 km/h (0 Bft)
07.08.2016 08:08 12,7 C 12,7 C 91 % 1028,7 hPa 0,0 mm 0,0 km/h (0 Bft) N-NW 341 1 min 0,000 mm 1,1 UV-I 244 W/m 11,3 C 0,0 km/h (0 Bft)
07.08.2016 08:09 12,7 C 12,7 C 92 % 1028,6 hPa 0,0 mm 0,0 km/h (0 Bft) N-NW 341 1 min 0,000 mm 1,1 UV-I 246 W/m 11,4 C 0,0 km/h (0 Bft)
07.08.2016 08:10 12,7 C 12,7 C 92 % 1028,7 hPa 0,0 mm 0,0 km/h (0 Bft) N-NW 341 1 min 0,000 mm 1,1 UV-I 248 W/m 11,4 C 0,0 km/h (0 Bft)
07.08.2016 08:11 12,8 C 12,8 C 93 % 1028,7 hPa 0,0 mm 0,0 km/h (0 Bft) N-NW 341 1 min 0,000 mm 1,1 UV-I 251 W/m 11,7 C 0,0 km/h (0 Bft)
07.08.2016 08:12 12,8 C 12,9 C 93 % 1028,6 hPa 0,0 mm 0,0 km/h (0 Bft) N-NW 341 1 min 0,000 mm 1,1 UV-I 253 W/m 11,7 C 0,0 km/h (0 Bft)
07.08.2016 08:13 13,1 C 13,1 C 93 % 1028,6 hPa 0,0 mm 0,0 km/h (0 Bft) N-NW 341 1 min 0,000 mm 1,2 UV-I 255 W/m 12,0 C 0,0 km/h (0 Bft)
07.08.2016 08:14 13,2 C 13,2 C 93 % 1028,6 hPa 0,0 mm 0,0 km/h (0 Bft) N-NW 341 1 min 0,000 mm 1,2 UV-I 258 W/m 12,1 C 0,0 km/h (0 Bft)
07.08.2016 08:15 13,3 C 13,3 C 93 % 1028,6 hPa 0,0 mm 0,0 km/h (0 Bft) N-NW 341 1 min 0,000 mm 1,2 UV-I 260 W/m 12,2 C 0,0 km/h (0 Bft)
07.08.2016 08:16 13,3 C 13,3 C 91 % 1028,6 hPa 0,0 mm 0,0 km/h (0 Bft) N-NW 341 1 min 0,000 mm 1,2 UV-I 262 W/m 11,9 C 0,0 km/h (0 Bft)
07.08.2016 08:17 13,3 C 13,3 C 91 % 1028,7 hPa 0,0 mm 0,0 km/h (0 Bft) N-NW 341 1 min 0,000 mm 1,2 UV-I 264 W/m 11,9 C 0,0 km/h (0 Bft)
07.08.2016 08:18 13,3 C 13,3 C 92 % 1028,7 hPa 0,0 mm 0,0 km/h (0 Bft) N-NW 341 1 min 0,000 mm 1,2 UV-I 267 W/m 12,0 C 0,0 km/h (0 Bft)
07.08.2016 08:19 13,3 C 13,3 C 91 % 1028,7 hPa 0,0 mm 0,0 km/h (0 Bft) N-NW 341 1 min 0,000 mm 1,3 UV-I 271 W/m 11,9 C 0,0 km/h (0 Bft)
07.08.2016 08:20 13,3 C 13,3 C 90 % 1028,6 hPa 0,0 mm 0,0 km/h (0 Bft) N-NW 341 1 min 0,000 mm 1,3 UV-I 272 W/m 11,7 C 0,0 km/h (0 Bft)
07.08.2016 08:21 13,3 C 13,3 C 91 % 1028,7 hPa 0,0 mm 0,0 km/h (0 Bft) N-NW 341 1 min 0,000 mm 1,3 UV-I 274 W/m 11,9 C 0,0 km/h (0 Bft)
07.08.2016 08:22 13,4 C 13,4 C 92 % 1028,7 hPa 0,0 mm 0,0 km/h (0 Bft) N-NW 341 1 min 0,000 mm 1,3 UV-I 276 W/m 12,1 C 0,0 km/h (0 Bft)
07.08.2016 08:23 13,7 C 13,7 C 94 % 1028,7 hPa 0,0 mm 0,0 km/h (0 Bft) N-NW 341 1 min 0,000 mm 1,3 UV-I 279 W/m 12,8 C 0,0 km/h (0 Bft)
07.08.2016 08:24 13,7 C 13,7 C 91 % 1028,7 hPa 0,0 mm 0,0 km/h (0 Bft) N-NW 341 1 min 0,000 mm 1,4 UV-I 283 W/m 12,3 C 0,0 km/h (0 Bft)
07.08.2016 08:25 13,7 C 13,7 C 89 % 1028,7 hPa 0,0 mm 0,0 km/h (0 Bft) N-NW 341 1 min 0,000 mm 1,4 UV-I 285 W/m 11,9 C 0,0 km/h (0 Bft)
07.08.2016 08:26 13,7 C 13,8 C 90 % 1028,7 hPa 0,0 mm 0,0 km/h (0 Bft) N-NW 341 1 min 0,000 mm 1,4 UV-I 287 W/m 12,1 C 0,0 km/h (0 Bft)
07.08.2016 08:27 13,8 C 13,8 C 91 % 1028,8 hPa 0,0 mm 0,0 km/h (0 Bft) N-NW 341 1 min 0,000 mm 1,4 UV-I 288 W/m 12,4 C 0,0 km/h (0 Bft)
07.08.2016 08:28 13,8 C 13,8 C 90 % 1028,8 hPa 0,0 mm 0,0 km/h (0 Bft) N-NW 341 1 min 0,000 mm 1,4 UV-I 290 W/m 12,2 C 0,0 km/h (0 Bft)
07.08.2016 08:29 13,9 C 13,9 C 90 % 1028,8 hPa 0,0 mm 0,0 km/h (0 Bft) N-NW 341 1 min 0,000 mm 1,4 UV-I 294 W/m 12,3 C 0,0 km/h (0 Bft)
07.08.2016 08:30 13,9 C 13,9 C 90 % 1028,7 hPa 0,0 mm 0,0 km/h (0 Bft) N-NW 341 1 min 0,000 mm 1,5 UV-I 297 W/m 12,3 C 0,0 km/h (0 Bft)
07.08.2016 08:31 13,8 C 13,9 C 89 % 1028,7 hPa 0,0 mm 0,0 km/h (0 Bft) N-NW 341 1 min 0,000 mm 1,5 UV-I 299 W/m 12,0 C 0,0 km/h (0 Bft)
07.08.2016 08:32 13,9 C 13,9 C 89 % 1028,7 hPa 0,0 mm 0,0 km/h (0 Bft) N-NW 341 1 min 0,000 mm 1,5 UV-I 301 W/m 12,1 C 0,0 km/h (0 Bft)
07.08.2016 08:33 13,9 C 13,9 C 90 % 1028,7 hPa 0,0 mm 0,0 km/h (0 Bft) N-NW 341 1 min 0,000 mm 1,5 UV-I 302 W/m 12,3 C 0,0 km/h (0 Bft)
07.08.2016 08:34 14,0 C 14,0 C 91 % 1028,7 hPa 0,0 mm 0,0 km/h (0 Bft) N-NW 341 1 min 0,000 mm 1,5 UV-I 304 W/m 12,6 C 0,0 km/h (0 Bft)
07.08.2016 08:35 14,1 C 14,1 C 92 % 1028,7 hPa 0,0 mm 0,0 km/h (0 Bft) N-NW 341 1 min 0,000 mm 1,6 UV-I 309 W/m 12,8 C 0,0 km/h (0 Bft)
07.08.2016 08:36 14,1 C 14,1 C 90 % 1028,7 hPa 0,0 mm 0,0 km/h (0 Bft) N-NW 341 1 min 0,000 mm 1,6 UV-I 313 W/m 12,5 C 0,0 km/h (0 Bft)
07.08.2016 08:37 14,1 C 14,1 C 90 % 1028,8 hPa 0,0 mm 0,0 km/h (0 Bft) N-NW 341 1 min 0,000 mm 1,6 UV-I 315 W/m 12,5 C 0,0 km/h (0 Bft)
07.08.2016 08:38 14,1 C 14,1 C 91 % 1028,7 hPa 0,0 mm 0,0 km/h (0 Bft) N-NW 341 1 min 0,000 mm 1,6 UV-I 316 W/m 12,7 C 0,0 km/h (0 Bft)
07.08.2016 08:39 14,1 C 14,1 C 90 % 1028,8 hPa 0,0 mm 0,0 km/h (0 Bft) N-NW 341 1 min 0,000 mm 1,6 UV-I 320 W/m 12,5 C 0,0 km/h (0 Bft)
07.08.2016 08:40 14,1 C 14,2 C 89 % 1028,7 hPa 0,0 mm 0,0 km/h (0 Bft) N-NW 341 1 min 0,000 mm 1,7 UV-I 322 W/m 12,3 C 0,0 km/h (0 Bft)
07.08.2016 08:41 14,2 C 14,2 C 90 % 1028,7 hPa 0,0 mm 0,0 km/h (0 Bft) N-NW 341 1 min 0,000 mm 1,7 UV-I 329 W/m 12,6 C 0,0 km/h (0 Bft)
07.08.2016 08:42 14,2 C 14,2 C 90 % 1028,7 hPa 0,0 mm 0,0 km/h (0 Bft) N-NW 341 1 min 0,000 mm 1,7 UV-I 330 W/m 12,6 C 0,0 km/h (0 Bft)
07.08.2016 08:43 14,3 C 14,3 C 90 % 1028,7 hPa 0,0 mm 0,0 km/h (0 Bft) N-NW 341 1 min 0,000 mm 1,7 UV-I 334 W/m 12,7 C 0,0 km/h (0 Bft)
07.08.2016 08:44 14,4 C 14,4 C 91 % 1028,7 hPa 0,0 mm 0,0 km/h (0 Bft) N-NW 341 1 min 0,000 mm 1,8 UV-I 338 W/m 12,9 C 0,0 km/h (0 Bft)
07.08.2016 08:45 14,5 C 14,5 C 91 % 1028,7 hPa 0,0 mm 0,0 km/h (0 Bft) N-NW 341 1 min 0,000 mm 1,8 UV-I 339 W/m 13,0 C 0,0 km/h (0 Bft)
07.08.2016 08:46 14,7 C 14,7 C 91 % 1028,7 hPa 0,0 mm 0,0 km/h (0 Bft) N-NW 341 1 min 0,000 mm 1,8 UV-I 341 W/m 13,2 C 0,0 km/h (0 Bft)
07.08.2016 08:47 14,7 C 14,7 C 90 % 1028,7 hPa 0,0 mm 0,0 km/h (0 Bft) N-NW 341 1 min 0,000 mm 1,8 UV-I 346 W/m 13,1 C 0,0 km/h (0 Bft)
07.08.2016 08:48 14,8 C 14,8 C 90 % 1028,6 hPa 0,0 mm 0,0 km/h (0 Bft) N-NW 341 1 min 0,000 mm 1,9 UV-I 348 W/m 13,2 C 0,0 km/h (0 Bft)
07.08.2016 08:49 14,8 C 14,8 C 89 % 1028,6 hPa 0,0 mm 0,0 km/h (0 Bft) N-NW 341 1 min 0,000 mm 1,9 UV-I 352 W/m 13,0 C 0,0 km/h (0 Bft)
07.08.2016 08:50 14,8 C 14,8 C 89 % 1028,7 hPa 0,0 mm 0,0 km/h (0 Bft) N-NW 341 1 min 0,000 mm 1,9 UV-I 353 W/m 13,0 C 0,0 km/h (0 Bft)
07.08.2016 08:51 14,9 C 14,9 C 90 % 1028,7 hPa 0,0 mm 0,0 km/h (0 Bft) N-NW 341 1 min 0,000 mm 1,9 UV-I 355 W/m 13,3 C 0,0 km/h (0 Bft)
07.08.2016 08:52 14,9 C 14,9 C 89 % 1028,7 hPa 0,0 mm 0,0 km/h (0 Bft) N-NW 347 1 min 0,000 mm 2,0 UV-I 359 W/m 13,1 C 0,0 km/h (0 Bft)
07.08.2016 08:53 15,0 C 15,0 C 89 % 1028,6 hPa 0,0 mm 0,0 km/h (0 Bft) N 360 1 min 0,000 mm 2,0 UV-I 364 W/m 13,2 C 0,0 km/h (0 Bft)
07.08.2016 08:54 15,1 C 15,1 C 89 % 1028,6 hPa 0,0 mm 2,9 km/h (1 Bft) N 355 1 min 0,000 mm 2,0 UV-I 367 W/m 13,3 C 6,4 km/h (2 Bft)
07.08.2016 08:55 15,1 C 15,1 C 89 % 1028,7 hPa 0,0 mm 2,9 km/h (1 Bft) N 355 1 min 0,000 mm 2,0 UV-I 369 W/m 13,3 C 4,8 km/h (1 Bft)
07.08.2016 08:56 15,3 C 15,3 C 88 % 1028,6 hPa 0,0 mm 3,1 km/h (1 Bft) N 360 1 min 0,000 mm 2,0 UV-I 371 W/m 13,3 C 4,8 km/h (1 Bft)
07.08.2016 08:57 15,3 C 15,3 C 86 % 1028,6 hPa 0,0 mm 2,1 km/h (1 Bft) N 360 1 min 0,000 mm 2,1 UV-I 374 W/m 13,0 C 3,2 km/h (1 Bft)
07.08.2016 08:58 15,3 C 15,4 C 86 % 1028,6 hPa 0,0 mm 2,5 km/h (1 Bft) N-NO 22 1 min 0,000 mm 2,1 UV-I 381 W/m 13,0 C 3,2 km/h (1 Bft)
07.08.2016 08:59 15,4 C 15,4 C 88 % 1028,6 hPa 0,0 mm 3,2 km/h (1 Bft) N-NO 27 1 min 0,000 mm 2,1 UV-I 383 W/m 13,4 C 4,8 km/h (1 Bft)
07.08.2016 09:00 15,4 C 15,4 C 89 % 1028,6 hPa 0,0 mm 3,7 km/h (1 Bft) N-NO 15 1 min 0,152 mm 2,1 UV-I 387 W/m 13,6 C 4,8 km/h (1 Bft)
07.08.2016 09:01 15,5 C 15,6 C 88 % 1028,6 hPa 0,0 mm 2,2 km/h (1 Bft) NO 44 1 min 0,000 mm 2,2 UV-I 390 W/m 13,5 C 4,8 km/h (1 Bft)
07.08.2016 09:02 15,5 C 15,5 C 83 % 1028,5 hPa 0,0 mm 2,7 km/h (1 Bft) O-NO 62 1 min 0,000 mm 2,2 UV-I 392 W/m 12,6 C 4,8 km/h (1 Bft)
07.08.2016 09:03 15,5 C 15,5 C 84 % 1028,7 hPa 0,0 mm 3,3 km/h (1 Bft) NO 55 1 min 0,000 mm 2,2 UV-I 396 W/m 12,8 C 4,8 km/h (1 Bft)
07.08.2016 09:04 15,4 C 15,5 C 84 % 1028,6 hPa 0,0 mm 2,5 km/h (1 Bft) N 360 1 min 0,000 mm 2,2 UV-I 403 W/m 12,7 C 4,8 km/h (1 Bft)
07.08.2016 09:05 15,5 C 15,5 C 85 % 1028,7 hPa 0,0 mm 2,1 km/h (1 Bft) N 360 1 min 0,000 mm 2,2 UV-I 406 W/m 13,0 C 3,2 km/h (1 Bft)
07.08.2016 09:06 15,6 C 15,6 C 84 % 1028,7 hPa 0,0 mm 2,6 km/h (1 Bft) N-NO 22 1 min 0,000 mm 2,3 UV-I 410 W/m 12,9 C 4,8 km/h (1 Bft)
07.08.2016 09:07 15,6 C 15,7 C 87 % 1028,6 hPa 0,0 mm 3,7 km/h (1 Bft) N 360 1 min 0,000 mm 2,3 UV-I 415 W/m 13,4 C 4,8 km/h (1 Bft)
07.08.2016 09:08 15,7 C 15,7 C 83 % 1028,6 hPa 0,0 mm 4,8 km/h (1 Bft) N 5 1 min 0,000 mm 2,3 UV-I 418 W/m 12,8 C 6,4 km/h (2 Bft)
07.08.2016 09:09 15,7 C 15,7 C 84 % 1028,6 hPa 0,0 mm 4,8 km/h (1 Bft) N 360 1 min 0,000 mm 2,3 UV-I 424 W/m 13,0 C 6,4 km/h (2 Bft)
07.08.2016 09:10 15,8 C 15,8 C 84 % 1028,6 hPa 0,0 mm 3,7 km/h (1 Bft) N 360 1 min 0,000 mm 2,3 UV-I 436 W/m 13,1 C 4,8 km/h (1 Bft)
07.08.2016 09:11 15,8 C 15,8 C 84 % 1028,6 hPa 0,0 mm 2,7 km/h (1 Bft) N-NO 33 1 min 0,000 mm 1,6 UV-I 436 W/m 13,1 C 4,8 km/h (1 Bft)
07.08.2016 09:12 15,7 C 15,8 C 83 % 1028,6 hPa 0,0 mm 4,6 km/h (1 Bft) N-NO 27 0 min 0,000 mm 1,7 UV-I 102 W/m 12,8 C 6,4 km/h (2 Bft)
07.08.2016 09:13 15,6 C 15,7 C 82 % 1028,6 hPa 0,0 mm 1,8 km/h (1 Bft) N-NO 27 0 min 0,000 mm 1,7 UV-I 102 W/m 12,5 C 3,2 km/h (1 Bft)
07.08.2016 09:14 15,6 C 15,6 C 83 % 1028,6 hPa 0,0 mm 0,6 km/h (0 Bft) N-NO 27 1 min 0,000 mm 2,4 UV-I 446 W/m 12,7 C 1,6 km/h (1 Bft)
07.08.2016 09:15 15,6 C 15,6 C 84 % 1028,6 hPa 0,0 mm 1,7 km/h (1 Bft) N-NO 22 1 min 0,000 mm 2,4 UV-I 448 W/m 12,9 C 3,2 km/h (1 Bft)
07.08.2016 09:16 15,7 C 15,7 C 86 % 1028,6 hPa 0,0 mm 3,2 km/h (1 Bft) N-NW 333 1 min 0,000 mm 2,5 UV-I 450 W/m 13,4 C 4,8 km/h (1 Bft)
07.08.2016 09:17 15,8 C 15,8 C 83 % 1028,6 hPa 0,0 mm 1,7 km/h (1 Bft) N-NW 333 1 min 0,000 mm 2,5 UV-I 452 W/m 12,9 C 3,2 km/h (1 Bft)
07.08.2016 09:18 15,8 C 15,8 C 83 % 1028,6 hPa 0,0 mm 1,4 km/h (1 Bft) NW 321 1 min 0,000 mm 2,5 UV-I 457 W/m 12,9 C 3,2 km/h (1 Bft)
07.08.2016 09:19 16,0 C 16,0 C 85 % 1028,6 hPa 0,0 mm 2,4 km/h (1 Bft) NW 322 1 min 0,000 mm 2,6 UV-I 464 W/m 13,5 C 3,2 km/h (1 Bft)
07.08.2016 09:20 16,1 C 16,2 C 87 % 1028,6 hPa 0,0 mm 2,8 km/h (1 Bft) NO 44 1 min 0,000 mm 2,6 UV-I 468 W/m 13,9 C 4,8 km/h (1 Bft)
07.08.2016 09:21 16,1 C 16,2 C 84 % 1028,6 hPa 0,0 mm 2,1 km/h (1 Bft) NO 44 1 min 0,000 mm 2,6 UV-I 469 W/m 13,4 C 3,2 km/h (1 Bft)
07.08.2016 09:22 16,0 C 16,1 C 82 % 1028,6 hPa 0,0 mm 1,8 km/h (1 Bft) NO 44 1 min 0,000 mm 2,7 UV-I 473 W/m 12,9 C 3,2 km/h (1 Bft)
07.08.2016 09:23 16,0 C 16,0 C 85 % 1028,6 hPa 0,0 mm 2,6 km/h (1 Bft) NO 44 1 min 0,000 mm 2,7 UV-I 473 W/m 13,5 C 3,2 km/h (1 Bft)
07.08.2016 09:24 16,1 C 16,1 C 84 % 1028,6 hPa 0,0 mm 1,1 km/h (1 Bft) NO 44 1 min 0,000 mm 2,7 UV-I 475 W/m 13,4 C 3,2 km/h (1 Bft)
07.08.2016 09:25 16,1 C 16,1 C 86 % 1028,6 hPa 0,0 mm 1,7 km/h (1 Bft) NO 43 1 min 0,000 mm 2,7 UV-I 478 W/m 13,8 C 3,2 km/h (1 Bft)
07.08.2016 09:26 16,2 C 16,2 C 84 % 1028,6 hPa 0,0 mm 3,9 km/h (1 Bft) N 360 1 min 0,000 mm 2,8 UV-I 482 W/m 13,5 C 4,8 km/h (1 Bft)
07.08.2016 09:27 16,3 C 16,3 C 85 % 1028,5 hPa 0,0 mm 5,2 km/h (1 Bft) O-NO 61 1 min 0,000 mm 2,8 UV-I 485 W/m 13,8 C 6,4 km/h (2 Bft)
07.08.2016 09:28 16,3 C 16,4 C 82 % 1028,6 hPa 0,0 mm 4,4 km/h (1 Bft) O 83 1 min 0,000 mm 2,8 UV-I 490 W/m 13,2 C 6,4 km/h (2 Bft)
07.08.2016 09:29 16,2 C 16,3 C 81 % 1028,6 hPa 0,0 mm 4,8 km/h (1 Bft) O 94 1 min 0,000 mm 2,9 UV-I 494 W/m 12,9 C 6,4 km/h (2 Bft)
07.08.2016 09:30 16,2 C 16,2 C 82 % 1028,6 hPa 0,0 mm 2,6 km/h (1 Bft) O 92 1 min 0,000 mm 2,9 UV-I 499 W/m 13,1 C 4,8 km/h (1 Bft)
07.08.2016 09:31 16,1 C 16,2 C 81 % 1028,5 hPa 0,0 mm 0,3 km/h (0 Bft) O 92 1 min 0,000 mm 2,9 UV-I 501 W/m 12,8 C 1,6 km/h (1 Bft)
07.08.2016 09:32 16,1 C 16,1 C 80 % 1028,5 hPa 0,0 mm 1,9 km/h (1 Bft) W 281 1 min 0,000 mm 2,9 UV-I 503 W/m 12,6 C 3,2 km/h (1 Bft)
07.08.2016 09:33 16,2 C 16,2 C 83 % 1028,5 hPa 0,0 mm 2,7 km/h (1 Bft) N-NW 344 1 min 0,000 mm 2,9 UV-I 497 W/m 13,3 C 4,8 km/h (1 Bft)
07.08.2016 09:34 16,3 C 16,3 C 84 % 1028,5 hPa 0,0 mm 4,0 km/h (1 Bft) NO 46 1 min 0,000 mm 3,0 UV-I 506 W/m 13,6 C 6,4 km/h (2 Bft)
07.08.2016 09:35 16,3 C 16,3 C 82 % 1028,5 hPa 0,0 mm 1,9 km/h (1 Bft) NO 46 1 min 0,000 mm 3,0 UV-I 515 W/m 13,2 C 3,2 km/h (1 Bft)
07.08.2016 09:36 16,4 C 16,4 C 85 % 1028,5 hPa 0,0 mm 4,4 km/h (1 Bft) NO 34 1 min 0,000 mm 3,1 UV-I 519 W/m 13,9 C 6,4 km/h (2 Bft)
07.08.2016 09:37 16,4 C 16,4 C 82 % 1028,5 hPa 0,0 mm 4,3 km/h (1 Bft) NO 35 1 min 0,000 mm 3,1 UV-I 522 W/m 13,3 C 4,8 km/h (1 Bft)
07.08.2016 09:38 16,4 C 16,4 C 81 % 1028,5 hPa 0,0 mm 1,8 km/h (1 Bft) N-NO 21 1 min 0,000 mm 3,1 UV-I 534 W/m 13,1 C 3,2 km/h (1 Bft)
07.08.2016 09:39 16,4 C 16,4 C 82 % 1028,5 hPa 0,0 mm 1,5 km/h (1 Bft) N-NO 21 1 min 0,000 mm 3,2 UV-I 548 W/m 13,3 C 3,2 km/h (1 Bft)
07.08.2016 09:40 16,4 C 16,5 C 82 % 1028,5 hPa 0,0 mm 4,7 km/h (1 Bft) N 355 0 min 0,000 mm 2,5 UV-I 304 W/m 13,3 C 6,4 km/h (2 Bft)
07.08.2016 09:41 16,6 C 16,6 C 83 % 1028,5 hPa 0,0 mm 2,6 km/h (1 Bft) N 355 0 min 0,000 mm 3,2 UV-I 304 W/m 13,7 C 4,8 km/h (1 Bft)
07.08.2016 09:42 16,6 C 16,6 C 84 % 1028,5 hPa 0,0 mm 1,9 km/h (1 Bft) N 355 1 min 0,000 mm 3,2 UV-I 541 W/m 13,9 C 3,2 km/h (1 Bft)
07.08.2016 09:43 16,6 C 16,6 C 83 % 1028,5 hPa 0,0 mm 0,9 km/h (0 Bft) N 355 1 min 0,000 mm 3,3 UV-I 555 W/m 13,7 C 1,6 km/h (1 Bft)
07.08.2016 09:44 16,5 C 16,6 C 82 % 1028,5 hPa 0,0 mm 2,2 km/h (1 Bft) N 355 1 min 0,000 mm 2,9 UV-I 555 W/m 13,4 C 4,8 km/h (1 Bft)
07.08.2016 09:45 16,4 C 16,5 C 82 % 1028,5 hPa 0,0 mm 4,5 km/h (1 Bft) N-NO 26 1 min 0,000 mm 2,1 UV-I 555 W/m 13,3 C 6,4 km/h (2 Bft)
07.08.2016 09:46 16,4 C 16,5 C 82 % 1028,5 hPa 0,0 mm 4,6 km/h (1 Bft) NO 46 1 min 0,000 mm 3,4 UV-I 555 W/m 13,3 C 6,4 km/h (2 Bft)
07.08.2016 09:47 16,5 C 16,5 C 82 % 1028,5 hPa 0,0 mm 6,9 km/h (2 Bft) N-NO 33 1 min 0,000 mm 3,4 UV-I 552 W/m 13,4 C 9,7 km/h (2 Bft)
07.08.2016 09:48 16,4 C 16,5 C 79 % 1028,5 hPa 0,0 mm 6,2 km/h (2 Bft) NO 36 1 min 0,000 mm 3,4 UV-I 554 W/m 12,7 C 11,3 km/h (2 Bft)
07.08.2016 09:49 16,4 C 16,4 C 80 % 1028,5 hPa 0,0 mm 5,4 km/h (1 Bft) NO 38 1 min 0,000 mm 3,5 UV-I 559 W/m 12,9 C 8,0 km/h (2 Bft)
07.08.2016 09:50 16,6 C 16,6 C 79 % 1028,5 hPa 0,0 mm 5,0 km/h (1 Bft) NO 38 1 min 0,000 mm 3,5 UV-I 563 W/m 12,9 C 6,4 km/h (2 Bft)
07.08.2016 09:51 16,6 C 16,6 C 81 % 1028,5 hPa 0,0 mm 2,7 km/h (1 Bft) NO 38 1 min 0,000 mm 3,5 UV-I 566 W/m 13,3 C 4,8 km/h (1 Bft)
07.08.2016 09:52 16,7 C 16,7 C 79 % 1028,5 hPa 0,0 mm 2,0 km/h (1 Bft) O-NO 65 1 min 0,000 mm 3,5 UV-I 571 W/m 13,0 C 3,2 km/h (1 Bft)
07.08.2016 09:53 16,7 C 16,7 C 83 % 1028,5 hPa 0,0 mm 2,8 km/h (1 Bft) NO 42 1 min 0,000 mm 3,6 UV-I 575 W/m 13,8 C 4,8 km/h (1 Bft)
07.08.2016 09:54 16,8 C 16,8 C 80 % 1028,5 hPa 0,0 mm 4,0 km/h (1 Bft) N 360 1 min 0,000 mm 3,5 UV-I 559 W/m 13,3 C 6,4 km/h (2 Bft)
07.08.2016 09:55 16,8 C 16,8 C 80 % 1028,5 hPa 0,0 mm 3,1 km/h (1 Bft) N 5 1 min 0,000 mm 3,6 UV-I 573 W/m 13,3 C 4,8 km/h (1 Bft)
07.08.2016 09:56 16,9 C 16,9 C 81 % 1028,5 hPa 0,0 mm 1,5 km/h (1 Bft) O-NO 64 1 min 0,000 mm 3,7 UV-I 582 W/m 13,6 C 3,2 km/h (1 Bft)
07.08.2016 09:57 16,9 C 16,9 C 80 % 1028,5 hPa 0,0 mm 1,5 km/h (1 Bft) O-SO 102 1 min 0,000 mm 3,7 UV-I 587 W/m 13,4 C 4,8 km/h (1 Bft)
07.08.2016 09:58 16,8 C 16,9 C 79 % 1028,5 hPa 0,0 mm 2,3 km/h (1 Bft) NO 49 1 min 0,000 mm 3,7 UV-I 587 W/m 13,1 C 4,8 km/h (1 Bft)
07.08.2016 09:59 16,8 C 16,8 C 80 % 1028,4 hPa 0,0 mm 2,4 km/h (1 Bft) O-NO 63 1 min 0,000 mm 3,7 UV-I 584 W/m 13,3 C 4,8 km/h (1 Bft)
07.08.2016 10:00 16,9 C 16,9 C 80 % 1028,5 hPa 0,0 mm 4,2 km/h (1 Bft) O-NO 57 1 min 0,254 mm 3,7 UV-I 582 W/m 13,4 C 6,4 km/h (2 Bft)
07.08.2016 10:01 16,9 C 16,9 C 78 % 1028,5 hPa 0,0 mm 7,2 km/h (2 Bft) O 94 1 min 0,000 mm 3,8 UV-I 592 W/m 13,0 C 11,3 km/h (2 Bft)
07.08.2016 10:02 16,8 C 16,9 C 78 % 1028,5 hPa 0,0 mm 2,7 km/h (1 Bft) O 97 1 min 0,000 mm 3,8 UV-I 594 W/m 12,9 C 4,8 km/h (1 Bft)
07.08.2016 10:03 16,8 C 16,8 C 80 % 1028,5 hPa 0,0 mm 2,7 km/h (1 Bft) N-NO 32 1 min 0,000 mm 3,8 UV-I 598 W/m 13,3 C 4,8 km/h (1 Bft)
07.08.2016 10:04 16,8 C 16,8 C 79 % 1028,5 hPa 0,0 mm 6,6 km/h (2 Bft) O-NO 57 1 min 0,000 mm 3,8 UV-I 599 W/m 13,1 C 9,7 km/h (2 Bft)
07.08.2016 10:05 16,8 C 16,8 C 79 % 1028,5 hPa 0,0 mm 4,3 km/h (1 Bft) NO 52 1 min 0,000 mm 3,9 UV-I 598 W/m 13,1 C 8,0 km/h (2 Bft)
07.08.2016 10:06 16,9 C 16,9 C 78 % 1028,5 hPa 0,0 mm 5,7 km/h (1 Bft) O 80 1 min 0,000 mm 3,9 UV-I 615 W/m 13,0 C 8,0 km/h (2 Bft)
07.08.2016 10:07 17,0 C 17,0 C 78 % 1028,5 hPa 0,0 mm 5,3 km/h (1 Bft) N-NO 31 1 min 0,000 mm 3,9 UV-I 613 W/m 13,1 C 9,7 km/h (2 Bft)
07.08.2016 10:08 17,0 C 17,1 C 76 % 1028,5 hPa 0,0 mm 4,0 km/h (1 Bft) O-NO 62 1 min 0,000 mm 3,8 UV-I 538 W/m 12,7 C 6,4 km/h (2 Bft)
07.08.2016 10:09 17,0 C 17,0 C 77 % 1028,5 hPa 0,0 mm 5,4 km/h (1 Bft) O-NO 62 1 min 0,000 mm 4,0 UV-I 633 W/m 12,9 C 8,0 km/h (2 Bft)
07.08.2016 10:10 17,1 C 17,1 C 79 % 1028,5 hPa 0,0 mm 4,6 km/h (1 Bft) N-NO 29 1 min 0,000 mm 4,1 UV-I 652 W/m 13,4 C 6,4 km/h (2 Bft)
07.08.2016 10:11 17,1 C 17,1 C 78 % 1028,5 hPa 0,0 mm 5,4 km/h (1 Bft) N-NO 29 1 min 0,000 mm 3,3 UV-I 652 W/m 13,2 C 8,0 km/h (2 Bft)
07.08.2016 10:12 17,1 C 17,1 C 77 % 1028,4 hPa 0,0 mm 6,4 km/h (2 Bft) O-NO 76 1 min 0,000 mm 4,0 UV-I 652 W/m 13,0 C 8,0 km/h (2 Bft)
07.08.2016 10:13 17,0 C 17,1 C 76 % 1028,4 hPa 0,0 mm 4,8 km/h (1 Bft) O-NO 60 1 min 0,000 mm 4,1 UV-I 652 W/m 12,7 C 8,0 km/h (2 Bft)
07.08.2016 10:14 16,9 C 17,0 C 78 % 1028,5 hPa 0,0 mm 4,2 km/h (1 Bft) O 92 1 min 0,000 mm 3,7 UV-I 652 W/m 13,0 C 8,0 km/h (2 Bft)
07.08.2016 10:15 16,9 C 16,9 C 78 % 1028,5 hPa 0,0 mm 6,9 km/h (2 Bft) NO 48 1 min 0,000 mm 4,1 UV-I 652 W/m 13,0 C 9,7 km/h (2 Bft)
07.08.2016 10:16 16,9 C 16,9 C 81 % 1028,5 hPa 0,0 mm 3,3 km/h (1 Bft) O 83 1 min 0,000 mm 4,2 UV-I 664 W/m 13,6 C 6,4 km/h (2 Bft)
07.08.2016 10:17 16,9 C 16,9 C 80 % 1028,5 hPa 0,0 mm 7,7 km/h (2 Bft) O-NO 75 1 min 0,000 mm 2,4 UV-I 664 W/m 13,4 C 12,9 km/h (3 Bft)
07.08.2016 10:18 16,9 C 16,9 C 79 % 1028,5 hPa 0,0 mm 9,5 km/h (2 Bft) O-NO 75 0 min 0,000 mm 2,4 UV-I 111 W/m 13,2 C 14,5 km/h (3 Bft)
07.08.2016 10:19 16,8 C 16,9 C 78 % 1028,5 hPa 0,0 mm 6,8 km/h (2 Bft) NW 310 0 min 0,000 mm 3,4 UV-I 111 W/m 12,9 C 11,3 km/h (2 Bft)
07.08.2016 10:20 16,8 C 16,8 C 80 % 1028,5 hPa 0,0 mm 4,4 km/h (1 Bft) N-NO 26 1 min 0,000 mm 4,3 UV-I 670 W/m 13,3 C 8,0 km/h (2 Bft)
07.08.2016 10:21 16,9 C 16,9 C 79 % 1028,4 hPa 0,0 mm 7,1 km/h (2 Bft) N-NO 19 1 min 0,000 mm 4,3 UV-I 659 W/m 13,2 C 12,9 km/h (3 Bft)
07.08.2016 10:22 17,1 C 17,1 C 79 % 1028,5 hPa 0,0 mm 5,1 km/h (1 Bft) NO 42 1 min 0,000 mm 4,3 UV-I 661 W/m 13,4 C 8,0 km/h (2 Bft)
07.08.2016 10:23 17,2 C 17,2 C 78 % 1028,5 hPa 0,0 mm 3,6 km/h (1 Bft) N 360 1 min 0,000 mm 4,4 UV-I 661 W/m 13,3 C 4,8 km/h (1 Bft)
07.08.2016 10:24 17,3 C 17,3 C 77 % 1028,4 hPa 0,0 mm 2,7 km/h (1 Bft) N-NO 16 1 min 0,000 mm 4,4 UV-I 663 W/m 13,2 C 4,8 km/h (1 Bft)
07.08.2016 10:25 17,3 C 17,3 C 77 % 1028,4 hPa 0,0 mm 4,0 km/h (1 Bft) NO 54 1 min 0,000 mm 4,4 UV-I 663 W/m 13,2 C 6,4 km/h (2 Bft)
07.08.2016 10:26 17,3 C 17,3 C 77 % 1028,5 hPa 0,0 mm 7,7 km/h (2 Bft) O-NO 58 1 min 0,000 mm 4,4 UV-I 668 W/m 13,2 C 12,9 km/h (3 Bft)
07.08.2016 10:27 17,3 C 17,3 C 76 % 1028,5 hPa 0,0 mm 6,9 km/h (2 Bft) NO 55 1 min 0,000 mm 4,4 UV-I 668 W/m 13,0 C 8,0 km/h (2 Bft)
07.08.2016 10:28 17,3 C 17,3 C 76 % 1028,5 hPa 0,0 mm 5,3 km/h (1 Bft) N-NO 13 1 min 0,000 mm 4,5 UV-I 668 W/m 13,0 C 9,7 km/h (2 Bft)
07.08.2016 10:29 17,2 C 17,3 C 76 % 1028,5 hPa 0,0 mm 9,0 km/h (2 Bft) N-NW 344 1 min 0,000 mm 4,5 UV-I 671 W/m 12,9 C 12,9 km/h (3 Bft)
07.08.2016 10:30 17,3 C 17,3 C 77 % 1028,4 hPa 0,0 mm 3,4 km/h (1 Bft) N-NW 346 1 min 0,000 mm 4,5 UV-I 673 W/m 13,2 C 8,0 km/h (2 Bft)
07.08.2016 10:31 17,4 C 17,4 C 80 % 1028,4 hPa 0,0 mm 4,3 km/h (1 Bft) NO 54 1 min 0,000 mm 4,5 UV-I 670 W/m 13,9 C 8,0 km/h (2 Bft)
07.08.2016 10:32 17,7 C 17,7 C 79 % 1028,4 hPa 0,0 mm 4,3 km/h (1 Bft) O-NO 78 1 min 0,000 mm 4,5 UV-I 673 W/m 14,0 C 8,0 km/h (2 Bft)
07.08.2016 10:33 17,6 C 17,7 C 76 % 1028,5 hPa 0,0 mm 6,2 km/h (2 Bft) NO 40 1 min 0,000 mm 4,5 UV-I 671 W/m 13,3 C 8,0 km/h (2 Bft)
07.08.2016 10:34 17,5 C 17,6 C 75 % 1028,5 hPa 0,0 mm 3,1 km/h (1 Bft) O-SO 103 1 min 0,000 mm 4,5 UV-I 668 W/m 13,0 C 4,8 km/h (1 Bft)
07.08.2016 10:35 17,4 C 17,5 C 75 % 1028,4 hPa 0,0 mm 7,5 km/h (2 Bft) O-NO 75 1 min 0,000 mm 4,6 UV-I 677 W/m 12,9 C 11,3 km/h (2 Bft)
07.08.2016 10:36 17,4 C 17,4 C 74 % 1028,5 hPa 0,0 mm 2,7 km/h (1 Bft) O 95 1 min 0,000 mm 4,7 UV-I 680 W/m 12,7 C 6,4 km/h (2 Bft)
07.08.2016 10:37 17,3 C 17,4 C 76 % 1028,5 hPa 0,0 mm 3,4 km/h (1 Bft) N 5 1 min 0,000 mm 4,7 UV-I 684 W/m 13,0 C 6,4 km/h (2 Bft)
07.08.2016 10:38 17,3 C 17,4 C 77 % 1028,5 hPa 0,0 mm 4,8 km/h (1 Bft) N-NO 30 1 min 0,000 mm 4,8 UV-I 693 W/m 13,2 C 9,7 km/h (2 Bft)
07.08.2016 10:39 17,3 C 17,3 C 74 % 1028,4 hPa 0,0 mm 9,0 km/h (2 Bft) NO 40 1 min 0,000 mm 4,8 UV-I 694 W/m 12,6 C 14,5 km/h (3 Bft)
07.08.2016 10:40 17,3 C 17,4 C 73 % 1028,4 hPa 0,0 mm 4,6 km/h (1 Bft) N-NO 16 1 min 0,000 mm 4,8 UV-I 693 W/m 12,4 C 8,0 km/h (2 Bft)
07.08.2016 10:41 17,4 C 17,4 C 76 % 1028,4 hPa 0,0 mm 4,1 km/h (1 Bft) O 93 1 min 0,000 mm 4,8 UV-I 693 W/m 13,1 C 6,4 km/h (2 Bft)
07.08.2016 10:42 17,5 C 17,5 C 76 % 1028,4 hPa 0,0 mm 3,3 km/h (1 Bft) N 10 1 min 0,000 mm 4,8 UV-I 687 W/m 13,2 C 4,8 km/h (1 Bft)
07.08.2016 10:43 17,5 C 17,5 C 76 % 1028,5 hPa 0,0 mm 3,1 km/h (1 Bft) O-NO 65 1 min 0,000 mm 4,8 UV-I 687 W/m 13,2 C 6,4 km/h (2 Bft)
07.08.2016 10:44 17,4 C 17,5 C 74 % 1028,5 hPa 0,0 mm 3,4 km/h (1 Bft) NO 42 1 min 0,000 mm 4,8 UV-I 698 W/m 12,7 C 4,8 km/h (1 Bft)
07.08.2016 10:45 17,6 C 17,6 C 75 % 1028,4 hPa 0,0 mm 5,1 km/h (1 Bft) NO 47 1 min 0,000 mm 4,9 UV-I 700 W/m 13,1 C 8,0 km/h (2 Bft)
07.08.2016 10:46 17,6 C 17,6 C 75 % 1028,4 hPa 0,0 mm 5,2 km/h (1 Bft) NO 50 1 min 0,000 mm 4,9 UV-I 700 W/m 13,1 C 8,0 km/h (2 Bft)
07.08.2016 10:47 17,6 C 17,6 C 75 % 1028,4 hPa 0,0 mm 5,2 km/h (1 Bft) N-NO 13 1 min 0,000 mm 4,9 UV-I 703 W/m 13,1 C 8,0 km/h (2 Bft)
07.08.2016 10:48 17,7 C 17,7 C 73 % 1028,4 hPa 0,0 mm 6,4 km/h (2 Bft) N-NO 17 1 min 0,000 mm 4,9 UV-I 700 W/m 12,8 C 9,7 km/h (2 Bft)
07.08.2016 10:49 17,7 C 17,7 C 73 % 1028,4 hPa 0,0 mm 8,0 km/h (2 Bft) N-NO 19 1 min 0,000 mm 5,0 UV-I 705 W/m 12,8 C 12,9 km/h (3 Bft)
07.08.2016 10:50 17,7 C 17,7 C 73 % 1028,4 hPa 0,0 mm 6,7 km/h (2 Bft) N 360 1 min 0,000 mm 5,0 UV-I 715 W/m 12,8 C 11,3 km/h (2 Bft)
07.08.2016 10:51 17,8 C 17,8 C 76 % 1028,4 hPa 0,0 mm 5,9 km/h (2 Bft) N-NW 336 1 min 0,000 mm 5,0 UV-I 721 W/m 13,5 C 8,0 km/h (2 Bft)
07.08.2016 10:52 17,8 C 17,8 C 77 % 1028,4 hPa 0,0 mm 3,7 km/h (1 Bft) N-NW 344 1 min 0,000 mm 5,1 UV-I 737 W/m 13,7 C 8,0 km/h (2 Bft)
07.08.2016 10:53 17,8 C 17,8 C 73 % 1028,4 hPa 0,0 mm 2,1 km/h (1 Bft) N 5 1 min 0,000 mm 2,6 UV-I 737 W/m 12,9 C 4,8 km/h (1 Bft)
07.08.2016 10:54 17,7 C 17,8 C 74 % 1028,4 hPa 0,0 mm 4,4 km/h (1 Bft) NO 50 0 min 0,000 mm 2,7 UV-I 107 W/m 13,0 C 6,4 km/h (2 Bft)
07.08.2016 10:55 17,6 C 17,7 C 75 % 1028,4 hPa 0,0 mm 3,2 km/h (1 Bft) O 88 0 min 0,000 mm 3,1 UV-I 142 W/m 13,1 C 6,4 km/h (2 Bft)
07.08.2016 10:56 17,4 C 17,6 C 73 % 1028,3 hPa 0,0 mm 6,8 km/h (2 Bft) SO 129 0 min 0,000 mm 3,7 UV-I 142 W/m 12,5 C 9,7 km/h (2 Bft)
07.08.2016 10:57 17,3 C 17,4 C 73 % 1028,3 hPa 0,0 mm 7,0 km/h (2 Bft) O-NO 63 1 min 0,000 mm 5,2 UV-I 754 W/m 12,4 C 9,7 km/h (2 Bft)
07.08.2016 10:58 17,4 C 17,4 C 74 % 1028,4 hPa 0,0 mm 4,6 km/h (1 Bft) N-NO 32 1 min 0,000 mm 5,2 UV-I 733 W/m 12,7 C 8,0 km/h (2 Bft)
07.08.2016 10:59 17,5 C 17,5 C 75 % 1028,3 hPa 0,0 mm 3,2 km/h (1 Bft) O 92 1 min 0,000 mm 5,2 UV-I 726 W/m 13,0 C 6,4 km/h (2 Bft)
07.08.2016 11:00 17,6 C 17,6 C 71 % 1028,3 hPa 0,0 mm 1,1 km/h (1 Bft) O 98 1 min 0,000 mm 5,2 UV-I 722 W/m 12,3 C 3,2 km/h (1 Bft)
07.08.2016 11:01 17,6 C 17,6 C 75 % 1028,4 hPa 0,0 mm 4,1 km/h (1 Bft) SO 143 1 min 0,356 mm 5,2 UV-I 729 W/m 13,1 C 6,4 km/h (2 Bft)
07.08.2016 11:02 17,6 C 17,6 C 70 % 1028,3 hPa 0,0 mm 4,4 km/h (1 Bft) N-NO 22 1 min 0,000 mm 5,2 UV-I 729 W/m 12,1 C 6,4 km/h (2 Bft)
07.08.2016 11:03 17,6 C 17,6 C 72 % 1028,3 hPa 0,0 mm 7,0 km/h (2 Bft) O-NO 62 1 min 0,000 mm 5,3 UV-I 729 W/m 12,5 C 9,7 km/h (2 Bft)
07.08.2016 11:04 17,8 C 17,8 C 75 % 1028,3 hPa 0,0 mm 4,4 km/h (1 Bft) N 360 1 min 0,000 mm 5,2 UV-I 728 W/m 13,3 C 8,0 km/h (2 Bft)
07.08.2016 11:05 18,1 C 18,1 C 77 % 1028,3 hPa 0,0 mm 4,0 km/h (1 Bft) O 98 1 min 0,000 mm 5,1 UV-I 721 W/m 14,0 C 6,4 km/h (2 Bft)
07.08.2016 11:06 18,1 C 18,1 C 71 % 1028,3 hPa 0,0 mm 5,6 km/h (1 Bft) N-NO 19 1 min 0,000 mm 5,2 UV-I 719 W/m 12,8 C 8,0 km/h (2 Bft)
07.08.2016 11:07 18,1 C 18,1 C 70 % 1028,2 hPa 0,0 mm 6,8 km/h (2 Bft) SO 126 1 min 0,000 mm 5,3 UV-I 737 W/m 12,5 C 9,7 km/h (2 Bft)
07.08.2016 11:08 17,8 C 18,1 C 70 % 1028,3 hPa 0,0 mm 2,3 km/h (1 Bft) N-NW 333 1 min 0,000 mm 5,4 UV-I 740 W/m 12,3 C 4,8 km/h (1 Bft)
07.08.2016 11:09 17,8 C 17,8 C 70 % 1028,3 hPa 0,0 mm 2,3 km/h (1 Bft) O 92 1 min 0,000 mm 5,5 UV-I 744 W/m 12,3 C 4,8 km/h (1 Bft)
07.08.2016 11:10 17,8 C 17,8 C 70 % 1028,2 hPa 0,0 mm 3,8 km/h (1 Bft) N-NO 16 1 min 0,000 mm 5,5 UV-I 744 W/m 12,3 C 8,0 km/h (2 Bft)
07.08.2016 11:11 17,9 C 17,9 C 72 % 1028,3 hPa 0,0 mm 7,2 km/h (2 Bft) O-NO 64 1 min 0,000 mm 5,5 UV-I 745 W/m 12,8 C 11,3 km/h (2 Bft)
07.08.2016 11:12 17,9 C 17,9 C 70 % 1028,2 hPa 0,0 mm 7,3 km/h (2 Bft) O 101 1 min 0,000 mm 5,5 UV-I 744 W/m 12,3 C 12,9 km/h (3 Bft)
07.08.2016 11:13 17,9 C 17,9 C 71 % 1028,2 hPa 0,0 mm 4,6 km/h (1 Bft) NO 56 1 min 0,000 mm 5,5 UV-I 747 W/m 12,6 C 9,7 km/h (2 Bft)
07.08.2016 11:14 18,0 C 18,0 C 72 % 1028,2 hPa 0,0 mm 2,7 km/h (1 Bft) O 84 1 min 0,000 mm 5,6 UV-I 751 W/m 12,9 C 4,8 km/h (1 Bft)
07.08.2016 11:15 18,1 C 18,1 C 72 % 1028,2 hPa 0,0 mm 4,2 km/h (1 Bft) O-NO 63 1 min 0,000 mm 5,6 UV-I 751 W/m 13,0 C 6,4 km/h (2 Bft)
07.08.2016 11:16 18,1 C 18,1 C 71 % 1028,2 hPa 0,0 mm 6,7 km/h (2 Bft) O-NO 63 1 min 0,000 mm 5,6 UV-I 752 W/m 12,8 C 9,7 km/h (2 Bft)
07.08.2016 11:17 18,2 C 18,2 C 70 % 1028,2 hPa 0,0 mm 5,3 km/h (1 Bft) N-NO 25 1 min 0,000 mm 5,6 UV-I 752 W/m 12,6 C 8,0 km/h (2 Bft)
07.08.2016 11:18 18,2 C 18,2 C 72 % 1028,2 hPa 0,0 mm 5,8 km/h (2 Bft) NO 44 1 min 0,000 mm 5,6 UV-I 754 W/m 13,1 C 8,0 km/h (2 Bft)
07.08.2016 11:19 18,4 C 18,4 C 75 % 1028,2 hPa 0,0 mm 8,9 km/h (2 Bft) O-NO 59 1 min 0,000 mm 5,6 UV-I 754 W/m 13,9 C 12,9 km/h (3 Bft)
07.08.2016 11:20 18,5 C 18,5 C 70 % 1028,2 hPa 0,0 mm 6,0 km/h (2 Bft) O-NO 78 1 min 0,000 mm 5,6 UV-I 758 W/m 12,9 C 9,7 km/h (2 Bft)
07.08.2016 11:21 18,3 C 18,5 C 68 % 1028,2 hPa 0,0 mm 5,0 km/h (1 Bft) O-NO 65 1 min 0,000 mm 5,7 UV-I 765 W/m 12,3 C 6,4 km/h (2 Bft)
07.08.2016 11:22 18,2 C 18,3 C 69 % 1028,2 hPa 0,0 mm 5,2 km/h (1 Bft) O 96 1 min 0,000 mm 5,7 UV-I 766 W/m 12,4 C 9,7 km/h (2 Bft)
07.08.2016 11:23 18,2 C 18,2 C 71 % 1028,2 hPa 0,0 mm 6,2 km/h (2 Bft) NO 51 1 min 0,000 mm 5,8 UV-I 772 W/m 12,9 C 11,3 km/h (2 Bft)
07.08.2016 11:24 18,2 C 18,2 C 71 % 1028,2 hPa 0,0 mm 4,2 km/h (1 Bft) NO 49 1 min 0,000 mm 5,8 UV-I 772 W/m 12,9 C 6,4 km/h (2 Bft)
07.08.2016 11:25 18,3 C 18,3 C 71 % 1028,2 hPa 0,0 mm 5,0 km/h (1 Bft) NO 51 1 min 0,000 mm 5,7 UV-I 772 W/m 12,9 C 8,0 km/h (2 Bft)
07.08.2016 11:26 18,3 C 18,4 C 69 % 1028,2 hPa 0,0 mm 5,6 km/h (1 Bft) O-NO 59 1 min 0,000 mm 5,8 UV-I 772 W/m 12,5 C 8,0 km/h (2 Bft)
07.08.2016 11:27 18,4 C 18,4 C 70 % 1028,2 hPa 0,0 mm 4,8 km/h (1 Bft) N-NO 21 1 min 0,000 mm 5,8 UV-I 780 W/m 12,8 C 6,4 km/h (2 Bft)
07.08.2016 11:28 18,4 C 18,4 C 71 % 1028,2 hPa 0,0 mm 3,0 km/h (1 Bft) N 5 1 min 0,000 mm 5,9 UV-I 788 W/m 13,0 C 4,8 km/h (1 Bft)
07.08.2016 11:29 18,6 C 18,6 C 69 % 1028,1 hPa 0,0 mm 6,0 km/h (2 Bft) W-NW 297 1 min 0,000 mm 5,9 UV-I 791 W/m 12,8 C 8,0 km/h (2 Bft)
07.08.2016 11:30 18,5 C 18,6 C 69 % 1028,2 hPa 0,0 mm 4,2 km/h (1 Bft) N-NW 341 1 min 0,000 mm 6,0 UV-I 803 W/m 12,7 C 4,8 km/h (1 Bft)
07.08.2016 11:31 18,6 C 18,6 C 72 % 1028,2 hPa 0,0 mm 3,9 km/h (1 Bft) N-NW 339 1 min 0,000 mm 6,0 UV-I 821 W/m 13,4 C 4,8 km/h (1 Bft)
07.08.2016 11:32 18,7 C 18,7 C 69 % 1028,2 hPa 0,0 mm 4,3 km/h (1 Bft) N-NO 25 1 min 0,000 mm 6,1 UV-I 817 W/m 12,9 C 6,4 km/h (2 Bft)
07.08.2016 11:33 18,7 C 18,7 C 74 % 1028,2 hPa 0,0 mm 3,1 km/h (1 Bft) SO 139 1 min 0,000 mm 6,1 UV-I 809 W/m 14,0 C 4,8 km/h (1 Bft)
07.08.2016 11:34 18,7 C 18,8 C 69 % 1028,2 hPa 0,0 mm 6,6 km/h (2 Bft) O-NO 64 1 min 0,000 mm 6,0 UV-I 800 W/m 12,9 C 9,7 km/h (2 Bft)
07.08.2016 11:35 18,6 C 18,7 C 69 % 1028,2 hPa 0,0 mm 4,7 km/h (1 Bft) N-NO 14 1 min 0,000 mm 5,9 UV-I 789 W/m 12,8 C 8,0 km/h (2 Bft)
07.08.2016 11:36 18,6 C 18,6 C 71 % 1028,2 hPa 0,0 mm 4,4 km/h (1 Bft) O-NO 69 1 min 0,000 mm 5,9 UV-I 789 W/m 13,2 C 6,4 km/h (2 Bft)
07.08.2016 11:37 18,6 C 18,6 C 71 % 1028,2 hPa 0,0 mm 4,9 km/h (1 Bft) N-NW 342 1 min 0,000 mm 6,0 UV-I 809 W/m 13,2 C 8,0 km/h (2 Bft)
07.08.2016 11:38 18,6 C 18,6 C 71 % 1028,1 hPa 0,0 mm 4,7 km/h (1 Bft) N 5 1 min 0,000 mm 6,0 UV-I 809 W/m 13,2 C 8,0 km/h (2 Bft)
07.08.2016 11:39 18,6 C 18,6 C 65 % 1028,1 hPa 0,0 mm 7,8 km/h (2 Bft) NW 323 1 min 0,000 mm 6,1 UV-I 805 W/m 11,9 C 9,7 km/h (2 Bft)
07.08.2016 11:40 18,7 C 18,7 C 67 % 1028,2 hPa 0,0 mm 4,6 km/h (1 Bft) N 5 1 min 0,000 mm 6,0 UV-I 800 W/m 12,4 C 8,0 km/h (2 Bft)
07.08.2016 11:41 18,8 C 18,8 C 68 % 1028,1 hPa 0,0 mm 6,6 km/h (2 Bft) N 360 1 min 0,000 mm 6,0 UV-I 795 W/m 12,8 C 9,7 km/h (2 Bft)
07.08.2016 11:42 18,8 C 18,8 C 66 % 1028,1 hPa 0,0 mm 6,6 km/h (2 Bft) N 360 1 min 0,000 mm 6,1 UV-I 789 W/m 12,3 C 11,3 km/h (2 Bft)
07.08.2016 11:43 18,8 C 18,8 C 65 % 1028,2 hPa 0,0 mm 5,6 km/h (1 Bft) N 349 1 min 0,000 mm 6,1 UV-I 802 W/m 12,1 C 9,7 km/h (2 Bft)
07.08.2016 11:44 18,7 C 18,8 C 67 % 1028,1 hPa 0,0 mm 6,2 km/h (2 Bft) NO 39 1 min 0,000 mm 6,1 UV-I 809 W/m 12,4 C 8,0 km/h (2 Bft)
07.08.2016 11:45 18,7 C 18,7 C 69 % 1028,1 hPa 0,0 mm 6,6 km/h (2 Bft) NW 325 1 min 0,000 mm 6,2 UV-I 817 W/m 12,9 C 9,7 km/h (2 Bft)
07.08.2016 11:46 18,8 C 18,8 C 65 % 1028,1 hPa 0,0 mm 5,8 km/h (2 Bft) NW 305 1 min 0,000 mm 6,2 UV-I 823 W/m 12,1 C 8,0 km/h (2 Bft)
07.08.2016 11:47 18,9 C 18,9 C 68 % 1028,1 hPa 0,0 mm 4,6 km/h (1 Bft) N 355 1 min 0,000 mm 6,2 UV-I 821 W/m 12,9 C 6,4 km/h (2 Bft)
07.08.2016 11:48 19,0 C 19,0 C 69 % 1028,1 hPa 0,0 mm 4,8 km/h (1 Bft) N 11 1 min 0,000 mm 6,2 UV-I 814 W/m 13,2 C 8,0 km/h (2 Bft)
07.08.2016 11:49 19,1 C 19,1 C 67 % 1028,1 hPa 0,0 mm 6,9 km/h (2 Bft) NW 315 1 min 0,000 mm 6,1 UV-I 809 W/m 12,8 C 9,7 km/h (2 Bft)
07.08.2016 11:50 19,0 C 19,1 C 64 % 1028,1 hPa 0,0 mm 7,1 km/h (2 Bft) NW 312 1 min 0,000 mm 6,2 UV-I 812 W/m 12,0 C 12,9 km/h (3 Bft)
07.08.2016 11:51 19,0 C 19,1 C 67 % 1028,1 hPa 0,0 mm 8,7 km/h (2 Bft) N-NW 348 1 min 0,000 mm 6,3 UV-I 816 W/m 12,7 C 12,9 km/h (3 Bft)
07.08.2016 11:52 19,1 C 19,1 C 66 % 1028,1 hPa 0,0 mm 5,6 km/h (1 Bft) N-NW 342 1 min 0,000 mm 6,3 UV-I 816 W/m 12,6 C 8,0 km/h (2 Bft)
07.08.2016 11:53 19,3 C 19,3 C 70 % 1028,1 hPa 0,0 mm 4,5 km/h (1 Bft) N-NO 15 1 min 0,000 mm 6,3 UV-I 821 W/m 13,7 C 6,4 km/h (2 Bft)
07.08.2016 11:54 19,3 C 19,3 C 66 % 1028,1 hPa 0,0 mm 5,0 km/h (1 Bft) W-NW 298 1 min 0,000 mm 6,3 UV-I 828 W/m 12,8 C 8,0 km/h (2 Bft)
07.08.2016 11:55 19,3 C 19,3 C 64 % 1028,1 hPa 0,0 mm 5,2 km/h (1 Bft) N 5 1 min 0,000 mm 6,3 UV-I 831 W/m 12,3 C 8,0 km/h (2 Bft)
07.08.2016 11:56 19,2 C 19,3 C 63 % 1028,1 hPa 0,0 mm 6,4 km/h (2 Bft) N-NO 26 1 min 0,000 mm 6,4 UV-I 835 W/m 12,0 C 9,7 km/h (2 Bft)
07.08.2016 11:57 19,2 C 19,2 C 64 % 1028,1 hPa 0,0 mm 5,9 km/h (2 Bft) N-NO 33 1 min 0,000 mm 6,4 UV-I 840 W/m 12,2 C 11,3 km/h (2 Bft)
07.08.2016 11:58 19,2 C 19,2 C 65 % 1028,1 hPa 0,0 mm 8,1 km/h (2 Bft) O-NO 76 1 min 0,000 mm 6,3 UV-I 831 W/m 12,5 C 12,9 km/h (3 Bft)
07.08.2016 11:59 19,2 C 19,3 C 65 % 1028,2 hPa 0,0 mm 6,8 km/h (2 Bft) O-NO 57 1 min 0,000 mm 6,1 UV-I 812 W/m 12,5 C 11,3 km/h (2 Bft)
07.08.2016 12:00 19,1 C 19,2 C 62 % 1028,1 hPa 0,0 mm 3,3 km/h (1 Bft) N-NO 25 1 min 0,457 mm 6,4 UV-I 858 W/m 11,6 C 6,4 km/h (2 Bft)
07.08.2016 12:01 18,9 C 19,1 C 61 % 1028,2 hPa 0,0 mm 3,5 km/h (1 Bft) N-NO 29 1 min 0,000 mm 6,4 UV-I 854 W/m 11,2 C 4,8 km/h (1 Bft)
07.08.2016 12:02 18,9 C 18,9 C 63 % 1028,2 hPa 0,0 mm 2,6 km/h (1 Bft) O-NO 71 1 min 0,000 mm 3,3 UV-I 854 W/m 11,7 C 3,2 km/h (1 Bft)
07.08.2016 12:03 18,8 C 18,9 C 64 % 1028,2 hPa 0,0 mm 3,9 km/h (1 Bft) NO 34 0 min 0,000 mm 3,5 UV-I 290 W/m 11,8 C 6,4 km/h (2 Bft)
07.08.2016 12:04 18,8 C 18,8 C 66 % 1028,2 hPa 0,0 mm 2,8 km/h (1 Bft) N-NW 329 0 min 0,000 mm 4,9 UV-I 290 W/m 12,3 C 3,2 km/h (1 Bft)
07.08.2016 12:05 18,7 C 18,8 C 66 % 1028,1 hPa 0,0 mm 1,5 km/h (1 Bft) N-NW 341 0 min 0,000 mm 4,0 UV-I 290 W/m 12,2 C 3,2 km/h (1 Bft)
07.08.2016 12:06 18,6 C 18,7 C 68 % 1028,2 hPa 0,0 mm 1,3 km/h (1 Bft) N 10 0 min 0,000 mm 6,4 UV-I 290 W/m 12,6 C 3,2 km/h (1 Bft)
07.08.2016 12:07 18,6 C 18,6 C 68 % 1028,1 hPa 0,0 mm 1,7 km/h (1 Bft) NO 51 0 min 0,000 mm 2,8 UV-I 290 W/m 12,6 C 3,2 km/h (1 Bft)
07.08.2016 12:08 18,5 C 18,6 C 68 % 1028,1 hPa 0,0 mm 2,7 km/h (1 Bft) O-NO 64 0 min 0,000 mm 2,8 UV-I 97 W/m 12,5 C 4,8 km/h (1 Bft)
07.08.2016 12:09 18,4 C 18,5 C 66 % 1028,1 hPa 0,0 mm 5,9 km/h (2 Bft) O 101 0 min 0,000 mm 3,2 UV-I 135 W/m 11,9 C 11,3 km/h (2 Bft)
07.08.2016 12:10 18,2 C 18,4 C 69 % 1028,1 hPa 0,0 mm 3,8 km/h (1 Bft) O-NO 64 0 min 0,000 mm 3,3 UV-I 167 W/m 12,4 C 9,7 km/h (2 Bft)
07.08.2016 12:11 18,1 C 18,2 C 64 % 1028,1 hPa 0,0 mm 1,5 km/h (1 Bft) N-NO 28 0 min 0,000 mm 6,4 UV-I 167 W/m 11,2 C 3,2 km/h (1 Bft)
07.08.2016 12:12 18,2 C 18,2 C 66 % 1028,1 hPa 0,0 mm 4,6 km/h (1 Bft) N-NO 26 1 min 0,000 mm 6,6 UV-I 847 W/m 11,7 C 6,4 km/h (2 Bft)
07.08.2016 12:13 18,3 C 18,3 C 63 % 1028,0 hPa 0,0 mm 1,3 km/h (1 Bft) NO 40 1 min 0,000 mm 6,7 UV-I 846 W/m 11,1 C 3,2 km/h (1 Bft)
07.08.2016 12:14 18,5 C 18,5 C 67 % 1028,0 hPa 0,0 mm 4,2 km/h (1 Bft) NO 40 1 min 0,000 mm 6,7 UV-I 847 W/m 12,3 C 6,4 km/h (2 Bft)
07.08.2016 12:15 18,7 C 18,7 C 65 % 1028,1 hPa 0,0 mm 3,4 km/h (1 Bft) N-NO 30 1 min 0,000 mm 6,7 UV-I 846 W/m 12,0 C 4,8 km/h (1 Bft)
07.08.2016 12:16 18,8 C 18,8 C 69 % 1028,1 hPa 0,0 mm 6,6 km/h (2 Bft) O 92 1 min 0,000 mm 6,7 UV-I 847 W/m 13,0 C 12,9 km/h (3 Bft)
07.08.2016 12:17 18,8 C 18,9 C 63 % 1028,0 hPa 0,0 mm 3,6 km/h (1 Bft) O 80 1 min 0,000 mm 6,7 UV-I 849 W/m 11,6 C 4,8 km/h (1 Bft)
07.08.2016 12:18 18,8 C 18,8 C 65 % 1028,0 hPa 0,0 mm 1,7 km/h (1 Bft) O 81 1 min 0,000 mm 6,7 UV-I 847 W/m 12,1 C 4,8 km/h (1 Bft)
07.08.2016 12:19 18,9 C 18,9 C 70 % 1028,0 hPa 0,0 mm 0,5 km/h (0 Bft) O 81 1 min 0,000 mm 6,7 UV-I 844 W/m 13,3 C 1,6 km/h (1 Bft)
07.08.2016 12:20 19,1 C 19,1 C 64 % 1028,0 hPa 0,0 mm 1,4 km/h (1 Bft) NO 41 1 min 0,000 mm 6,7 UV-I 844 W/m 12,1 C 6,4 km/h (2 Bft)
07.08.2016 12:21 19,0 C 19,1 C 66 % 1027,9 hPa 0,0 mm 3,4 km/h (1 Bft) N-NO 13 1 min 0,000 mm 6,6 UV-I 842 W/m 12,5 C 6,4 km/h (2 Bft)
07.08.2016 12:22 19,2 C 19,2 C 67 % 1027,9 hPa 0,0 mm 7,9 km/h (2 Bft) N 5 1 min 0,000 mm 6,6 UV-I 831 W/m 12,9 C 14,5 km/h (3 Bft)
07.08.2016 12:23 19,3 C 19,3 C 66 % 1027,9 hPa 0,0 mm 7,1 km/h (2 Bft) N-NO 26 1 min 0,000 mm 6,7 UV-I 846 W/m 12,8 C 12,9 km/h (3 Bft)
07.08.2016 12:24 19,4 C 19,4 C 64 % 1027,9 hPa 0,0 mm 7,2 km/h (2 Bft) NO 49 1 min 0,000 mm 6,7 UV-I 853 W/m 12,4 C 11,3 km/h (2 Bft)
07.08.2016 12:25 19,4 C 19,4 C 70 % 1028,0 hPa 0,0 mm 5,7 km/h (1 Bft) NO 46 1 min 0,000 mm 6,8 UV-I 853 W/m 13,8 C 9,7 km/h (2 Bft)
07.08.2016 12:26 19,4 C 19,4 C 66 % 1027,9 hPa 0,0 mm 6,3 km/h (2 Bft) NO 44 1 min 0,000 mm 6,8 UV-I 853 W/m 12,9 C 9,7 km/h (2 Bft)
07.08.2016 12:27 19,4 C 19,4 C 65 % 1027,9 hPa 0,0 mm 5,4 km/h (1 Bft) S 174 1 min 0,000 mm 6,8 UV-I 854 W/m 12,6 C 6,4 km/h (2 Bft)
07.08.2016 12:28 19,4 C 19,4 C 63 % 1027,9 hPa 0,0 mm 3,8 km/h (1 Bft) O-SO 118 1 min 0,000 mm 6,8 UV-I 854 W/m 12,2 C 8,0 km/h (2 Bft)
07.08.2016 12:29 19,4 C 19,4 C 67 % 1027,9 hPa 0,0 mm 7,2 km/h (2 Bft) O 80 1 min 0,000 mm 6,8 UV-I 856 W/m 13,1 C 11,3 km/h (2 Bft)
07.08.2016 12:30 19,4 C 19,4 C 70 % 1027,9 hPa 0,0 mm 3,6 km/h (1 Bft) SO 145 1 min 0,000 mm 6,8 UV-I 853 W/m 13,8 C 8,0 km/h (2 Bft)
07.08.2016 12:31 19,3 C 19,4 C 61 % 1027,9 hPa 0,0 mm 4,4 km/h (1 Bft) S-SO 150 1 min 0,000 mm 6,8 UV-I 853 W/m 11,6 C 8,0 km/h (2 Bft)
07.08.2016 12:32 19,2 C 19,3 C 62 % 1027,9 hPa 0,0 mm 1,4 km/h (1 Bft) SO 146 1 min 0,000 mm 6,8 UV-I 851 W/m 11,7 C 3,2 km/h (1 Bft)
07.08.2016 12:33 19,2 C 19,2 C 64 % 1027,9 hPa 0,0 mm 1,7 km/h (1 Bft) O-SO 104 1 min 0,000 mm 6,8 UV-I 847 W/m 12,2 C 6,4 km/h (2 Bft)
07.08.2016 12:34 19,1 C 19,2 C 63 % 1027,9 hPa 0,0 mm 3,6 km/h (1 Bft) O-NO 63 1 min 0,000 mm 6,8 UV-I 846 W/m 11,9 C 4,8 km/h (1 Bft)
07.08.2016 12:35 19,2 C 19,2 C 69 % 1027,9 hPa 0,0 mm 3,2 km/h (1 Bft) O-NO 73 1 min 0,000 mm 6,8 UV-I 849 W/m 13,4 C 4,8 km/h (1 Bft)
07.08.2016 12:36 19,2 C 19,2 C 65 % 1027,9 hPa 0,0 mm 4,7 km/h (1 Bft) NO 44 1 min 0,000 mm 6,8 UV-I 849 W/m 12,5 C 6,4 km/h (2 Bft)
07.08.2016 12:37 19,2 C 19,2 C 65 % 1027,9 hPa 0,0 mm 5,0 km/h (1 Bft) O-NO 67 1 min 0,000 mm 6,8 UV-I 849 W/m 12,5 C 6,4 km/h (2 Bft)
07.08.2016 12:38 19,3 C 19,3 C 65 % 1027,8 hPa 0,0 mm 3,2 km/h (1 Bft) N-NO 31 1 min 0,000 mm 6,9 UV-I 847 W/m 12,6 C 6,4 km/h (2 Bft)
07.08.2016 12:39 19,4 C 19,4 C 63 % 1027,8 hPa 0,0 mm 6,9 km/h (2 Bft) O-NO 78 1 min 0,000 mm 6,9 UV-I 849 W/m 12,2 C 11,3 km/h (2 Bft)
07.08.2016 12:40 19,4 C 19,4 C 66 % 1027,8 hPa 0,0 mm 4,9 km/h (1 Bft) O-SO 103 1 min 0,000 mm 6,9 UV-I 849 W/m 12,9 C 6,4 km/h (2 Bft)
07.08.2016 12:41 19,4 C 19,4 C 63 % 1027,7 hPa 0,0 mm 3,8 km/h (1 Bft) N-NO 31 1 min 0,000 mm 6,9 UV-I 853 W/m 12,2 C 6,4 km/h (2 Bft)
07.08.2016 12:42 19,6 C 19,6 C 64 % 1027,7 hPa 0,0 mm 6,4 km/h (2 Bft) NO 38 1 min 0,000 mm 6,9 UV-I 853 W/m 12,6 C 9,7 km/h (2 Bft)
07.08.2016 12:43 19,7 C 19,7 C 64 % 1027,8 hPa 0,0 mm 9,1 km/h (2 Bft) N-NO 21 1 min 0,000 mm 6,9 UV-I 853 W/m 12,7 C 14,5 km/h (3 Bft)
07.08.2016 12:44 19,8 C 19,8 C 64 % 1027,8 hPa 0,0 mm 8,0 km/h (2 Bft) O-NO 65 1 min 0,000 mm 6,9 UV-I 851 W/m 12,8 C 12,9 km/h (3 Bft)
07.08.2016 12:45 19,8 C 19,8 C 64 % 1027,7 hPa 0,0 mm 7,0 km/h (2 Bft) O-NO 61 1 min 0,000 mm 6,9 UV-I 853 W/m 12,8 C 9,7 km/h (2 Bft)
07.08.2016 12:46 19,8 C 19,8 C 64 % 1027,8 hPa 0,0 mm 6,3 km/h (2 Bft) O-SO 122 1 min 0,000 mm 6,9 UV-I 853 W/m 12,8 C 8,0 km/h (2 Bft)
07.08.2016 12:47 19,7 C 19,8 C 62 % 1027,8 hPa 0,0 mm 4,1 km/h (1 Bft) O 85 1 min 0,000 mm 6,9 UV-I 851 W/m 12,2 C 6,4 km/h (2 Bft)
07.08.2016 12:48 19,7 C 19,7 C 67 % 1027,8 hPa 0,0 mm 5,7 km/h (1 Bft) O-NO 65 1 min 0,000 mm 6,9 UV-I 849 W/m 13,4 C 11,3 km/h (2 Bft)
07.08.2016 12:49 19,8 C 19,8 C 64 % 1027,8 hPa 0,0 mm 7,5 km/h (2 Bft) O-NO 68 1 min 0,000 mm 6,9 UV-I 851 W/m 12,8 C 11,3 km/h (2 Bft)
07.08.2016 12:50 19,7 C 19,8 C 61 % 1027,8 hPa 0,0 mm 5,5 km/h (1 Bft) O 87 1 min 0,000 mm 7,0 UV-I 856 W/m 12,0 C 9,7 km/h (2 Bft)
07.08.2016 12:51 19,6 C 19,7 C 61 % 1027,8 hPa 0,0 mm 4,2 km/h (1 Bft) O-SO 120 1 min 0,000 mm 7,0 UV-I 868 W/m 11,9 C 6,4 km/h (2 Bft)
07.08.2016 12:52 19,6 C 19,6 C 61 % 1027,7 hPa 0,0 mm 3,2 km/h (1 Bft) S-SO 159 1 min 0,000 mm 7,0 UV-I 877 W/m 11,9 C 4,8 km/h (1 Bft)
07.08.2016 12:53 19,5 C 19,6 C 62 % 1027,7 hPa 0,0 mm 2,2 km/h (1 Bft) O-SO 114 1 min 0,000 mm 7,1 UV-I 895 W/m 12,0 C 4,8 km/h (1 Bft)
07.08.2016 12:54 19,5 C 19,5 C 64 % 1027,7 hPa 0,0 mm 3,1 km/h (1 Bft) O 93 1 min 0,000 mm 7,1 UV-I 911 W/m 12,5 C 4,8 km/h (1 Bft)
07.08.2016 12:55 19,4 C 19,5 C 61 % 1027,7 hPa 0,0 mm 1,5 km/h (1 Bft) NO 42 1 min 0,000 mm 7,2 UV-I 921 W/m 11,7 C 3,2 km/h (1 Bft)
07.08.2016 12:56 19,6 C 19,6 C 64 % 1027,7 hPa 0,0 mm 5,9 km/h (2 Bft) N 360 1 min 0,000 mm 7,3 UV-I 921 W/m 12,6 C 11,3 km/h (2 Bft)
07.08.2016 12:57 19,7 C 19,7 C 61 % 1027,7 hPa 0,0 mm 9,8 km/h (2 Bft) N 5 1 min 0,000 mm 7,3 UV-I 962 W/m 12,0 C 14,5 km/h (3 Bft)
07.08.2016 12:58 19,8 C 19,8 C 61 % 1027,7 hPa 0,0 mm 7,8 km/h (2 Bft) N-NO 20 1 min 0,000 mm 7,3 UV-I 962 W/m 12,1 C 11,3 km/h (2 Bft)
07.08.2016 12:59 19,7 C 19,8 C 61 % 1027,7 hPa 0,0 mm 7,5 km/h (2 Bft) N 355 1 min 0,000 mm 5,5 UV-I 962 W/m 12,0 C 11,3 km/h (2 Bft)
07.08.2016 13:00 19,7 C 19,7 C 62 % 1027,7 hPa 0,0 mm 6,9 km/h (2 Bft) NW 325 1 min 0,457 mm 6,9 UV-I 881 W/m 12,2 C 9,7 km/h (2 Bft)
07.08.2016 13:01 19,8 C 19,8 C 62 % 1027,7 hPa 0,0 mm 4,6 km/h (1 Bft) N 350 1 min 0,000 mm 7,0 UV-I 882 W/m 12,3 C 6,4 km/h (2 Bft)
07.08.2016 13:02 19,8 C 19,8 C 62 % 1027,7 hPa 0,0 mm 8,2 km/h (2 Bft) N-NW 346 1 min 0,000 mm 7,0 UV-I 893 W/m 12,3 C 12,9 km/h (3 Bft)
07.08.2016 13:03 19,9 C 19,9 C 61 % 1027,7 hPa 0,0 mm 7,6 km/h (2 Bft) N-NO 25 1 min 0,000 mm 7,1 UV-I 904 W/m 12,2 C 12,9 km/h (3 Bft)
07.08.2016 13:04 19,9 C 19,9 C 65 % 1027,7 hPa 0,0 mm 4,1 km/h (1 Bft) N-NW 338 1 min 0,000 mm 7,2 UV-I 953 W/m 13,1 C 4,8 km/h (1 Bft)
07.08.2016 13:05 20,0 C 20,0 C 63 % 1027,7 hPa 0,0 mm 3,1 km/h (1 Bft) N-NW 348 1 min 0,000 mm 7,3 UV-I 953 W/m 12,7 C 6,4 km/h (2 Bft)
07.08.2016 13:06 20,1 C 20,1 C 68 % 1027,6 hPa 0,0 mm 6,2 km/h (2 Bft) O-NO 63 1 min 0,000 mm 7,0 UV-I 953 W/m 14,0 C 8,0 km/h (2 Bft)
07.08.2016 13:07 20,0 C 20,1 C 60 % 1027,6 hPa 0,0 mm 5,4 km/h (1 Bft) NW 311 1 min 0,000 mm 7,0 UV-I 933 W/m 12,0 C 8,0 km/h (2 Bft)
07.08.2016 13:08 20,1 C 20,1 C 64 % 1027,6 hPa 0,0 mm 5,1 km/h (1 Bft) NW 324 1 min 0,000 mm 4,7 UV-I 933 W/m 13,1 C 8,0 km/h (2 Bft)
07.08.2016 13:09 20,1 C 20,1 C 64 % 1027,7 hPa 0,0 mm 6,6 km/h (2 Bft) N-NO 17 1 min 0,000 mm 7,1 UV-I 933 W/m 13,1 C 8,0 km/h (2 Bft)
07.08.2016 13:10 20,2 C 20,2 C 63 % 1027,6 hPa 0,0 mm 10,4 km/h (2 Bft) N 9 1 min 0,000 mm 5,7 UV-I 933 W/m 12,9 C 14,5 km/h (3 Bft)
07.08.2016 13:11 20,2 C 20,3 C 61 % 1027,6 hPa 0,0 mm 8,9 km/h (2 Bft) N 350 1 min 0,000 mm 7,1 UV-I 919 W/m 12,4 C 12,9 km/h (3 Bft)
07.08.2016 13:12 20,2 C 20,2 C 60 % 1027,6 hPa 0,0 mm 6,8 km/h (2 Bft) NW 322 1 min 0,000 mm 7,2 UV-I 919 W/m 12,2 C 9,7 km/h (2 Bft)
07.08.2016 13:13 20,1 C 20,2 C 60 % 1027,5 hPa 0,0 mm 6,4 km/h (2 Bft) NW 317 1 min 0,000 mm 7,2 UV-I 933 W/m 12,1 C 9,7 km/h (2 Bft)
07.08.2016 13:14 20,1 C 20,1 C 63 % 1027,6 hPa 0,0 mm 6,5 km/h (2 Bft) N-NW 335 1 min 0,000 mm 7,3 UV-I 953 W/m 12,8 C 9,7 km/h (2 Bft)
07.08.2016 13:15 20,1 C 20,1 C 66 % 1027,6 hPa 0,0 mm 5,4 km/h (1 Bft) W-NW 290 1 min 0,000 mm 7,4 UV-I 970 W/m 13,5 C 8,0 km/h (2 Bft)
07.08.2016 13:16 20,2 C 20,2 C 64 % 1027,5 hPa 0,0 mm 7,7 km/h (2 Bft) NW 305 1 min 0,000 mm 7,0 UV-I 970 W/m 13,2 C 12,9 km/h (3 Bft)
07.08.2016 13:17 20,2 C 20,2 C 62 % 1027,4 hPa 0,0 mm 6,7 km/h (2 Bft) N 5 1 min 0,000 mm 7,1 UV-I 895 W/m 12,7 C 9,7 km/h (2 Bft)
07.08.2016 13:18 20,2 C 20,2 C 65 % 1027,5 hPa 0,0 mm 9,1 km/h (2 Bft) O-NO 63 1 min 0,000 mm 7,2 UV-I 891 W/m 13,4 C 16,1 km/h (3 Bft)
07.08.2016 13:19 20,1 C 20,2 C 61 % 1027,5 hPa 0,0 mm 9,8 km/h (2 Bft) N-NO 26 1 min 0,000 mm 7,1 UV-I 881 W/m 12,3 C 16,1 km/h (3 Bft)
07.08.2016 13:20 20,1 C 20,1 C 63 % 1027,5 hPa 0,0 mm 3,9 km/h (1 Bft) N-NW 338 1 min 0,000 mm 7,1 UV-I 875 W/m 12,8 C 8,0 km/h (2 Bft)
07.08.2016 13:21 20,1 C 20,1 C 63 % 1027,5 hPa 0,0 mm 5,1 km/h (1 Bft) N-NO 17 1 min 0,000 mm 7,1 UV-I 877 W/m 12,8 C 8,0 km/h (2 Bft)
07.08.2016 13:22 20,3 C 20,3 C 65 % 1027,5 hPa 0,0 mm 5,2 km/h (1 Bft) O-NO 71 1 min 0,000 mm 7,1 UV-I 886 W/m 13,5 C 8,0 km/h (2 Bft)
07.08.2016 13:23 20,2 C 20,3 C 62 % 1027,5 hPa 0,0 mm 7,0 km/h (2 Bft) NO 51 1 min 0,000 mm 7,1 UV-I 918 W/m 12,7 C 12,9 km/h (3 Bft)
07.08.2016 13:24 20,3 C 20,3 C 64 % 1027,4 hPa 0,0 mm 5,0 km/h (1 Bft) N-NW 338 1 min 0,000 mm 7,1 UV-I 933 W/m 13,3 C 8,0 km/h (2 Bft)
07.08.2016 13:25 20,3 C 20,3 C 65 % 1027,4 hPa 0,0 mm 4,2 km/h (1 Bft) N 5 1 min 0,000 mm 7,1 UV-I 933 W/m 13,5 C 6,4 km/h (2 Bft)
07.08.2016 13:26 20,3 C 20,3 C 61 % 1027,5 hPa 0,0 mm 6,1 km/h (2 Bft) N-NO 28 1 min 0,000 mm 7,2 UV-I 928 W/m 12,5 C 8,0 km/h (2 Bft)
07.08.2016 13:27 20,4 C 20,4 C 60 % 1027,5 hPa 0,0 mm 3,2 km/h (1 Bft) O 92 1 min 0,000 mm 7,4 UV-I 962 W/m 12,4 C 6,4 km/h (2 Bft)
07.08.2016 13:28 20,3 C 20,4 C 60 % 1027,5 hPa 0,0 mm 3,2 km/h (1 Bft) N 5 1 min 0,000 mm 7,5 UV-I 976 W/m 12,3 C 6,4 km/h (2 Bft)
07.08.2016 13:29 20,4 C 20,4 C 61 % 1027,5 hPa 0,0 mm 7,0 km/h (2 Bft) NO 48 1 min 0,000 mm 5,6 UV-I 976 W/m 12,6 C 11,3 km/h (2 Bft)
07.08.2016 13:30 20,4 C 20,4 C 62 % 1027,5 hPa 0,0 mm 6,8 km/h (2 Bft) O 86 0 min 0,000 mm 4,2 UV-I 185 W/m 12,9 C 9,7 km/h (2 Bft)
07.08.2016 13:31 20,2 C 20,4 C 59 % 1027,5 hPa 0,0 mm 5,2 km/h (1 Bft) O-SO 105 0 min 0,000 mm 3,7 UV-I 162 W/m 11,9 C 8,0 km/h (2 Bft)
07.08.2016 13:32 19,9 C 20,2 C 61 % 1027,5 hPa 0,0 mm 3,8 km/h (1 Bft) O 81 0 min 0,000 mm 4,1 UV-I 162 W/m 12,2 C 6,4 km/h (2 Bft)
07.08.2016 13:33 19,7 C 19,9 C 62 % 1027,4 hPa 0,0 mm 2,8 km/h (1 Bft) O 82 0 min 0,000 mm 4,0 UV-I 162 W/m 12,2 C 4,8 km/h (1 Bft)
07.08.2016 13:34 19,5 C 19,7 C 63 % 1027,5 hPa 0,0 mm 0,7 km/h (0 Bft) O 82 0 min 0,000 mm 3,8 UV-I 229 W/m 12,3 C 3,2 km/h (1 Bft)
07.08.2016 13:35 19,4 C 19,5 C 63 % 1027,4 hPa 0,0 mm 0,3 km/h (0 Bft) O 82 0 min 0,000 mm 7,1 UV-I 229 W/m 12,2 C 1,6 km/h (1 Bft)
07.08.2016 13:36 19,4 C 19,5 C 65 % 1027,4 hPa 0,0 mm 2,8 km/h (1 Bft) O 86 1 min 0,000 mm 7,1 UV-I 886 W/m 12,6 C 4,8 km/h (1 Bft)
07.08.2016 13:37 19,6 C 19,6 C 66 % 1027,4 hPa 0,0 mm 3,6 km/h (1 Bft) NO 53 1 min 0,000 mm 7,1 UV-I 888 W/m 13,1 C 8,0 km/h (2 Bft)
07.08.2016 13:38 19,8 C 19,8 C 62 % 1027,4 hPa 0,0 mm 6,1 km/h (2 Bft) NO 37 1 min 0,000 mm 7,1 UV-I 882 W/m 12,3 C 9,7 km/h (2 Bft)
07.08.2016 13:39 19,9 C 19,9 C 62 % 1027,4 hPa 0,0 mm 5,9 km/h (2 Bft) N 5 1 min 0,000 mm 7,0 UV-I 872 W/m 12,4 C 9,7 km/h (2 Bft)
07.08.2016 13:40 20,1 C 20,1 C 65 % 1027,3 hPa 0,0 mm 3,8 km/h (1 Bft) N-NW 348 1 min 0,000 mm 6,8 UV-I 867 W/m 13,3 C 4,8 km/h (1 Bft)
07.08.2016 13:41 20,3 C 20,3 C 62 % 1027,3 hPa 0,0 mm 2,2 km/h (1 Bft) O-NO 77 1 min 0,000 mm 7,0 UV-I 872 W/m 12,8 C 3,2 km/h (1 Bft)
07.08.2016 13:42 20,3 C 20,3 C 62 % 1027,3 hPa 0,0 mm 5,0 km/h (1 Bft) O 92 1 min 0,000 mm 7,1 UV-I 875 W/m 12,8 C 11,3 km/h (2 Bft)
07.08.2016 13:43 20,3 C 20,3 C 63 % 1027,4 hPa 0,0 mm 8,0 km/h (2 Bft) NO 50 1 min 0,000 mm 7,1 UV-I 882 W/m 13,0 C 12,9 km/h (3 Bft)
07.08.2016 13:44 20,2 C 20,3 C 61 % 1027,4 hPa 0,0 mm 6,8 km/h (2 Bft) O 94 1 min 0,000 mm 7,1 UV-I 888 W/m 12,4 C 11,3 km/h (2 Bft)
07.08.2016 13:45 20,2 C 20,2 C 64 % 1027,4 hPa 0,0 mm 7,2 km/h (2 Bft) O-NO 63 1 min 0,000 mm 7,1 UV-I 907 W/m 13,2 C 12,9 km/h (3 Bft)
07.08.2016 13:46 20,1 C 20,2 C 65 % 1027,4 hPa 0,0 mm 4,0 km/h (1 Bft) O-SO 117 1 min 0,000 mm 7,2 UV-I 914 W/m 13,3 C 8,0 km/h (2 Bft)
07.08.2016 13:47 20,1 C 20,1 C 62 % 1027,4 hPa 0,0 mm 3,6 km/h (1 Bft) O-SO 112 1 min 0,000 mm 7,2 UV-I 925 W/m 12,6 C 6,4 km/h (2 Bft)
07.08.2016 13:48 20,0 C 20,1 C 64 % 1027,3 hPa 0,0 mm 4,2 km/h (1 Bft) O 80 1 min 0,000 mm 7,2 UV-I 932 W/m 13,0 C 6,4 km/h (2 Bft)
07.08.2016 13:49 20,1 C 20,1 C 67 % 1027,3 hPa 0,0 mm 2,4 km/h (1 Bft) O-NO 76 1 min 0,000 mm 7,3 UV-I 926 W/m 13,8 C 4,8 km/h (1 Bft)
07.08.2016 13:50 20,1 C 20,1 C 61 % 1027,3 hPa 0,0 mm 1,7 km/h (1 Bft) O-NO 76 1 min 0,000 mm 7,2 UV-I 925 W/m 12,3 C 4,8 km/h (1 Bft)
07.08.2016 13:51 20,1 C 20,1 C 60 % 1027,3 hPa 0,0 mm 2,9 km/h (1 Bft) S-SO 159 1 min 0,000 mm 7,3 UV-I 951 W/m 12,1 C 4,8 km/h (1 Bft)
07.08.2016 13:52 20,1 C 20,1 C 61 % 1027,2 hPa 0,0 mm 1,8 km/h (1 Bft) SO 138 1 min 0,000 mm 7,3 UV-I 960 W/m 12,3 C 3,2 km/h (1 Bft)
07.08.2016 13:53 20,2 C 20,2 C 65 % 1027,2 hPa 0,0 mm 3,2 km/h (1 Bft) O-NO 65 1 min 0,000 mm 7,3 UV-I 958 W/m 13,4 C 8,0 km/h (2 Bft)
07.08.2016 13:54 20,2 C 20,2 C 62 % 1027,2 hPa 0,0 mm 7,6 km/h (2 Bft) O 79 1 min 0,000 mm 7,2 UV-I 949 W/m 12,7 C 12,9 km/h (3 Bft)
07.08.2016 13:55 20,2 C 20,2 C 59 % 1027,3 hPa 0,0 mm 8,6 km/h (2 Bft) O-NO 67 1 min 0,000 mm 7,2 UV-I 944 W/m 11,9 C 9,7 km/h (2 Bft)
07.08.2016 13:56 20,1 C 20,2 C 60 % 1027,2 hPa 0,0 mm 8,2 km/h (2 Bft) O-NO 59 1 min 0,000 mm 7,2 UV-I 946 W/m 12,1 C 9,7 km/h (2 Bft)
07.08.2016 13:57 20,2 C 20,2 C 62 % 1027,1 hPa 0,0 mm 5,3 km/h (1 Bft) O 97 1 min 0,000 mm 7,1 UV-I 930 W/m 12,7 C 8,0 km/h (2 Bft)
07.08.2016 13:58 20,2 C 20,3 C 59 % 1027,1 hPa 0,0 mm 2,7 km/h (1 Bft) NW 313 1 min 0,000 mm 7,1 UV-I 909 W/m 11,9 C 4,8 km/h (1 Bft)
07.08.2016 13:59 20,2 C 20,2 C 58 % 1027,1 hPa 0,0 mm 1,7 km/h (1 Bft) W 279 1 min 0,000 mm 7,1 UV-I 925 W/m 11,7 C 3,2 km/h (1 Bft)
07.08.2016 14:00 20,3 C 20,3 C 60 % 1027,1 hPa 0,0 mm 2,1 km/h (1 Bft) W-SW 252 1 min 0,000 mm 7,1 UV-I 919 W/m 12,3 C 3,2 km/h (1 Bft)
07.08.2016 14:01 20,4 C 20,4 C 59 % 1027,1 hPa 0,0 mm 0,3 km/h (0 Bft) W-SW 244 1 min 0,508 mm 7,0 UV-I 909 W/m 12,1 C 1,6 km/h (1 Bft)
07.08.2016 14:02 20,6 C 20,6 C 66 % 1027,0 hPa 0,0 mm 4,0 km/h (1 Bft) O-NO 72 1 min 0,000 mm 6,9 UV-I 900 W/m 14,0 C 6,4 km/h (2 Bft)
07.08.2016 14:03 20,7 C 20,7 C 61 % 1027,1 hPa 0,0 mm 7,2 km/h (2 Bft) O-NO 68 1 min 0,000 mm 7,0 UV-I 879 W/m 12,9 C 12,9 km/h (3 Bft)
07.08.2016 14:04 20,6 C 20,7 C 59 % 1027,1 hPa 0,0 mm 8,5 km/h (2 Bft) O 82 1 min 0,000 mm 7,0 UV-I 886 W/m 12,3 C 14,5 km/h (3 Bft)
07.08.2016 14:05 20,5 C 20,6 C 65 % 1027,1 hPa 0,0 mm 6,0 km/h (2 Bft) O-NO 78 1 min 0,000 mm 7,1 UV-I 895 W/m 13,7 C 11,3 km/h (2 Bft)
07.08.2016 14:06 20,5 C 20,6 C 62 % 1027,1 hPa 0,0 mm 5,4 km/h (1 Bft) O 100 1 min 0,000 mm 7,1 UV-I 902 W/m 13,0 C 8,0 km/h (2 Bft)
07.08.2016 14:07 20,6 C 20,6 C 65 % 1027,1 hPa 0,0 mm 5,1 km/h (1 Bft) N-NW 330 1 min 0,000 mm 7,0 UV-I 905 W/m 13,8 C 8,0 km/h (2 Bft)
07.08.2016 14:08 20,8 C 20,8 C 64 % 1027,0 hPa 0,0 mm 6,1 km/h (2 Bft) O-NO 57 1 min 0,000 mm 6,9 UV-I 893 W/m 13,7 C 9,7 km/h (2 Bft)
07.08.2016 14:09 20,7 C 20,8 C 59 % 1027,1 hPa 0,0 mm 5,9 km/h (2 Bft) N-NW 342 1 min 0,000 mm 7,0 UV-I 898 W/m 12,4 C 9,7 km/h (2 Bft)
07.08.2016 14:10 20,8 C 20,8 C 62 % 1027,0 hPa 0,0 mm 4,5 km/h (1 Bft) N-NO 26 1 min 0,000 mm 6,9 UV-I 895 W/m 13,2 C 6,4 km/h (2 Bft)
07.08.2016 14:11 20,8 C 20,8 C 61 % 1027,1 hPa 0,0 mm 4,2 km/h (1 Bft) O-NO 60 1 min 0,000 mm 6,9 UV-I 891 W/m 13,0 C 8,0 km/h (2 Bft)
07.08.2016 14:12 20,8 C 20,8 C 64 % 1027,0 hPa 0,0 mm 1,8 km/h (1 Bft) O-NO 58 1 min 0,000 mm 6,9 UV-I 893 W/m 13,7 C 3,2 km/h (1 Bft)
07.08.2016 14:13 20,9 C 20,9 C 60 % 1027,1 hPa 0,0 mm 3,2 km/h (1 Bft) N 9 1 min 0,000 mm 7,0 UV-I 891 W/m 12,8 C 6,4 km/h (2 Bft)
07.08.2016 14:14 20,9 C 20,9 C 57 % 1027,0 hPa 0,0 mm 3,9 km/h (1 Bft) O 86 1 min 0,000 mm 6,9 UV-I 882 W/m 12,1 C 6,4 km/h (2 Bft)
07.08.2016 14:15 20,8 C 20,9 C 61 % 1027,0 hPa 0,0 mm 1,0 km/h (0 Bft) O-NO 73 1 min 0,000 mm 6,9 UV-I 863 W/m 13,0 C 3,2 km/h (1 Bft)
07.08.2016 14:16 20,9 C 20,9 C 61 % 1027,0 hPa 0,0 mm 3,9 km/h (1 Bft) N-NW 347 1 min 0,000 mm 6,8 UV-I 860 W/m 13,1 C 8,0 km/h (2 Bft)
07.08.2016 14:17 20,9 C 20,9 C 61 % 1027,0 hPa 0,0 mm 4,2 km/h (1 Bft) NO 43 1 min 0,000 mm 6,8 UV-I 856 W/m 13,1 C 6,4 km/h (2 Bft)
07.08.2016 14:18 21,1 C 21,1 C 62 % 1026,9 hPa 0,0 mm 3,9 km/h (1 Bft) W-NW 296 1 min 0,000 mm 6,8 UV-I 856 W/m 13,5 C 4,8 km/h (1 Bft)
07.08.2016 14:19 21,1 C 21,1 C 62 % 1026,9 hPa 0,0 mm 3,8 km/h (1 Bft) N-NW 331 1 min 0,000 mm 6,8 UV-I 858 W/m 13,5 C 8,0 km/h (2 Bft)
07.08.2016 14:20 21,1 C 21,2 C 63 % 1026,9 hPa 0,0 mm 7,2 km/h (2 Bft) N-NW 333 1 min 0,000 mm 6,8 UV-I 861 W/m 13,8 C 9,7 km/h (2 Bft)
07.08.2016 14:21 21,1 C 21,1 C 59 % 1027,0 hPa 0,0 mm 3,7 km/h (1 Bft) N-NO 30 1 min 0,000 mm 6,7 UV-I 861 W/m 12,8 C 6,4 km/h (2 Bft)
07.08.2016 14:22 20,9 C 21,1 C 62 % 1026,9 hPa 0,0 mm 5,2 km/h (1 Bft) NO 54 1 min 0,000 mm 6,7 UV-I 872 W/m 13,3 C 8,0 km/h (2 Bft)
07.08.2016 14:23 20,7 C 20,9 C 60 % 1026,9 hPa 0,0 mm 6,4 km/h (2 Bft) NO 35 1 min 0,000 mm 6,8 UV-I 896 W/m 12,7 C 9,7 km/h (2 Bft)
07.08.2016 14:24 20,6 C 20,7 C 60 % 1026,9 hPa 0,0 mm 4,3 km/h (1 Bft) NW 309 1 min 0,000 mm 6,8 UV-I 889 W/m 12,6 C 6,4 km/h (2 Bft)
07.08.2016 14:25 20,7 C 20,7 C 63 % 1026,9 hPa 0,0 mm 3,0 km/h (1 Bft) N-NO 24 1 min 0,000 mm 7,0 UV-I 930 W/m 13,4 C 4,8 km/h (1 Bft)
07.08.2016 14:26 20,8 C 20,8 C 62 % 1026,9 hPa 0,0 mm 4,4 km/h (1 Bft) N 10 1 min 0,000 mm 7,0 UV-I 949 W/m 13,2 C 8,0 km/h (2 Bft)
07.08.2016 14:27 21,2 C 21,2 C 62 % 1026,9 hPa 0,0 mm 11,8 km/h (2 Bft) NW 323 1 min 0,000 mm 6,9 UV-I 953 W/m 13,6 C 16,1 km/h (3 Bft)
07.08.2016 14:28 21,2 C 21,2 C 60 % 1026,8 hPa 0,0 mm 11,8 km/h (2 Bft) N 360 1 min 0,000 mm 6,8 UV-I 939 W/m 13,1 C 16,1 km/h (3 Bft)
07.08.2016 14:29 21,2 C 21,2 C 61 % 1026,8 hPa 0,0 mm 9,2 km/h (2 Bft) N 360 1 min 0,000 mm 6,5 UV-I 939 W/m 13,4 C 16,1 km/h (3 Bft)
07.08.2016 14:30 21,0 C 21,2 C 60 % 1026,9 hPa 0,0 mm 6,1 km/h (2 Bft) N 360 1 min 0,000 mm 6,5 UV-I 893 W/m 12,9 C 8,0 km/h (2 Bft)
07.08.2016 14:31 21,0 C 21,0 C 61 % 1026,8 hPa 0,0 mm 4,8 km/h (1 Bft) N-NO 26 1 min 0,000 mm 6,9 UV-I 891 W/m 13,2 C 9,7 km/h (2 Bft)
07.08.2016 14:32 20,8 C 21,0 C 59 % 1026,8 hPa 0,0 mm 6,3 km/h (2 Bft) N-NW 327 1 min 0,000 mm 5,8 UV-I 891 W/m 12,5 C 9,7 km/h (2 Bft)
07.08.2016 14:33 20,7 C 20,8 C 60 % 1026,8 hPa 0,0 mm 7,6 km/h (2 Bft) N 5 1 min 0,000 mm 6,6 UV-I 891 W/m 12,7 C 12,9 km/h (3 Bft)
07.08.2016 14:34 20,8 C 20,8 C 60 % 1026,8 hPa 0,0 mm 6,9 km/h (2 Bft) N 355 1 min 0,000 mm 4,4 UV-I 891 W/m 12,7 C 9,7 km/h (2 Bft)
07.08.2016 14:35 20,7 C 20,8 C 63 % 1026,8 hPa 0,0 mm 5,2 km/h (1 Bft) N 355 1 min 0,000 mm 3,9 UV-I 891 W/m 13,4 C 9,7 km/h (2 Bft)
07.08.2016 14:36 20,6 C 20,7 C 59 % 1026,8 hPa 0,0 mm 6,2 km/h (2 Bft) N 350 1 min 0,000 mm 6,6 UV-I 891 W/m 12,3 C 9,7 km/h (2 Bft)
07.08.2016 14:37 20,7 C 20,7 C 62 % 1026,8 hPa 0,0 mm 8,0 km/h (2 Bft) O-NO 59 1 min 0,000 mm 6,6 UV-I 860 W/m 13,2 C 12,9 km/h (3 Bft)
07.08.2016 14:38 20,8 C 20,8 C 57 % 1026,8 hPa 0,0 mm 5,6 km/h (1 Bft) N-NO 21 1 min 0,000 mm 6,6 UV-I 886 W/m 12,0 C 8,0 km/h (2 Bft)
07.08.2016 14:39 20,8 C 20,8 C 58 % 1026,8 hPa 0,0 mm 5,5 km/h (1 Bft) N-NO 13 1 min 0,000 mm 6,6 UV-I 874 W/m 12,2 C 8,0 km/h (2 Bft)
07.08.2016 14:40 20,9 C 20,9 C 57 % 1026,8 hPa 0,0 mm 4,2 km/h (1 Bft) NO 36 1 min 0,000 mm 6,5 UV-I 856 W/m 12,1 C 6,4 km/h (2 Bft)
07.08.2016 14:41 21,0 C 21,0 C 57 % 1026,8 hPa 0,0 mm 4,8 km/h (1 Bft) N 360 1 min 0,000 mm 6,5 UV-I 844 W/m 12,1 C 6,4 km/h (2 Bft)
07.08.2016 14:42 21,1 C 21,1 C 57 % 1026,7 hPa 0,0 mm 2,1 km/h (1 Bft) N 360 1 min 0,000 mm 6,4 UV-I 835 W/m 12,2 C 4,8 km/h (1 Bft)
07.08.2016 14:43 21,1 C 21,1 C 56 % 1026,8 hPa 0,0 mm 1,5 km/h (1 Bft) NO 56 1 min 0,000 mm 6,4 UV-I 831 W/m 12,0 C 4,8 km/h (1 Bft)
07.08.2016 14:44 21,1 C 21,1 C 62 % 1026,8 hPa 0,0 mm 2,7 km/h (1 Bft) W-NW 303 1 min 0,000 mm 6,4 UV-I 824 W/m 13,5 C 4,8 km/h (1 Bft)
07.08.2016 14:45 21,1 C 21,1 C 59 % 1026,8 hPa 0,0 mm 2,8 km/h (1 Bft) N-NO 18 1 min 0,000 mm 6,4 UV-I 831 W/m 12,8 C 4,8 km/h (1 Bft)
07.08.2016 14:46 21,1 C 21,1 C 62 % 1026,8 hPa 0,0 mm 5,9 km/h (2 Bft) O-NO 59 1 min 0,000 mm 6,5 UV-I 842 W/m 13,5 C 9,7 km/h (2 Bft)
07.08.2016 14:47 21,1 C 21,1 C 58 % 1026,8 hPa 0,0 mm 5,4 km/h (1 Bft) O 98 1 min 0,000 mm 6,5 UV-I 849 W/m 12,5 C 8,0 km/h (2 Bft)
07.08.2016 14:48 20,9 C 21,1 C 58 % 1026,7 hPa 0,0 mm 5,0 km/h (1 Bft) N-NO 32 1 min 0,000 mm 6,5 UV-I 854 W/m 12,3 C 8,0 km/h (2 Bft)
07.08.2016 14:49 20,9 C 20,9 C 57 % 1026,7 hPa 0,0 mm 3,0 km/h (1 Bft) N-NW 347 1 min 0,000 mm 6,5 UV-I 861 W/m 12,1 C 4,8 km/h (1 Bft)
07.08.2016 14:50 20,9 C 20,9 C 60 % 1026,7 hPa 0,0 mm 4,2 km/h (1 Bft) O-NO 62 1 min 0,000 mm 6,5 UV-I 856 W/m 12,8 C 8,0 km/h (2 Bft)
07.08.2016 14:51 21,1 C 21,1 C 59 % 1026,8 hPa 0,0 mm 4,8 km/h (1 Bft) SW 231 1 min 0,000 mm 6,5 UV-I 868 W/m 12,8 C 9,7 km/h (2 Bft)
07.08.2016 14:52 21,2 C 21,2 C 58 % 1026,7 hPa 0,0 mm 5,1 km/h (1 Bft) O-NO 59 1 min 0,000 mm 6,5 UV-I 868 W/m 12,6 C 8,0 km/h (2 Bft)
07.08.2016 14:53 21,2 C 21,2 C 63 % 1026,7 hPa 0,0 mm 4,4 km/h (1 Bft) O-SO 119 1 min 0,000 mm 6,4 UV-I 870 W/m 13,9 C 4,8 km/h (1 Bft)
07.08.2016 14:54 21,1 C 21,2 C 59 % 1026,7 hPa 0,0 mm 3,8 km/h (1 Bft) N-NO 28 1 min 0,000 mm 6,3 UV-I 860 W/m 12,8 C 6,4 km/h (2 Bft)
07.08.2016 14:55 21,1 C 21,1 C 59 % 1026,7 hPa 0,0 mm 3,4 km/h (1 Bft) N 9 1 min 0,000 mm 6,4 UV-I 863 W/m 12,8 C 4,8 km/h (1 Bft)
07.08.2016 14:56 21,2 C 21,2 C 60 % 1026,7 hPa 0,0 mm 5,2 km/h (1 Bft) O-NO 77 1 min 0,000 mm 6,4 UV-I 861 W/m 13,1 C 8,0 km/h (2 Bft)
07.08.2016 14:57 21,3 C 21,3 C 61 % 1026,7 hPa 0,0 mm 8,6 km/h (2 Bft) N-NO 25 1 min 0,000 mm 6,3 UV-I 856 W/m 13,5 C 12,9 km/h (3 Bft)
07.08.2016 14:58 21,3 C 21,3 C 56 % 1026,7 hPa 0,0 mm 7,4 km/h (2 Bft) O-NO 78 1 min 0,000 mm 6,3 UV-I 856 W/m 12,2 C 11,3 km/h (2 Bft)
07.08.2016 14:59 21,3 C 21,3 C 57 % 1026,7 hPa 0,0 mm 4,4 km/h (1 Bft) N-NW 340 1 min 0,000 mm 6,3 UV-I 856 W/m 12,4 C 6,4 km/h (2 Bft)
07.08.2016 15:00 21,3 C 21,3 C 59 % 1026,7 hPa 0,0 mm 7,3 km/h (2 Bft) NO 37 1 min 0,000 mm 6,3 UV-I 846 W/m 13,0 C 8,0 km/h (2 Bft)
07.08.2016 15:01 21,5 C 21,5 C 58 % 1026,8 hPa 0,0 mm 12,1 km/h (2 Bft) O 80 1 min 0,533 mm 6,2 UV-I 844 W/m 12,9 C 16,1 km/h (3 Bft)
07.08.2016 15:02 21,6 C 21,6 C 60 % 1026,8 hPa 0,0 mm 7,9 km/h (2 Bft) SO 128 1 min 0,001 mm 6,2 UV-I 821 W/m 13,5 C 14,5 km/h (3 Bft)
07.08.2016 15:03 21,4 C 21,6 C 57 % 1026,7 hPa 0,0 mm 4,9 km/h (1 Bft) N-NO 26 1 min 0,000 mm 6,0 UV-I 812 W/m 12,5 C 8,0 km/h (2 Bft)
07.08.2016 15:04 21,4 C 21,4 C 63 % 1026,7 hPa 0,0 mm 9,3 km/h (2 Bft) N-NO 30 1 min 0,000 mm 6,0 UV-I 800 W/m 14,1 C 12,9 km/h (3 Bft)
07.08.2016 15:05 21,4 C 21,5 C 54 % 1026,7 hPa 0,0 mm 5,6 km/h (1 Bft) O-SO 116 1 min 0,000 mm 5,9 UV-I 793 W/m 11,7 C 8,0 km/h (2 Bft)
07.08.2016 15:06 21,2 C 21,4 C 56 % 1026,7 hPa 0,0 mm 4,1 km/h (1 Bft) O 88 1 min 0,000 mm 5,9 UV-I 782 W/m 12,1 C 6,4 km/h (2 Bft)
07.08.2016 15:07 21,0 C 21,2 C 56 % 1026,7 hPa 0,0 mm 5,2 km/h (1 Bft) O-NO 61 1 min 0,000 mm 5,9 UV-I 782 W/m 11,9 C 8,0 km/h (2 Bft)
07.08.2016 15:08 20,9 C 21,0 C 57 % 1026,7 hPa 0,0 mm 2,5 km/h (1 Bft) O-SO 105 1 min 0,000 mm 5,8 UV-I 784 W/m 12,1 C 4,8 km/h (1 Bft)
07.08.2016 15:09 20,8 C 20,9 C 58 % 1026,6 hPa 0,0 mm 1,9 km/h (1 Bft) O-NO 64 1 min 0,000 mm 5,8 UV-I 786 W/m 12,2 C 4,8 km/h (1 Bft)
07.08.2016 15:10 20,8 C 20,9 C 59 % 1026,6 hPa 0,0 mm 2,8 km/h (1 Bft) NO 51 1 min 0,000 mm 5,8 UV-I 784 W/m 12,5 C 6,4 km/h (2 Bft)
07.08.2016 15:11 20,8 C 20,8 C 55 % 1026,6 hPa 0,0 mm 4,1 km/h (1 Bft) N-NO 17 1 min 0,000 mm 5,8 UV-I 780 W/m 11,4 C 8,0 km/h (2 Bft)
07.08.2016 15:12 20,9 C 20,9 C 56 % 1026,5 hPa 0,0 mm 3,7 km/h (1 Bft) N 360 1 min 0,000 mm 5,8 UV-I 780 W/m 11,8 C 6,4 km/h (2 Bft)
07.08.2016 15:13 21,1 C 21,1 C 58 % 1026,5 hPa 0,0 mm 7,1 km/h (2 Bft) NW 313 1 min 0,000 mm 5,8 UV-I 784 W/m 12,5 C 11,3 km/h (2 Bft)
07.08.2016 15:14 21,2 C 21,2 C 57 % 1026,5 hPa 0,0 mm 6,7 km/h (2 Bft) N 355 1 min 0,000 mm 5,8 UV-I 786 W/m 12,3 C 8,0 km/h (2 Bft)
07.08.2016 15:15 21,3 C 21,3 C 60 % 1026,5 hPa 0,0 mm 4,1 km/h (1 Bft) NW 304 1 min 0,000 mm 5,8 UV-I 789 W/m 13,2 C 6,4 km/h (2 Bft)
07.08.2016 15:16 21,3 C 21,3 C 55 % 1026,5 hPa 0,0 mm 4,8 km/h (1 Bft) O 82 1 min 0,000 mm 5,8 UV-I 788 W/m 11,9 C 8,0 km/h (2 Bft)
07.08.2016 15:17 21,3 C 21,3 C 56 % 1026,5 hPa 0,0 mm 7,5 km/h (2 Bft) NO 46 1 min 0,000 mm 5,8 UV-I 789 W/m 12,2 C 9,7 km/h (2 Bft)
07.08.2016 15:18 21,3 C 21,3 C 55 % 1026,5 hPa 0,0 mm 6,5 km/h (2 Bft) O-NO 65 1 min 0,000 mm 5,8 UV-I 795 W/m 11,9 C 8,0 km/h (2 Bft)
07.08.2016 15:19 21,2 C 21,3 C 55 % 1026,5 hPa 0,0 mm 6,7 km/h (2 Bft) N-NO 30 1 min 0,000 mm 5,8 UV-I 795 W/m 11,8 C 12,9 km/h (3 Bft)
07.08.2016 15:20 21,2 C 21,2 C 57 % 1026,4 hPa 0,0 mm 10,5 km/h (2 Bft) NO 42 1 min 0,000 mm 5,8 UV-I 791 W/m 12,3 C 14,5 km/h (3 Bft)
07.08.2016 15:21 21,2 C 21,2 C 58 % 1026,4 hPa 0,0 mm 4,8 km/h (1 Bft) N-NO 22 1 min 0,000 mm 5,8 UV-I 788 W/m 12,6 C 9,7 km/h (2 Bft)
07.08.2016 15:22 21,1 C 21,2 C 56 % 1026,4 hPa 0,0 mm 6,9 km/h (2 Bft) N 355 1 min 0,000 mm 5,7 UV-I 784 W/m 12,0 C 11,3 km/h (2 Bft)
07.08.2016 15:23 21,2 C 21,2 C 56 % 1026,4 hPa 0,0 mm 8,1 km/h (2 Bft) NO 34 1 min 0,000 mm 5,7 UV-I 779 W/m 12,1 C 12,9 km/h (3 Bft)
07.08.2016 15:24 21,3 C 21,3 C 56 % 1026,4 hPa 0,0 mm 7,2 km/h (2 Bft) N-NO 19 1 min 0,000 mm 5,7 UV-I 772 W/m 12,2 C 11,3 km/h (2 Bft)
07.08.2016 15:25 21,4 C 21,4 C 56 % 1026,4 hPa 0,0 mm 4,3 km/h (1 Bft) NO 51 1 min 0,000 mm 5,6 UV-I 754 W/m 12,3 C 6,4 km/h (2 Bft)
07.08.2016 15:26 21,4 C 21,4 C 58 % 1026,4 hPa 0,0 mm 7,2 km/h (2 Bft) N-NW 344 1 min 0,000 mm 5,5 UV-I 749 W/m 12,8 C 9,7 km/h (2 Bft)
07.08.2016 15:27 21,4 C 21,4 C 56 % 1026,4 hPa 0,0 mm 8,4 km/h (2 Bft) NW 317 1 min 0,000 mm 5,5 UV-I 745 W/m 12,3 C 12,9 km/h (3 Bft)
07.08.2016 15:28 21,3 C 21,4 C 56 % 1026,4 hPa 0,0 mm 7,9 km/h (2 Bft) N 5 1 min 0,000 mm 5,5 UV-I 744 W/m 12,2 C 11,3 km/h (2 Bft)
07.08.2016 15:29 21,3 C 21,4 C 56 % 1026,4 hPa 0,0 mm 6,1 km/h (2 Bft) N-NO 19 1 min 0,000 mm 5,5 UV-I 742 W/m 12,2 C 11,3 km/h (2 Bft)
07.08.2016 15:30 21,3 C 21,4 C 56 % 1026,4 hPa 0,0 mm 5,3 km/h (1 Bft) O-NO 76 1 min 0,000 mm 5,4 UV-I 738 W/m 12,2 C 9,7 km/h (2 Bft)
07.08.2016 15:31 21,3 C 21,3 C 55 % 1026,4 hPa 0,0 mm 4,3 km/h (1 Bft) O 91 1 min 0,000 mm 5,4 UV-I 731 W/m 11,9 C 9,7 km/h (2 Bft)
07.08.2016 15:32 21,2 C 21,3 C 56 % 1026,4 hPa 0,0 mm 8,2 km/h (2 Bft) O-NO 65 1 min 0,000 mm 5,4 UV-I 735 W/m 12,1 C 12,9 km/h (3 Bft)
07.08.2016 15:33 21,2 C 21,2 C 57 % 1026,4 hPa 0,0 mm 11,0 km/h (2 Bft) O-SO 108 1 min 0,000 mm 5,4 UV-I 737 W/m 12,3 C 17,7 km/h (3 Bft)
07.08.2016 15:34 21,1 C 21,2 C 56 % 1026,4 hPa 0,0 mm 7,3 km/h (2 Bft) N-NO 24 1 min 0,000 mm 5,4 UV-I 733 W/m 12,0 C 11,3 km/h (2 Bft)
07.08.2016 15:35 21,2 C 21,2 C 57 % 1026,3 hPa 0,0 mm 5,6 km/h (1 Bft) N-NW 342 1 min 0,000 mm 5,3 UV-I 728 W/m 12,3 C 8,0 km/h (2 Bft)
07.08.2016 15:36 21,2 C 21,2 C 56 % 1026,4 hPa 0,0 mm 4,2 km/h (1 Bft) N 355 1 min 0,000 mm 5,3 UV-I 724 W/m 12,1 C 8,0 km/h (2 Bft)
07.08.2016 15:37 21,1 C 21,2 C 55 % 1026,4 hPa 0,0 mm 4,1 km/h (1 Bft) NO 47 1 min 0,000 mm 5,3 UV-I 724 W/m 11,7 C 6,4 km/h (2 Bft)
07.08.2016 15:38 21,1 C 21,1 C 56 % 1026,4 hPa 0,0 mm 2,0 km/h (1 Bft) NO 52 1 min 0,000 mm 5,3 UV-I 724 W/m 12,0 C 3,2 km/h (1 Bft)
07.08.2016 15:39 21,1 C 21,1 C 57 % 1026,3 hPa 0,0 mm 4,7 km/h (1 Bft) O-NO 57 1 min 0,000 mm 5,2 UV-I 724 W/m 12,2 C 8,0 km/h (2 Bft)
07.08.2016 15:40 21,0 C 21,1 C 54 % 1026,3 hPa 0,0 mm 3,3 km/h (1 Bft) O 88 1 min 0,000 mm 5,2 UV-I 721 W/m 11,3 C 8,0 km/h (2 Bft)
07.08.2016 15:41 21,1 C 21,1 C 58 % 1026,3 hPa 0,0 mm 0,6 km/h (0 Bft) SO 132 1 min 0,000 mm 5,2 UV-I 717 W/m 12,5 C 1,6 km/h (1 Bft)
07.08.2016 15:42 21,0 C 21,1 C 57 % 1026,3 hPa 0,0 mm 4,4 km/h (1 Bft) O-SO 103 1 min 0,000 mm 5,2 UV-I 714 W/m 12,1 C 8,0 km/h (2 Bft)
07.08.2016 15:43 21,0 C 21,0 C 58 % 1026,3 hPa 0,0 mm 2,9 km/h (1 Bft) N-NO 32 1 min 0,000 mm 5,2 UV-I 712 W/m 12,4 C 4,8 km/h (1 Bft)
07.08.2016 15:44 21,1 C 21,1 C 57 % 1026,3 hPa 0,0 mm 1,6 km/h (1 Bft) N-NO 27 1 min 0,000 mm 5,1 UV-I 707 W/m 12,2 C 3,2 km/h (1 Bft)
07.08.2016 15:45 21,2 C 21,2 C 60 % 1026,2 hPa 0,0 mm 4,0 km/h (1 Bft) N-NW 348 1 min 0,000 mm 5,1 UV-I 703 W/m 13,1 C 4,8 km/h (1 Bft)
07.08.2016 15:46 21,3 C 21,3 C 60 % 1026,3 hPa 0,0 mm 3,4 km/h (1 Bft) O-SO 103 1 min 0,000 mm 5,1 UV-I 703 W/m 13,2 C 4,8 km/h (1 Bft)
07.08.2016 15:47 21,4 C 21,4 C 61 % 1026,3 hPa 0,0 mm 6,4 km/h (2 Bft) O-NO 74 1 min 0,000 mm 5,0 UV-I 701 W/m 13,6 C 11,3 km/h (2 Bft)
07.08.2016 15:48 21,4 C 21,4 C 55 % 1026,3 hPa 0,0 mm 5,2 km/h (1 Bft) N-NO 26 1 min 0,000 mm 5,0 UV-I 701 W/m 12,0 C 11,3 km/h (2 Bft)
07.08.2016 15:49 21,3 C 21,4 C 56 % 1026,3 hPa 0,0 mm 5,9 km/h (2 Bft) N-NW 331 1 min 0,000 mm 5,0 UV-I 701 W/m 12,2 C 12,9 km/h (3 Bft)
07.08.2016 15:50 21,4 C 21,4 C 57 % 1026,3 hPa 0,0 mm 6,4 km/h (2 Bft) N-NW 348 1 min 0,000 mm 5,0 UV-I 700 W/m 12,5 C 8,0 km/h (2 Bft)
07.08.2016 15:51 21,4 C 21,4 C 56 % 1026,2 hPa 0,0 mm 6,0 km/h (2 Bft) N-NW 336 1 min 0,000 mm 5,0 UV-I 696 W/m 12,3 C 8,0 km/h (2 Bft)
07.08.2016 15:52 21,4 C 21,4 C 56 % 1026,2 hPa 0,0 mm 5,6 km/h (1 Bft) N 360 1 min 0,000 mm 5,0 UV-I 696 W/m 12,3 C 8,0 km/h (2 Bft)
07.08.2016 15:53 21,4 C 21,4 C 56 % 1026,2 hPa 0,0 mm 4,6 km/h (1 Bft) N 5 1 min 0,000 mm 4,9 UV-I 693 W/m 12,3 C 8,0 km/h (2 Bft)
07.08.2016 15:54 21,6 C 21,6 C 57 % 1026,2 hPa 0,0 mm 4,8 km/h (1 Bft) NO 54 1 min 0,000 mm 4,9 UV-I 686 W/m 12,7 C 12,9 km/h (3 Bft)
07.08.2016 15:55 21,4 C 21,6 C 53 % 1026,1 hPa 0,0 mm 2,9 km/h (1 Bft) N-NO 26 1 min 0,000 mm 4,9 UV-I 689 W/m 11,4 C 4,8 km/h (1 Bft)
07.08.2016 15:56 21,3 C 21,4 C 54 % 1026,2 hPa 0,0 mm 3,8 km/h (1 Bft) NO 46 1 min 0,000 mm 4,5 UV-I 663 W/m 11,6 C 4,8 km/h (1 Bft)
07.08.2016 15:57 21,4 C 21,4 C 56 % 1026,2 hPa 0,0 mm 2,9 km/h (1 Bft) O-NO 78 1 min 0,000 mm 4,8 UV-I 677 W/m 12,3 C 8,0 km/h (2 Bft)
07.08.2016 15:58 21,4 C 21,4 C 56 % 1026,1 hPa 0,0 mm 9,1 km/h (2 Bft) NO 50 1 min 0,000 mm 4,8 UV-I 677 W/m 12,3 C 14,5 km/h (3 Bft)
07.08.2016 15:59 21,4 C 21,4 C 56 % 1026,1 hPa 0,0 mm 10,3 km/h (2 Bft) O-SO 109 1 min 0,000 mm 4,8 UV-I 677 W/m 12,3 C 14,5 km/h (3 Bft)
07.08.2016 16:00 21,4 C 21,4 C 54 % 1026,2 hPa 0,0 mm 8,3 km/h (2 Bft) O-SO 116 1 min 0,000 mm 4,8 UV-I 675 W/m 11,7 C 12,9 km/h (3 Bft)
07.08.2016 16:01 21,2 C 21,4 C 55 % 1026,2 hPa 0,0 mm 8,4 km/h (2 Bft) O-SO 108 1 min 0,482 mm 4,7 UV-I 668 W/m 11,8 C 12,9 km/h (3 Bft)
07.08.2016 16:02 21,2 C 21,2 C 58 % 1026,2 hPa 0,0 mm 5,8 km/h (2 Bft) NO 44 1 min 0,000 mm 4,7 UV-I 668 W/m 12,6 C 11,3 km/h (2 Bft)
07.08.2016 16:03 21,1 C 21,2 C 55 % 1026,2 hPa 0,0 mm 7,1 km/h (2 Bft) O 94 1 min 0,000 mm 4,7 UV-I 668 W/m 11,7 C 9,7 km/h (2 Bft)
07.08.2016 16:04 21,0 C 21,1 C 59 % 1026,1 hPa 0,0 mm 4,9 km/h (1 Bft) N-NW 342 1 min 0,000 mm 4,7 UV-I 670 W/m 12,7 C 9,7 km/h (2 Bft)
07.08.2016 16:05 21,0 C 21,1 C 56 % 1026,1 hPa 0,0 mm 4,7 km/h (1 Bft) N-NW 336 1 min 0,000 mm 4,7 UV-I 670 W/m 11,9 C 6,4 km/h (2 Bft)
07.08.2016 16:06 21,0 C 21,0 C 57 % 1026,1 hPa 0,0 mm 1,7 km/h (1 Bft) N 351 1 min 0,000 mm 4,6 UV-I 663 W/m 12,1 C 3,2 km/h (1 Bft)
07.08.2016 16:07 21,1 C 21,1 C 59 % 1026,1 hPa 0,0 mm 3,1 km/h (1 Bft) N-NO 14 1 min 0,000 mm 4,6 UV-I 659 W/m 12,8 C 4,8 km/h (1 Bft)
07.08.2016 16:08 21,3 C 21,3 C 58 % 1026,1 hPa 0,0 mm 4,7 km/h (1 Bft) N-NO 31 1 min 0,000 mm 4,6 UV-I 657 W/m 12,7 C 6,4 km/h (2 Bft)
07.08.2016 16:09 21,3 C 21,3 C 57 % 1026,0 hPa 0,0 mm 3,7 km/h (1 Bft) N 355 1 min 0,000 mm 4,1 UV-I 657 W/m 12,4 C 4,8 km/h (1 Bft)
07.08.2016 16:10 21,4 C 21,4 C 58 % 1026,1 hPa 0,0 mm 5,5 km/h (1 Bft) O-NO 60 1 min 0,000 mm 4,5 UV-I 650 W/m 12,8 C 8,0 km/h (2 Bft)
07.08.2016 16:11 21,3 C 21,4 C 55 % 1026,1 hPa 0,0 mm 2,7 km/h (1 Bft) NO 44 1 min 0,000 mm 4,5 UV-I 649 W/m 11,9 C 8,0 km/h (2 Bft)
07.08.2016 16:12 21,3 C 21,3 C 57 % 1026,0 hPa 0,0 mm 7,6 km/h (2 Bft) O-NO 67 1 min 0,000 mm 4,5 UV-I 643 W/m 12,4 C 11,3 km/h (2 Bft)
07.08.2016 16:13 21,2 C 21,3 C 59 % 1026,0 hPa 0,0 mm 5,0 km/h (1 Bft) O-SO 103 1 min 0,000 mm 4,4 UV-I 603 W/m 12,9 C 9,7 km/h (2 Bft)
07.08.2016 16:14 21,1 C 21,2 C 54 % 1026,0 hPa 0,0 mm 3,0 km/h (1 Bft) N-NO 24 1 min 0,000 mm 2,9 UV-I 603 W/m 11,4 C 4,8 km/h (1 Bft)
07.08.2016 16:15 21,1 C 21,1 C 56 % 1026,0 hPa 0,0 mm 4,5 km/h (1 Bft) N-NO 31 1 min 0,000 mm 2,2 UV-I 603 W/m 12,0 C 8,0 km/h (2 Bft)
07.08.2016 16:16 21,0 C 21,1 C 55 % 1026,0 hPa 0,0 mm 4,6 km/h (1 Bft) N-NO 23 1 min 0,000 mm 2,1 UV-I 603 W/m 11,6 C 6,4 km/h (2 Bft)
07.08.2016 16:17 21,0 C 21,0 C 55 % 1026,0 hPa 0,0 mm 3,6 km/h (1 Bft) N-NO 24 0 min 0,000 mm 0,0 UV-I 46 W/m 11,6 C 4,8 km/h (1 Bft)
07.08.2016 16:18 21,2 C 21,2 C 57 % 1026,0 hPa 0,0 mm 3,8 km/h (1 Bft) NO 55 0 min 0,000 mm 0,0 UV-I 53 W/m 12,3 C 6,4 km/h (2 Bft)
07.08.2016 16:19 21,2 C 21,2 C 56 % 1026,0 hPa 0,0 mm 2,4 km/h (1 Bft) O-NO 76 0 min 0,000 mm 0,0 UV-I 49 W/m 12,1 C 3,2 km/h (1 Bft)
07.08.2016 16:20 21,2 C 21,2 C 55 % 1025,9 hPa 0,0 mm 1,7 km/h (1 Bft) S 169 0 min 0,000 mm 0,0 UV-I 47 W/m 11,8 C 3,2 km/h (1 Bft)
07.08.2016 16:21 21,1 C 21,2 C 54 % 1026,0 hPa 0,0 mm 3,2 km/h (1 Bft) SO 140 0 min 0,000 mm 0,0 UV-I 47 W/m 11,4 C 4,8 km/h (1 Bft)
07.08.2016 16:22 21,0 C 21,1 C 55 % 1026,0 hPa 0,0 mm 2,5 km/h (1 Bft) SO 138 0 min 0,000 mm 0,0 UV-I 47 W/m 11,6 C 4,8 km/h (1 Bft)
07.08.2016 16:23 20,9 C 21,0 C 56 % 1026,0 hPa 0,0 mm 1,9 km/h (1 Bft) N-NO 31 0 min 0,000 mm 0,0 UV-I 47 W/m 11,8 C 3,2 km/h (1 Bft)
07.08.2016 16:24 21,0 C 21,0 C 57 % 1025,9 hPa 0,0 mm 4,2 km/h (1 Bft) O 100 0 min 0,000 mm 0,0 UV-I 47 W/m 12,1 C 12,9 km/h (3 Bft)
07.08.2016 16:25 21,0 C 21,0 C 61 % 1026,0 hPa 0,0 mm 6,6 km/h (2 Bft) N 5 0 min 0,000 mm 0,0 UV-I 47 W/m 13,2 C 11,3 km/h (2 Bft)
07.08.2016 16:26 21,0 C 21,0 C 57 % 1026,0 hPa 0,0 mm 5,8 km/h (2 Bft) N-NO 12 0 min 0,000 mm 0,0 UV-I 46 W/m 12,1 C 6,4 km/h (2 Bft)
07.08.2016 16:27 21,1 C 21,1 C 56 % 1025,9 hPa 0,0 mm 6,2 km/h (2 Bft) N-NO 29 0 min 0,000 mm 0,0 UV-I 44 W/m 12,0 C 9,7 km/h (2 Bft)
07.08.2016 16:28 21,1 C 21,1 C 58 % 1025,9 hPa 0,0 mm 6,0 km/h (2 Bft) N 11 0 min 0,000 mm 0,0 UV-I 44 W/m 12,5 C 8,0 km/h (2 Bft)
07.08.2016 16:29 21,2 C 21,2 C 58 % 1025,8 hPa 0,0 mm 6,0 km/h (2 Bft) N-NO 22 0 min 0,000 mm 0,0 UV-I 44 W/m 12,6 C 9,7 km/h (2 Bft)
07.08.2016 16:30 21,3 C 21,3 C 60 % 1025,8 hPa 0,0 mm 4,1 km/h (1 Bft) N-NO 27 0 min 0,000 mm 0,0 UV-I 44 W/m 13,2 C 6,4 km/h (2 Bft)
07.08.2016 16:31 21,3 C 21,3 C 62 % 1025,8 hPa 0,0 mm 3,4 km/h (1 Bft) O 101 0 min 0,000 mm 0,0 UV-I 44 W/m 13,7 C 4,8 km/h (1 Bft)
07.08.2016 16:32 21,3 C 21,3 C 61 % 1025,8 hPa 0,0 mm 5,4 km/h (1 Bft) S-SO 152 0 min 0,000 mm 0,0 UV-I 44 W/m 13,5 C 8,0 km/h (2 Bft)
07.08.2016 16:33 21,1 C 21,3 C 58 % 1025,8 hPa 0,0 mm 2,1 km/h (1 Bft) SO 132 0 min 0,000 mm 0,0 UV-I 44 W/m 12,5 C 3,2 km/h (1 Bft)
07.08.2016 16:34 21,0 C 21,1 C 57 % 1025,8 hPa 0,0 mm 3,0 km/h (1 Bft) O-SO 107 0 min 0,000 mm 0,0 UV-I 44 W/m 12,1 C 4,8 km/h (1 Bft)
07.08.2016 16:35 21,0 C 21,0 C 58 % 1025,8 hPa 0,0 mm 5,4 km/h (1 Bft) NO 50 0 min 0,000 mm 0,0 UV-I 44 W/m 12,4 C 8,0 km/h (2 Bft)
07.08.2016 16:36 21,0 C 21,0 C 58 % 1025,8 hPa 0,0 mm 6,6 km/h (2 Bft) NO 41 0 min 0,000 mm 0,0 UV-I 44 W/m 12,4 C 12,9 km/h (3 Bft)
07.08.2016 16:37 21,0 C 21,0 C 56 % 1025,8 hPa 0,0 mm 9,5 km/h (2 Bft) O-NO 59 0 min 0,000 mm 0,0 UV-I 44 W/m 11,9 C 19,3 km/h (3 Bft)
07.08.2016 16:38 21,1 C 21,1 C 60 % 1025,8 hPa 0,0 mm 5,3 km/h (1 Bft) O 86 0 min 0,000 mm 0,0 UV-I 44 W/m 13,0 C 12,9 km/h (3 Bft)
07.08.2016 16:39 21,0 C 21,1 C 60 % 1025,8 hPa 0,0 mm 3,8 km/h (1 Bft) O-NO 73 0 min 0,000 mm 0,0 UV-I 46 W/m 12,9 C 9,7 km/h (2 Bft)
07.08.2016 16:40 21,1 C 21,1 C 59 % 1025,8 hPa 0,0 mm 7,9 km/h (2 Bft) O-NO 77 0 min 0,000 mm 0,0 UV-I 46 W/m 12,8 C 12,9 km/h (3 Bft)
07.08.2016 16:41 21,1 C 21,1 C 60 % 1025,8 hPa 0,0 mm 6,3 km/h (2 Bft) O 85 0 min 0,000 mm 0,0 UV-I 47 W/m 13,0 C 12,9 km/h (3 Bft)
07.08.2016 16:42 21,0 C 21,1 C 56 % 1025,8 hPa 0,0 mm 3,6 km/h (1 Bft) O 86 0 min 0,000 mm 0,0 UV-I 46 W/m 11,9 C 4,8 km/h (1 Bft)
07.08.2016 16:43 20,9 C 21,0 C 56 % 1025,8 hPa 0,0 mm 3,2 km/h (1 Bft) NO 48 0 min 0,000 mm 0,0 UV-I 46 W/m 11,8 C 4,8 km/h (1 Bft)
07.08.2016 16:44 20,9 C 20,9 C 58 % 1025,8 hPa 0,0 mm 5,1 km/h (1 Bft) N-NO 22 0 min 0,000 mm 0,0 UV-I 49 W/m 12,3 C 9,7 km/h (2 Bft)
07.08.2016 16:45 21,0 C 21,0 C 57 % 1025,8 hPa 0,0 mm 4,8 km/h (1 Bft) N-NO 30 0 min 0,000 mm 0,0 UV-I 44 W/m 12,1 C 8,0 km/h (2 Bft)
07.08.2016 16:46 21,1 C 21,1 C 57 % 1025,8 hPa 0,0 mm 6,4 km/h (2 Bft) O 90 0 min 0,000 mm 0,0 UV-I 44 W/m 12,2 C 11,3 km/h (2 Bft)
07.08.2016 16:47 21,1 C 21,1 C 58 % 1025,8 hPa 0,0 mm 7,3 km/h (2 Bft) NW 326 0 min 0,000 mm 0,0 UV-I 42 W/m 12,5 C 11,3 km/h (2 Bft)
07.08.2016 16:48 21,1 C 21,1 C 56 % 1025,8 hPa 0,0 mm 4,4 km/h (1 Bft) NO 51 0 min 0,000 mm 0,0 UV-I 42 W/m 12,0 C 6,4 km/h (2 Bft)
07.08.2016 16:49 21,1 C 21,1 C 56 % 1025,8 hPa 0,0 mm 4,4 km/h (1 Bft) N-NW 335 0 min 0,000 mm 0,0 UV-I 42 W/m 12,0 C 9,7 km/h (2 Bft)
07.08.2016 16:50 21,1 C 21,1 C 56 % 1025,8 hPa 0,0 mm 4,8 km/h (1 Bft) NW 319 0 min 0,000 mm 0,0 UV-I 42 W/m 12,0 C 8,0 km/h (2 Bft)
07.08.2016 16:51 21,1 C 21,1 C 57 % 1025,8 hPa 0,0 mm 6,8 km/h (2 Bft) N 355 0 min 0,000 mm 0,0 UV-I 42 W/m 12,2 C 12,9 km/h (3 Bft)
07.08.2016 16:52 21,1 C 21,1 C 57 % 1025,8 hPa 0,0 mm 6,3 km/h (2 Bft) N-NO 15 0 min 0,000 mm 0,0 UV-I 42 W/m 12,2 C 9,7 km/h (2 Bft)
07.08.2016 16:53 21,2 C 21,2 C 59 % 1025,8 hPa 0,0 mm 6,7 km/h (2 Bft) N 355 0 min 0,000 mm 0,0 UV-I 42 W/m 12,9 C 12,9 km/h (3 Bft)
07.08.2016 16:54 21,2 C 21,2 C 57 % 1025,8 hPa 0,0 mm 8,4 km/h (2 Bft) O-NO 60 0 min 0,000 mm 0,0 UV-I 42 W/m 12,3 C 12,9 km/h (3 Bft)
07.08.2016 16:55 21,2 C 21,2 C 57 % 1025,8 hPa 0,0 mm 5,6 km/h (1 Bft) O 89 0 min 0,000 mm 0,0 UV-I 46 W/m 12,3 C 8,0 km/h (2 Bft)
07.08.2016 16:56 21,2 C 21,2 C 56 % 1025,8 hPa 0,0 mm 4,4 km/h (1 Bft) NO 48 0 min 0,000 mm 0,0 UV-I 42 W/m 12,1 C 6,4 km/h (2 Bft)
07.08.2016 16:57 21,2 C 21,2 C 58 % 1025,7 hPa 0,0 mm 6,0 km/h (2 Bft) NO 34 0 min 0,000 mm 0,0 UV-I 42 W/m 12,6 C 11,3 km/h (2 Bft)
07.08.2016 16:58 21,2 C 21,2 C 56 % 1025,8 hPa 0,0 mm 8,0 km/h (2 Bft) NO 48 0 min 0,000 mm 0,0 UV-I 42 W/m 12,1 C 11,3 km/h (2 Bft)
07.08.2016 16:59 21,2 C 21,2 C 56 % 1025,8 hPa 0,0 mm 6,4 km/h (2 Bft) O-NO 59 0 min 0,000 mm 0,0 UV-I 42 W/m 12,1 C 9,7 km/h (2 Bft)
07.08.2016 17:00 21,2 C 21,2 C 55 % 1025,8 hPa 0,0 mm 4,3 km/h (1 Bft) N 5 0 min 0,000 mm 0,0 UV-I 49 W/m 11,8 C 6,4 km/h (2 Bft)
07.08.2016 17:01 21,2 C 21,3 C 57 % 1025,8 hPa 0,0 mm 2,5 km/h (1 Bft) N 11 0 min 0,152 mm 0,0 UV-I 46 W/m 12,3 C 3,2 km/h (1 Bft)
07.08.2016 17:02 21,2 C 21,3 C 56 % 1025,8 hPa 0,0 mm 5,0 km/h (1 Bft) NO 54 0 min 0,001 mm 0,0 UV-I 44 W/m 12,1 C 9,7 km/h (2 Bft)
07.08.2016 17:03 21,2 C 21,2 C 54 % 1025,8 hPa 0,0 mm 5,6 km/h (1 Bft) N-NO 28 0 min 0,000 mm 0,0 UV-I 44 W/m 11,5 C 8,0 km/h (2 Bft)
07.08.2016 17:04 21,2 C 21,2 C 56 % 1025,7 hPa 0,0 mm 5,2 km/h (1 Bft) O-NO 78 0 min 0,000 mm 0,0 UV-I 42 W/m 12,1 C 6,4 km/h (2 Bft)
07.08.2016 17:05 21,2 C 21,2 C 57 % 1025,8 hPa 0,0 mm 4,4 km/h (1 Bft) O-NO 61 0 min 0,000 mm 0,0 UV-I 42 W/m 12,3 C 9,7 km/h (2 Bft)
07.08.2016 17:06 21,1 C 21,2 C 55 % 1025,8 hPa 0,0 mm 5,0 km/h (1 Bft) O 94 0 min 0,000 mm 0,0 UV-I 42 W/m 11,7 C 6,4 km/h (2 Bft)
07.08.2016 17:07 21,0 C 21,1 C 55 % 1025,8 hPa 0,0 mm 3,2 km/h (1 Bft) O-NO 59 0 min 0,000 mm 0,0 UV-I 42 W/m 11,6 C 4,8 km/h (1 Bft)
07.08.2016 17:08 21,1 C 21,1 C 55 % 1025,8 hPa 0,0 mm 3,6 km/h (1 Bft) N-NW 341 0 min 0,000 mm 0,0 UV-I 49 W/m 11,7 C 4,8 km/h (1 Bft)
07.08.2016 17:09 21,0 C 21,1 C 57 % 1025,7 hPa 0,0 mm 1,9 km/h (1 Bft) NO 36 0 min 0,000 mm 0,0 UV-I 53 W/m 12,1 C 4,8 km/h (1 Bft)
07.08.2016 17:10 20,9 C 21,0 C 57 % 1025,7 hPa 0,0 mm 4,2 km/h (1 Bft) O 86 0 min 0,000 mm 0,0 UV-I 46 W/m 12,1 C 6,4 km/h (2 Bft)
07.08.2016 17:11 21,0 C 21,0 C 57 % 1025,7 hPa 0,0 mm 4,2 km/h (1 Bft) N-NW 342 0 min 0,000 mm 0,0 UV-I 42 W/m 12,1 C 6,4 km/h (2 Bft)
07.08.2016 17:12 21,1 C 21,1 C 57 % 1025,6 hPa 0,0 mm 3,6 km/h (1 Bft) N-NW 334 0 min 0,000 mm 0,0 UV-I 42 W/m 12,2 C 4,8 km/h (1 Bft)
07.08.2016 17:13 21,1 C 21,1 C 57 % 1025,6 hPa 0,0 mm 3,4 km/h (1 Bft) N-NW 331 0 min 0,000 mm 0,0 UV-I 47 W/m 12,2 C 4,8 km/h (1 Bft)
07.08.2016 17:14 21,1 C 21,1 C 56 % 1025,6 hPa 0,0 mm 2,4 km/h (1 Bft) NW 321 0 min 0,000 mm 0,0 UV-I 40 W/m 12,0 C 4,8 km/h (1 Bft)
07.08.2016 17:15 21,0 C 21,1 C 58 % 1025,6 hPa 0,0 mm 3,6 km/h (1 Bft) O-NO 74 0 min 0,000 mm 0,0 UV-I 40 W/m 12,4 C 6,4 km/h (2 Bft)
07.08.2016 17:16 21,0 C 21,0 C 57 % 1025,6 hPa 0,0 mm 5,2 km/h (1 Bft) NO 44 0 min 0,000 mm 0,0 UV-I 40 W/m 12,1 C 8,0 km/h (2 Bft)
07.08.2016 17:17 21,1 C 21,1 C 58 % 1025,6 hPa 0,0 mm 8,6 km/h (2 Bft) O-NO 57 0 min 0,000 mm 0,0 UV-I 40 W/m 12,5 C 14,5 km/h (3 Bft)
07.08.2016 17:18 21,1 C 21,1 C 57 % 1025,5 hPa 0,0 mm 6,4 km/h (2 Bft) O-NO 66 0 min 0,000 mm 0,0 UV-I 40 W/m 12,2 C 12,9 km/h (3 Bft)
07.08.2016 17:19 21,1 C 21,1 C 58 % 1025,5 hPa 0,0 mm 8,3 km/h (2 Bft) O-NO 60 0 min 0,000 mm 0,0 UV-I 51 W/m 12,5 C 9,7 km/h (2 Bft)
07.08.2016 17:20 21,1 C 21,1 C 60 % 1025,5 hPa 0,0 mm 4,3 km/h (1 Bft) O 92 0 min 0,000 mm 0,0 UV-I 47 W/m 13,0 C 8,0 km/h (2 Bft)
07.08.2016 17:21 21,1 C 21,1 C 59 % 1025,5 hPa 0,0 mm 3,6 km/h (1 Bft) NO 49 0 min 0,000 mm 0,0 UV-I 40 W/m 12,8 C 4,8 km/h (1 Bft)
07.08.2016 17:22 21,1 C 21,1 C 60 % 1025,5 hPa 0,0 mm 4,2 km/h (1 Bft) NO 54 0 min 0,000 mm 0,0 UV-I 40 W/m 13,0 C 6,4 km/h (2 Bft)
07.08.2016 17:23 21,2 C 21,2 C 60 % 1025,5 hPa 0,0 mm 6,2 km/h (2 Bft) N-NO 26 0 min 0,000 mm 0,0 UV-I 42 W/m 13,1 C 9,7 km/h (2 Bft)
07.08.2016 17:24 21,3 C 21,3 C 60 % 1025,5 hPa 0,0 mm 8,4 km/h (2 Bft) NO 51 0 min 0,000 mm 0,0 UV-I 44 W/m 13,2 C 16,1 km/h (3 Bft)
07.08.2016 17:25 21,3 C 21,3 C 57 % 1025,5 hPa 0,0 mm 6,2 km/h (2 Bft) O-NO 65 0 min 0,000 mm 0,0 UV-I 44 W/m 12,4 C 9,7 km/h (2 Bft)
07.08.2016 17:26 21,3 C 21,3 C 56 % 1025,5 hPa 0,0 mm 8,3 km/h (2 Bft) O 83 0 min 0,000 mm 0,0 UV-I 40 W/m 12,2 C 12,9 km/h (3 Bft)
07.08.2016 17:27 21,2 C 21,3 C 57 % 1025,5 hPa 0,0 mm 6,0 km/h (2 Bft) N 11 0 min 0,000 mm 0,0 UV-I 39 W/m 12,3 C 11,3 km/h (2 Bft)
07.08.2016 17:28 21,3 C 21,3 C 57 % 1025,5 hPa 0,0 mm 3,8 km/h (1 Bft) NO 35 0 min 0,000 mm 0,0 UV-I 39 W/m 12,4 C 8,0 km/h (2 Bft)
07.08.2016 17:29 21,3 C 21,3 C 58 % 1025,5 hPa 0,0 mm 4,5 km/h (1 Bft) NO 38 0 min 0,000 mm 0,0 UV-I 40 W/m 12,7 C 6,4 km/h (2 Bft)
07.08.2016 17:30 21,3 C 21,3 C 56 % 1025,5 hPa 0,0 mm 4,4 km/h (1 Bft) O 80 0 min 0,000 mm 0,0 UV-I 39 W/m 12,2 C 6,4 km/h (2 Bft)
07.08.2016 17:31 21,2 C 21,3 C 59 % 1025,5 hPa 0,0 mm 3,0 km/h (1 Bft) NO 43 0 min 0,000 mm 0,0 UV-I 39 W/m 12,9 C 4,8 km/h (1 Bft)
07.08.2016 17:32 21,2 C 21,2 C 57 % 1025,5 hPa 0,0 mm 4,0 km/h (1 Bft) O-NO 71 0 min 0,000 mm 0,0 UV-I 39 W/m 12,3 C 9,7 km/h (2 Bft)
07.08.2016 17:33 21,2 C 21,2 C 58 % 1025,5 hPa 0,0 mm 7,0 km/h (2 Bft) NO 42 0 min 0,000 mm 0,0 UV-I 39 W/m 12,6 C 11,3 km/h (2 Bft)
07.08.2016 17:34 21,1 C 21,2 C 57 % 1025,5 hPa 0,0 mm 6,9 km/h (2 Bft) O 80 0 min 0,000 mm 0,0 UV-I 39 W/m 12,2 C 9,7 km/h (2 Bft)
07.08.2016 17:35 21,1 C 21,1 C 57 % 1025,5 hPa 0,0 mm 4,9 km/h (1 Bft) NO 54 0 min 0,000 mm 0,0 UV-I 39 W/m 12,2 C 11,3 km/h (2 Bft)
07.08.2016 17:36 21,1 C 21,1 C 56 % 1025,5 hPa 0,0 mm 3,5 km/h (1 Bft) N-NO 24 0 min 0,000 mm 0,0 UV-I 39 W/m 12,0 C 6,4 km/h (2 Bft)
07.08.2016 17:37 21,1 C 21,1 C 58 % 1025,4 hPa 0,0 mm 4,1 km/h (1 Bft) NO 46 0 min 0,000 mm 0,0 UV-I 39 W/m 12,5 C 6,4 km/h (2 Bft)
07.08.2016 17:38 21,1 C 21,1 C 56 % 1025,4 hPa 0,0 mm 4,0 km/h (1 Bft) N 9 0 min 0,000 mm 0,0 UV-I 40 W/m 12,0 C 6,4 km/h (2 Bft)
07.08.2016 17:39 21,1 C 21,1 C 56 % 1025,4 hPa 0,0 mm 1,3 km/h (1 Bft) N 9 0 min 0,000 mm 0,0 UV-I 39 W/m 12,0 C 3,2 km/h (1 Bft)
07.08.2016 17:40 21,1 C 21,1 C 57 % 1025,4 hPa 0,0 mm 3,6 km/h (1 Bft) NO 50 0 min 0,000 mm 0,0 UV-I 37 W/m 12,2 C 6,4 km/h (2 Bft)
07.08.2016 17:41 21,0 C 21,1 C 56 % 1025,4 hPa 0,0 mm 3,7 km/h (1 Bft) NW 313 0 min 0,000 mm 0,0 UV-I 37 W/m 11,9 C 6,4 km/h (2 Bft)
07.08.2016 17:42 21,0 C 21,0 C 57 % 1025,4 hPa 0,0 mm 4,9 km/h (1 Bft) O-NO 58 0 min 0,000 mm 0,0 UV-I 39 W/m 12,1 C 8,0 km/h (2 Bft)
07.08.2016 17:43 21,1 C 21,1 C 58 % 1025,4 hPa 0,0 mm 4,2 km/h (1 Bft) N-NO 19 0 min 0,000 mm 0,0 UV-I 37 W/m 12,5 C 6,4 km/h (2 Bft)
07.08.2016 17:44 21,2 C 21,2 C 58 % 1025,4 hPa 0,0 mm 3,8 km/h (1 Bft) N-NW 329 0 min 0,000 mm 0,0 UV-I 37 W/m 12,6 C 6,4 km/h (2 Bft)
07.08.2016 17:45 21,2 C 21,2 C 56 % 1025,3 hPa 0,0 mm 3,0 km/h (1 Bft) N-NW 340 0 min 0,000 mm 0,0 UV-I 37 W/m 12,1 C 4,8 km/h (1 Bft)
07.08.2016 17:46 21,1 C 21,2 C 57 % 1025,3 hPa 0,0 mm 1,3 km/h (1 Bft) N-NW 340 0 min 0,000 mm 0,0 UV-I 37 W/m 12,2 C 1,6 km/h (1 Bft)
07.08.2016 17:47 21,1 C 21,1 C 57 % 1025,3 hPa 0,0 mm 1,9 km/h (1 Bft) N-NW 340 0 min 0,000 mm 0,0 UV-I 37 W/m 12,2 C 3,2 km/h (1 Bft)
07.08.2016 17:48 21,2 C 21,2 C 57 % 1025,3 hPa 0,0 mm 3,6 km/h (1 Bft) N-NO 15 0 min 0,000 mm 0,0 UV-I 37 W/m 12,3 C 4,8 km/h (1 Bft)
07.08.2016 17:49 21,2 C 21,2 C 57 % 1025,3 hPa 0,0 mm 5,0 km/h (1 Bft) NO 42 0 min 0,000 mm 0,0 UV-I 37 W/m 12,3 C 8,0 km/h (2 Bft)
07.08.2016 17:50 21,2 C 21,2 C 56 % 1025,3 hPa 0,0 mm 2,4 km/h (1 Bft) O-NO 72 0 min 0,000 mm 0,0 UV-I 37 W/m 12,1 C 4,8 km/h (1 Bft)
07.08.2016 17:51 21,2 C 21,2 C 58 % 1025,3 hPa 0,0 mm 4,6 km/h (1 Bft) N-NO 27 0 min 0,000 mm 0,0 UV-I 37 W/m 12,6 C 6,4 km/h (2 Bft)
07.08.2016 17:52 21,2 C 21,2 C 58 % 1025,3 hPa 0,0 mm 5,4 km/h (1 Bft) NO 54 0 min 0,000 mm 0,0 UV-I 35 W/m 12,6 C 9,7 km/h (2 Bft)
07.08.2016 17:53 21,1 C 21,2 C 58 % 1025,3 hPa 0,0 mm 2,7 km/h (1 Bft) NO 54 0 min 0,000 mm 0,0 UV-I 35 W/m 12,5 C 4,8 km/h (1 Bft)
07.08.2016 17:54 21,1 C 21,1 C 58 % 1025,2 hPa 0,0 mm 4,0 km/h (1 Bft) O-NO 69 0 min 0,000 mm 0,0 UV-I 35 W/m 12,5 C 6,4 km/h (2 Bft)
07.08.2016 17:55 21,0 C 21,1 C 57 % 1025,2 hPa 0,0 mm 6,3 km/h (2 Bft) O-NO 63 0 min 0,000 mm 0,0 UV-I 35 W/m 12,1 C 9,7 km/h (2 Bft)
07.08.2016 17:56 21,0 C 21,1 C 59 % 1025,2 hPa 0,0 mm 3,2 km/h (1 Bft) N-NO 30 0 min 0,000 mm 0,0 UV-I 35 W/m 12,7 C 4,8 km/h (1 Bft)
07.08.2016 17:57 21,0 C 21,0 C 59 % 1025,2 hPa 0,0 mm 9,1 km/h (2 Bft) N 360 0 min 0,000 mm 0,0 UV-I 40 W/m 12,7 C 14,5 km/h (3 Bft)
07.08.2016 17:58 21,1 C 21,1 C 58 % 1025,1 hPa 0,0 mm 8,4 km/h (2 Bft) NO 55 0 min 0,000 mm 0,0 UV-I 37 W/m 12,5 C 14,5 km/h (3 Bft)
07.08.2016 17:59 21,1 C 21,1 C 59 % 1025,2 hPa 0,0 mm 4,8 km/h (1 Bft) O-NO 67 0 min 0,000 mm 0,0 UV-I 35 W/m 12,8 C 9,7 km/h (2 Bft)
07.08.2016 18:00 21,1 C 21,1 C 59 % 1025,2 hPa 0,0 mm 4,5 km/h (1 Bft) N-NO 15 0 min 0,050 mm 0,0 UV-I 35 W/m 12,8 C 8,0 km/h (2 Bft)
07.08.2016 18:01 21,1 C 21,1 C 61 % 1025,2 hPa 0,0 mm 1,6 km/h (1 Bft) N-NO 19 0 min 0,000 mm 0,0 UV-I 37 W/m 13,3 C 3,2 km/h (1 Bft)
07.08.2016 18:02 21,0 C 21,1 C 60 % 1025,2 hPa 0,0 mm 3,1 km/h (1 Bft) O-SO 105 0 min 0,000 mm 0,0 UV-I 40 W/m 12,9 C 6,4 km/h (2 Bft)
07.08.2016 18:03 20,9 C 21,0 C 58 % 1025,2 hPa 0,0 mm 3,7 km/h (1 Bft) N-NO 19 0 min 0,000 mm 0,0 UV-I 35 W/m 12,3 C 4,8 km/h (1 Bft)
07.08.2016 18:04 20,9 C 20,9 C 58 % 1025,1 hPa 0,0 mm 4,2 km/h (1 Bft) O-NO 77 0 min 0,000 mm 0,0 UV-I 35 W/m 12,3 C 6,4 km/h (2 Bft)
07.08.2016 18:05 20,9 C 20,9 C 58 % 1025,1 hPa 0,0 mm 2,8 km/h (1 Bft) O 81 0 min 0,000 mm 0,0 UV-I 35 W/m 12,3 C 4,8 km/h (1 Bft)
07.08.2016 18:06 20,9 C 21,0 C 59 % 1025,1 hPa 0,0 mm 4,0 km/h (1 Bft) O-NO 65 0 min 0,000 mm 0,0 UV-I 35 W/m 12,6 C 6,4 km/h (2 Bft)
07.08.2016 18:07 21,0 C 21,0 C 58 % 1025,1 hPa 0,0 mm 2,7 km/h (1 Bft) NO 44 0 min 0,000 mm 0,0 UV-I 44 W/m 12,4 C 3,2 km/h (1 Bft)
07.08.2016 18:08 21,0 C 21,0 C 58 % 1025,1 hPa 0,0 mm 5,2 km/h (1 Bft) NO 40 0 min 0,000 mm 0,0 UV-I 37 W/m 12,4 C 8,0 km/h (2 Bft)
07.08.2016 18:09 21,0 C 21,0 C 56 % 1025,1 hPa 0,0 mm 8,5 km/h (2 Bft) N-NO 18 0 min 0,000 mm 0,0 UV-I 42 W/m 11,9 C 12,9 km/h (3 Bft)
07.08.2016 18:10 21,1 C 21,1 C 56 % 1025,1 hPa 0,0 mm 4,1 km/h (1 Bft) N-NO 28 0 min 0,000 mm 0,0 UV-I 35 W/m 12,0 C 6,4 km/h (2 Bft)
07.08.2016 18:11 21,1 C 21,1 C 55 % 1025,1 hPa 0,0 mm 3,3 km/h (1 Bft) NO 35 0 min 0,000 mm 0,0 UV-I 35 W/m 11,7 C 4,8 km/h (1 Bft)
07.08.2016 18:12 21,1 C 21,1 C 56 % 1025,1 hPa 0,0 mm 4,1 km/h (1 Bft) O-NO 76 0 min 0,000 mm 0,0 UV-I 37 W/m 12,0 C 4,8 km/h (1 Bft)
07.08.2016 18:13 20,9 C 21,1 C 59 % 1025,0 hPa 0,0 mm 3,4 km/h (1 Bft) O-NO 59 0 min 0,000 mm 0,0 UV-I 35 W/m 12,6 C 4,8 km/h (1 Bft)
07.08.2016 18:14 20,9 C 20,9 C 58 % 1025,0 hPa 0,0 mm 3,3 km/h (1 Bft) NO 44 0 min 0,000 mm 0,0 UV-I 40 W/m 12,3 C 6,4 km/h (2 Bft)
07.08.2016 18:15 20,9 C 20,9 C 58 % 1025,0 hPa 0,0 mm 4,8 km/h (1 Bft) O-NO 67 0 min 0,000 mm 0,0 UV-I 35 W/m 12,3 C 9,7 km/h (2 Bft)
07.08.2016 18:16 20,9 C 20,9 C 60 % 1025,0 hPa 0,0 mm 5,6 km/h (1 Bft) N-NO 26 0 min 0,000 mm 0,0 UV-I 33 W/m 12,8 C 8,0 km/h (2 Bft)
07.08.2016 18:17 20,9 C 20,9 C 58 % 1025,0 hPa 0,0 mm 5,4 km/h (1 Bft) O-NO 66 0 min 0,000 mm 0,0 UV-I 33 W/m 12,3 C 6,4 km/h (2 Bft)
07.08.2016 18:18 20,9 C 20,9 C 58 % 1025,0 hPa 0,0 mm 5,2 km/h (1 Bft) O-NO 67 0 min 0,000 mm 0,0 UV-I 33 W/m 12,3 C 9,7 km/h (2 Bft)
07.08.2016 18:19 20,9 C 20,9 C 59 % 1025,0 hPa 0,0 mm 6,5 km/h (2 Bft) NO 36 0 min 0,000 mm 0,0 UV-I 37 W/m 12,6 C 11,3 km/h (2 Bft)
07.08.2016 18:20 20,9 C 20,9 C 57 % 1025,0 hPa 0,0 mm 8,6 km/h (2 Bft) NO 38 0 min 0,000 mm 0,0 UV-I 33 W/m 12,1 C 12,9 km/h (3 Bft)
07.08.2016 18:21 20,9 C 20,9 C 56 % 1025,0 hPa 0,0 mm 5,9 km/h (2 Bft) O-NO 74 0 min 0,000 mm 0,0 UV-I 44 W/m 11,8 C 8,0 km/h (2 Bft)
07.08.2016 18:22 21,0 C 21,0 C 57 % 1025,0 hPa 0,0 mm 4,0 km/h (1 Bft) NO 55 0 min 0,000 mm 0,0 UV-I 44 W/m 12,1 C 6,4 km/h (2 Bft)
07.08.2016 18:23 21,0 C 21,0 C 57 % 1025,0 hPa 0,0 mm 4,2 km/h (1 Bft) N-NO 20 0 min 0,000 mm 0,0 UV-I 39 W/m 12,1 C 8,0 km/h (2 Bft)
07.08.2016 18:24 21,0 C 21,0 C 55 % 1024,9 hPa 0,0 mm 4,0 km/h (1 Bft) NO 46 0 min 0,000 mm 0,0 UV-I 42 W/m 11,6 C 6,4 km/h (2 Bft)
07.08.2016 18:25 21,0 C 21,0 C 55 % 1024,9 hPa 0,0 mm 2,7 km/h (1 Bft) N-NO 30 0 min 0,000 mm 0,0 UV-I 35 W/m 11,6 C 4,8 km/h (1 Bft)
07.08.2016 18:26 21,0 C 21,0 C 55 % 1024,8 hPa 0,0 mm 2,6 km/h (1 Bft) N-NO 30 0 min 0,000 mm 0,0 UV-I 33 W/m 11,6 C 4,8 km/h (1 Bft)
07.08.2016 18:27 21,0 C 21,0 C 55 % 1024,9 hPa 0,0 mm 3,5 km/h (1 Bft) NO 45 0 min 0,000 mm 0,0 UV-I 33 W/m 11,6 C 6,4 km/h (2 Bft)
07.08.2016 18:28 20,9 C 21,0 C 57 % 1024,8 hPa 0,0 mm 3,2 km/h (1 Bft) N-NO 33 0 min 0,000 mm 0,0 UV-I 33 W/m 12,1 C 6,4 km/h (2 Bft)
07.08.2016 18:29 20,9 C 20,9 C 56 % 1024,8 hPa 0,0 mm 3,2 km/h (1 Bft) O 86 0 min 0,000 mm 0,0 UV-I 33 W/m 11,8 C 4,8 km/h (1 Bft)
07.08.2016 18:30 21,1 C 21,1 C 60 % 1024,8 hPa 0,0 mm 2,9 km/h (1 Bft) O-NO 78 0 min 0,000 mm 0,0 UV-I 32 W/m 13,0 C 6,4 km/h (2 Bft)
07.08.2016 18:31 21,0 C 21,1 C 57 % 1024,8 hPa 0,0 mm 1,8 km/h (1 Bft) O 80 0 min 0,000 mm 0,0 UV-I 32 W/m 12,1 C 4,8 km/h (1 Bft)
07.08.2016 18:32 20,9 C 21,0 C 60 % 1024,8 hPa 0,0 mm 2,7 km/h (1 Bft) O 101 0 min 0,000 mm 0,0 UV-I 32 W/m 12,8 C 3,2 km/h (1 Bft)
07.08.2016 18:33 20,8 C 20,9 C 60 % 1024,8 hPa 0,0 mm 4,2 km/h (1 Bft) O-NO 75 0 min 0,000 mm 0,0 UV-I 32 W/m 12,7 C 6,4 km/h (2 Bft)
07.08.2016 18:34 20,7 C 20,8 C 60 % 1024,8 hPa 0,0 mm 2,9 km/h (1 Bft) O 99 0 min 0,000 mm 0,0 UV-I 32 W/m 12,7 C 6,4 km/h (2 Bft)
07.08.2016 18:35 20,7 C 20,7 C 59 % 1024,8 hPa 0,0 mm 4,0 km/h (1 Bft) O-SO 102 0 min 0,000 mm 0,0 UV-I 32 W/m 12,4 C 9,7 km/h (2 Bft)
07.08.2016 18:36 20,6 C 20,7 C 60 % 1024,8 hPa 0,0 mm 2,6 km/h (1 Bft) O-NO 59 0 min 0,000 mm 0,0 UV-I 32 W/m 12,6 C 4,8 km/h (1 Bft)
07.08.2016 18:37 20,6 C 20,6 C 60 % 1024,8 hPa 0,0 mm 2,9 km/h (1 Bft) N-NO 25 0 min 0,000 mm 0,0 UV-I 35 W/m 12,6 C 4,8 km/h (1 Bft)
07.08.2016 18:38 20,6 C 20,6 C 62 % 1024,7 hPa 0,0 mm 3,2 km/h (1 Bft) NO 47 0 min 0,000 mm 0,0 UV-I 44 W/m 13,1 C 4,8 km/h (1 Bft)
07.08.2016 18:39 20,5 C 20,6 C 62 % 1024,7 hPa 0,0 mm 1,9 km/h (1 Bft) O-NO 76 0 min 0,000 mm 0,0 UV-I 39 W/m 13,0 C 3,2 km/h (1 Bft)
07.08.2016 18:40 20,4 C 20,5 C 65 % 1024,7 hPa 0,0 mm 0,3 km/h (0 Bft) O-NO 76 0 min 0,000 mm 0,0 UV-I 33 W/m 13,6 C 1,6 km/h (1 Bft)
07.08.2016 18:41 20,4 C 20,4 C 60 % 1024,8 hPa 0,0 mm 0,3 km/h (0 Bft) O-NO 76 0 min 0,000 mm 0,0 UV-I 33 W/m 12,4 C 1,6 km/h (1 Bft)
07.08.2016 18:42 20,4 C 20,4 C 60 % 1024,7 hPa 0,0 mm 2,0 km/h (1 Bft) O-NO 67 0 min 0,000 mm 0,0 UV-I 42 W/m 12,4 C 3,2 km/h (1 Bft)
07.08.2016 18:43 20,4 C 20,5 C 64 % 1024,7 hPa 0,0 mm 3,8 km/h (1 Bft) O 88 0 min 0,000 mm 0,0 UV-I 42 W/m 13,4 C 6,4 km/h (2 Bft)
07.08.2016 18:44 20,4 C 20,4 C 60 % 1024,7 hPa 0,0 mm 3,3 km/h (1 Bft) O-NO 61 0 min 0,000 mm 0,0 UV-I 33 W/m 12,4 C 6,4 km/h (2 Bft)
07.08.2016 18:45 20,4 C 20,4 C 60 % 1024,7 hPa 0,0 mm 6,3 km/h (2 Bft) O-NO 76 0 min 0,000 mm 0,0 UV-I 32 W/m 12,4 C 8,0 km/h (2 Bft)
07.08.2016 18:46 20,5 C 20,5 C 58 % 1024,7 hPa 0,0 mm 4,6 km/h (1 Bft) NO 53 0 min 0,000 mm 0,0 UV-I 32 W/m 11,9 C 8,0 km/h (2 Bft)
07.08.2016 18:47 20,6 C 20,6 C 60 % 1024,7 hPa 0,0 mm 3,1 km/h (1 Bft) N-NO 20 0 min 0,000 mm 0,0 UV-I 32 W/m 12,6 C 6,4 km/h (2 Bft)
07.08.2016 18:48 20,7 C 20,7 C 57 % 1024,7 hPa 0,0 mm 3,7 km/h (1 Bft) O-NO 65 0 min 0,000 mm 0,0 UV-I 30 W/m 11,9 C 6,4 km/h (2 Bft)
07.08.2016 18:49 20,7 C 20,7 C 55 % 1024,7 hPa 0,0 mm 2,3 km/h (1 Bft) N-NO 33 0 min 0,000 mm 0,0 UV-I 30 W/m 11,3 C 6,4 km/h (2 Bft)
07.08.2016 18:50 20,7 C 20,7 C 56 % 1024,6 hPa 0,0 mm 0,3 km/h (0 Bft) N-NO 33 0 min 0,000 mm 0,0 UV-I 30 W/m 11,6 C 1,6 km/h (1 Bft)
07.08.2016 18:51 20,7 C 20,7 C 57 % 1024,6 hPa 0,0 mm 1,9 km/h (1 Bft) N 5 0 min 0,000 mm 0,0 UV-I 30 W/m 11,9 C 3,2 km/h (1 Bft)
07.08.2016 18:52 20,7 C 20,7 C 57 % 1024,6 hPa 0,0 mm 3,3 km/h (1 Bft) O-NO 71 0 min 0,000 mm 0,0 UV-I 30 W/m 11,9 C 4,8 km/h (1 Bft)
07.08.2016 18:53 20,7 C 20,7 C 59 % 1024,6 hPa 0,0 mm 8,2 km/h (2 Bft) N-NO 32 0 min 0,000 mm 0,0 UV-I 32 W/m 12,4 C 12,9 km/h (3 Bft)
07.08.2016 18:54 20,7 C 20,7 C 57 % 1024,6 hPa 0,0 mm 5,5 km/h (1 Bft) N-NO 12 0 min 0,000 mm 0,0 UV-I 32 W/m 11,9 C 6,4 km/h (2 Bft)
07.08.2016 18:55 20,7 C 20,7 C 58 % 1024,6 hPa 0,0 mm 5,0 km/h (1 Bft) O-NO 71 0 min 0,000 mm 0,0 UV-I 30 W/m 12,1 C 9,7 km/h (2 Bft)
07.08.2016 18:56 20,8 C 20,8 C 56 % 1024,6 hPa 0,0 mm 5,4 km/h (1 Bft) O-NO 57 0 min 0,000 mm 0,0 UV-I 30 W/m 11,7 C 9,7 km/h (2 Bft)
07.08.2016 18:57 20,8 C 20,8 C 56 % 1024,6 hPa 0,0 mm 2,6 km/h (1 Bft) O 96 0 min 0,000 mm 0,0 UV-I 40 W/m 11,7 C 4,8 km/h (1 Bft)
07.08.2016 18:58 20,8 C 20,8 C 58 % 1024,6 hPa 0,0 mm 3,8 km/h (1 Bft) NO 36 0 min 0,000 mm 0,8 UV-I 84 W/m 12,2 C 6,4 km/h (2 Bft)
07.08.2016 18:59 20,7 C 20,8 C 57 % 1024,6 hPa 0,0 mm 1,7 km/h (1 Bft) NO 47 0 min 0,000 mm 0,7 UV-I 84 W/m 11,9 C 3,2 km/h (1 Bft)
07.08.2016 19:00 20,7 C 20,8 C 57 % 1024,6 hPa 0,0 mm 3,1 km/h (1 Bft) O-NO 71 0 min 0,000 mm 0,7 UV-I 76 W/m 11,9 C 4,8 km/h (1 Bft)
07.08.2016 19:01 20,6 C 20,7 C 58 % 1024,7 hPa 0,0 mm 4,5 km/h (1 Bft) NO 37 0 min 0,051 mm 0,7 UV-I 63 W/m 12,0 C 8,0 km/h (2 Bft)
07.08.2016 19:02 20,6 C 20,6 C 56 % 1024,6 hPa 0,0 mm 5,6 km/h (1 Bft) O-NO 58 0 min 0,000 mm 0,7 UV-I 62 W/m 11,5 C 8,0 km/h (2 Bft)
07.08.2016 19:03 20,7 C 20,7 C 57 % 1024,7 hPa 0,0 mm 3,4 km/h (1 Bft) N-NO 25 0 min 0,000 mm 0,0 UV-I 44 W/m 11,9 C 6,4 km/h (2 Bft)
07.08.2016 19:04 20,7 C 20,7 C 56 % 1024,6 hPa 0,0 mm 2,4 km/h (1 Bft) O-NO 61 0 min 0,000 mm 0,0 UV-I 39 W/m 11,6 C 4,8 km/h (1 Bft)
07.08.2016 19:05 20,7 C 20,7 C 58 % 1024,6 hPa 0,0 mm 3,4 km/h (1 Bft) O-NO 71 0 min 0,000 mm 0,0 UV-I 44 W/m 12,1 C 4,8 km/h (1 Bft)
07.08.2016 19:06 20,7 C 20,7 C 55 % 1024,7 hPa 0,0 mm 4,0 km/h (1 Bft) NO 45 0 min 0,000 mm 0,0 UV-I 42 W/m 11,3 C 6,4 km/h (2 Bft)
07.08.2016 19:07 20,6 C 20,7 C 56 % 1024,7 hPa 0,0 mm 2,9 km/h (1 Bft) O-NO 61 0 min 0,000 mm 0,0 UV-I 69 W/m 11,5 C 4,8 km/h (1 Bft)
07.08.2016 19:08 20,6 C 20,6 C 57 % 1024,6 hPa 0,0 mm 2,7 km/h (1 Bft) O-NO 64 0 min 0,000 mm 0,7 UV-I 83 W/m 11,8 C 4,8 km/h (1 Bft)
07.08.2016 19:09 20,5 C 20,6 C 58 % 1024,7 hPa 0,0 mm 2,8 km/h (1 Bft) NO 40 0 min 0,000 mm 0,0 UV-I 46 W/m 11,9 C 4,8 km/h (1 Bft)
07.08.2016 19:10 20,5 C 20,6 C 60 % 1024,7 hPa 0,0 mm 5,4 km/h (1 Bft) NO 53 0 min 0,000 mm 0,0 UV-I 47 W/m 12,5 C 6,4 km/h (2 Bft)
07.08.2016 19:11 20,5 C 20,5 C 57 % 1024,7 hPa 0,0 mm 5,6 km/h (1 Bft) NO 39 0 min 0,000 mm 0,0 UV-I 33 W/m 11,7 C 8,0 km/h (2 Bft)
07.08.2016 19:12 20,6 C 20,6 C 57 % 1024,7 hPa 0,0 mm 4,5 km/h (1 Bft) O 92 0 min 0,000 mm 0,0 UV-I 37 W/m 11,8 C 9,7 km/h (2 Bft)
07.08.2016 19:13 20,6 C 20,6 C 57 % 1024,7 hPa 0,0 mm 6,4 km/h (2 Bft) N-NO 32 0 min 0,000 mm 0,0 UV-I 30 W/m 11,8 C 11,3 km/h (2 Bft)
07.08.2016 19:14 20,6 C 20,6 C 57 % 1024,7 hPa 0,0 mm 3,4 km/h (1 Bft) NO 42 0 min 0,000 mm 0,0 UV-I 46 W/m 11,8 C 4,8 km/h (1 Bft)
07.08.2016 19:15 20,6 C 20,6 C 58 % 1024,7 hPa 0,0 mm 4,2 km/h (1 Bft) NO 52 0 min 0,000 mm 0,0 UV-I 37 W/m 12,0 C 6,4 km/h (2 Bft)
07.08.2016 19:16 20,5 C 20,6 C 60 % 1024,7 hPa 0,0 mm 4,8 km/h (1 Bft) NO 54 0 min 0,000 mm 0,0 UV-I 30 W/m 12,5 C 6,4 km/h (2 Bft)
07.08.2016 19:17 20,5 C 20,5 C 59 % 1024,7 hPa 0,0 mm 4,7 km/h (1 Bft) O 96 0 min 0,000 mm 0,0 UV-I 32 W/m 12,2 C 8,0 km/h (2 Bft)
07.08.2016 19:18 20,4 C 20,5 C 58 % 1024,7 hPa 0,0 mm 3,3 km/h (1 Bft) NO 56 0 min 0,000 mm 0,0 UV-I 28 W/m 11,9 C 6,4 km/h (2 Bft)
07.08.2016 19:19 20,4 C 20,4 C 57 % 1024,6 hPa 0,0 mm 7,4 km/h (2 Bft) NO 45 0 min 0,000 mm 0,0 UV-I 46 W/m 11,6 C 8,0 km/h (2 Bft)
07.08.2016 19:20 20,4 C 20,4 C 55 % 1024,6 hPa 0,0 mm 4,2 km/h (1 Bft) O-NO 64 0 min 0,000 mm 0,0 UV-I 33 W/m 11,1 C 6,4 km/h (2 Bft)
07.08.2016 19:21 20,4 C 20,4 C 56 % 1024,6 hPa 0,0 mm 2,7 km/h (1 Bft) N-NO 26 0 min 0,000 mm 0,0 UV-I 42 W/m 11,3 C 4,8 km/h (1 Bft)
07.08.2016 19:22 20,4 C 20,5 C 59 % 1024,6 hPa 0,0 mm 5,9 km/h (2 Bft) O-NO 59 0 min 0,000 mm 0,0 UV-I 51 W/m 12,1 C 8,0 km/h (2 Bft)
07.08.2016 19:23 20,4 C 20,4 C 56 % 1024,6 hPa 0,0 mm 6,9 km/h (2 Bft) N-NO 27 0 min 0,000 mm 0,5 UV-I 60 W/m 11,3 C 9,7 km/h (2 Bft)
07.08.2016 19:24 20,4 C 20,4 C 56 % 1024,6 hPa 0,0 mm 3,6 km/h (1 Bft) NO 43 0 min 0,000 mm 0,0 UV-I 40 W/m 11,3 C 8,0 km/h (2 Bft)
07.08.2016 19:25 20,4 C 20,4 C 59 % 1024,6 hPa 0,0 mm 5,8 km/h (2 Bft) NO 38 0 min 0,000 mm 0,0 UV-I 37 W/m 12,1 C 9,7 km/h (2 Bft)
07.08.2016 19:26 20,3 C 20,4 C 57 % 1024,7 hPa 0,0 mm 5,2 km/h (1 Bft) O-NO 76 0 min 0,000 mm 0,0 UV-I 32 W/m 11,5 C 8,0 km/h (2 Bft)
07.08.2016 19:27 20,3 C 20,4 C 57 % 1024,6 hPa 0,0 mm 4,4 km/h (1 Bft) O-NO 73 0 min 0,000 mm 0,0 UV-I 30 W/m 11,5 C 8,0 km/h (2 Bft)
07.08.2016 19:28 20,2 C 20,3 C 61 % 1024,6 hPa 0,0 mm 4,9 km/h (1 Bft) O-NO 76 0 min 0,000 mm 0,0 UV-I 33 W/m 12,4 C 8,0 km/h (2 Bft)
07.08.2016 19:29 20,1 C 20,2 C 61 % 1024,6 hPa 0,0 mm 3,6 km/h (1 Bft) NO 48 0 min 0,000 mm 0,0 UV-I 33 W/m 12,3 C 4,8 km/h (1 Bft)
07.08.2016 19:30 19,9 C 20,1 C 61 % 1024,6 hPa 0,0 mm 3,1 km/h (1 Bft) O-SO 113 0 min 0,000 mm 0,0 UV-I 42 W/m 12,2 C 4,8 km/h (1 Bft)
07.08.2016 19:31 19,9 C 19,9 C 60 % 1024,6 hPa 0,0 mm 4,8 km/h (1 Bft) NO 47 0 min 0,000 mm 0,0 UV-I 76 W/m 11,9 C 8,0 km/h (2 Bft)
07.08.2016 19:32 19,8 C 19,9 C 63 % 1024,6 hPa 0,0 mm 3,7 km/h (1 Bft) NO 42 0 min 0,000 mm 0,0 UV-I 81 W/m 12,5 C 4,8 km/h (1 Bft)
07.08.2016 19:33 19,8 C 19,9 C 60 % 1024,6 hPa 0,0 mm 1,2 km/h (1 Bft) NO 42 0 min 0,000 mm 0,0 UV-I 79 W/m 11,8 C 1,6 km/h (1 Bft)
07.08.2016 19:34 19,8 C 19,8 C 62 % 1024,5 hPa 0,0 mm 4,1 km/h (1 Bft) O 90 0 min 0,000 mm 0,0 UV-I 76 W/m 12,3 C 6,4 km/h (2 Bft)
07.08.2016 19:35 19,8 C 19,8 C 59 % 1024,5 hPa 0,0 mm 3,4 km/h (1 Bft) NO 55 0 min 0,000 mm 0,0 UV-I 65 W/m 11,6 C 4,8 km/h (1 Bft)
07.08.2016 19:36 19,8 C 19,8 C 61 % 1024,5 hPa 0,0 mm 2,1 km/h (1 Bft) NO 51 0 min 0,000 mm 0,0 UV-I 40 W/m 12,1 C 4,8 km/h (1 Bft)
07.08.2016 19:37 19,8 C 19,8 C 60 % 1024,5 hPa 0,0 mm 4,3 km/h (1 Bft) O-NO 57 0 min 0,000 mm 0,0 UV-I 28 W/m 11,8 C 6,4 km/h (2 Bft)
07.08.2016 19:38 19,7 C 19,8 C 63 % 1024,5 hPa 0,0 mm 3,3 km/h (1 Bft) O-NO 78 0 min 0,000 mm 0,0 UV-I 32 W/m 12,5 C 4,8 km/h (1 Bft)
07.08.2016 19:39 19,6 C 19,7 C 64 % 1024,5 hPa 0,0 mm 3,7 km/h (1 Bft) O-NO 65 0 min 0,000 mm 0,0 UV-I 44 W/m 12,6 C 6,4 km/h (2 Bft)
07.08.2016 19:40 19,6 C 19,6 C 62 % 1024,6 hPa 0,0 mm 0,9 km/h (0 Bft) O-NO 65 0 min 0,000 mm 0,0 UV-I 47 W/m 12,1 C 3,2 km/h (1 Bft)
07.08.2016 19:41 19,5 C 19,6 C 62 % 1024,6 hPa 0,0 mm 1,0 km/h (0 Bft) O-NO 65 0 min 0,000 mm 0,0 UV-I 62 W/m 12,0 C 1,6 km/h (1 Bft)
07.08.2016 19:42 19,4 C 19,5 C 65 % 1024,6 hPa 0,0 mm 2,3 km/h (1 Bft) O-SO 103 0 min 0,000 mm 0,0 UV-I 70 W/m 12,6 C 4,8 km/h (1 Bft)
07.08.2016 19:43 19,3 C 19,4 C 67 % 1024,6 hPa 0,0 mm 1,5 km/h (1 Bft) O-SO 103 0 min 0,000 mm 0,0 UV-I 67 W/m 13,0 C 3,2 km/h (1 Bft)
07.08.2016 19:44 19,2 C 19,3 C 64 % 1024,6 hPa 0,0 mm 0,5 km/h (0 Bft) O-SO 103 0 min 0,000 mm 0,0 UV-I 65 W/m 12,2 C 1,6 km/h (1 Bft)
07.08.2016 19:45 19,1 C 19,2 C 65 % 1024,5 hPa 0,0 mm 1,8 km/h (1 Bft) O-SO 103 0 min 0,000 mm 0,0 UV-I 63 W/m 12,4 C 3,2 km/h (1 Bft)
07.08.2016 19:46 18,9 C 19,1 C 64 % 1024,6 hPa 0,0 mm 0,2 km/h (0 Bft) O-SO 103 0 min 0,000 mm 0,0 UV-I 62 W/m 11,9 C 1,6 km/h (1 Bft)
07.08.2016 19:47 18,9 C 19,0 C 64 % 1024,6 hPa 0,0 mm 0,1 km/h (0 Bft) O-SO 103 0 min 0,000 mm 0,0 UV-I 60 W/m 11,9 C 1,6 km/h (1 Bft)
07.08.2016 19:48 18,9 C 19,0 C 66 % 1024,6 hPa 0,0 mm 0,7 km/h (0 Bft) O-SO 103 0 min 0,000 mm 0,0 UV-I 56 W/m 12,4 C 1,6 km/h (1 Bft)
07.08.2016 19:49 18,9 C 18,9 C 64 % 1024,6 hPa 0,0 mm 1,3 km/h (1 Bft) O-SO 103 0 min 0,000 mm 0,0 UV-I 54 W/m 11,9 C 3,2 km/h (1 Bft)
07.08.2016 19:50 18,9 C 19,0 C 64 % 1024,5 hPa 0,0 mm 0,9 km/h (0 Bft) O-SO 103 0 min 0,000 mm 0,0 UV-I 53 W/m 11,9 C 1,6 km/h (1 Bft)
07.08.2016 19:51 18,9 C 18,9 C 66 % 1024,6 hPa 0,0 mm 0,3 km/h (0 Bft) O-SO 103 0 min 0,000 mm 0,0 UV-I 51 W/m 12,4 C 1,6 km/h (1 Bft)
07.08.2016 19:52 18,9 C 18,9 C 66 % 1024,6 hPa 0,0 mm 0,9 km/h (0 Bft) O-SO 103 0 min 0,000 mm 0,0 UV-I 49 W/m 12,4 C 3,2 km/h (1 Bft)
07.08.2016 19:53 18,8 C 18,9 C 65 % 1024,6 hPa 0,0 mm 0,6 km/h (0 Bft) O-SO 103 0 min 0,000 mm 0,0 UV-I 47 W/m 12,1 C 1,6 km/h (1 Bft)
07.08.2016 19:54 18,8 C 18,8 C 66 % 1024,4 hPa 0,0 mm 0,3 km/h (0 Bft) O-SO 103 0 min 0,000 mm 0,0 UV-I 44 W/m 12,3 C 1,6 km/h (1 Bft)
07.08.2016 19:55 18,7 C 18,8 C 69 % 1024,6 hPa 0,0 mm 1,7 km/h (1 Bft) O-SO 103 0 min 0,000 mm 0,0 UV-I 42 W/m 12,9 C 3,2 km/h (1 Bft)
07.08.2016 19:56 18,6 C 18,7 C 67 % 1024,5 hPa 0,0 mm 0,5 km/h (0 Bft) O-SO 103 0 min 0,000 mm 0,0 UV-I 40 W/m 12,3 C 1,6 km/h (1 Bft)
07.08.2016 19:57 18,6 C 18,6 C 66 % 1024,5 hPa 0,0 mm 0,5 km/h (0 Bft) O-SO 103 0 min 0,000 mm 0,0 UV-I 39 W/m 12,1 C 1,6 km/h (1 Bft)
07.08.2016 19:58 18,6 C 18,6 C 66 % 1024,5 hPa 0,0 mm 1,0 km/h (0 Bft) O-SO 103 0 min 0,000 mm 0,0 UV-I 39 W/m 12,1 C 1,6 km/h (1 Bft)
07.08.2016 19:59 18,6 C 18,7 C 66 % 1024,6 hPa 0,0 mm 0,4 km/h (0 Bft) O-SO 103 0 min 0,000 mm 0,0 UV-I 37 W/m 12,1 C 1,6 km/h (1 Bft)
07.08.2016 20:00 18,7 C 18,7 C 66 % 1024,6 hPa 0,0 mm 0,3 km/h (0 Bft) O-SO 103 0 min 0,051 mm 0,0 UV-I 33 W/m 12,2 C 1,6 km/h (1 Bft)
07.08.2016 20:01 18,7 C 18,7 C 65 % 1024,6 hPa 0,0 mm 0,9 km/h (0 Bft) O-SO 103 0 min 0,000 mm 0,0 UV-I 32 W/m 12,0 C 1,6 km/h (1 Bft)
07.08.2016 20:02 18,7 C 18,7 C 67 % 1024,6 hPa 0,0 mm 1,2 km/h (1 Bft) O-SO 103 0 min 0,000 mm 0,0 UV-I 30 W/m 12,4 C 1,6 km/h (1 Bft)
07.08.2016 20:03 18,7 C 18,7 C 67 % 1024,6 hPa 0,0 mm 0,3 km/h (0 Bft) O-SO 103 0 min 0,000 mm 0,0 UV-I 30 W/m 12,4 C 1,6 km/h (1 Bft)
07.08.2016 20:04 18,7 C 18,7 C 65 % 1024,6 hPa 0,0 mm 1,0 km/h (0 Bft) O-SO 103 0 min 0,000 mm 0,0 UV-I 28 W/m 12,0 C 1,6 km/h (1 Bft)
07.08.2016 20:05 18,6 C 18,7 C 65 % 1024,6 hPa 0,0 mm 0,5 km/h (0 Bft) O-SO 103 0 min 0,000 mm 0,0 UV-I 26 W/m 11,9 C 1,6 km/h (1 Bft)
07.08.2016 20:06 18,6 C 18,6 C 66 % 1024,6 hPa 0,0 mm 0,7 km/h (0 Bft) O-SO 103 0 min 0,000 mm 0,0 UV-I 21 W/m 12,1 C 1,6 km/h (1 Bft)
07.08.2016 20:07 18,5 C 18,6 C 66 % 1024,6 hPa 0,0 mm 1,3 km/h (1 Bft) O-SO 103 0 min 0,000 mm 0,0 UV-I 19 W/m 12,0 C 1,6 km/h (1 Bft)
07.08.2016 20:08 18,4 C 18,5 C 66 % 1024,7 hPa 0,0 mm 0,8 km/h (0 Bft) O-SO 103 0 min 0,000 mm 0,0 UV-I 18 W/m 11,9 C 1,6 km/h (1 Bft)
07.08.2016 20:09 18,4 C 18,4 C 68 % 1024,6 hPa 0,0 mm 0,7 km/h (0 Bft) O-SO 103 0 min 0,000 mm 0,0 UV-I 18 W/m 12,4 C 1,6 km/h (1 Bft)
07.08.2016 20:10 18,2 C 18,4 C 68 % 1024,6 hPa 0,0 mm 0,8 km/h (0 Bft) O-SO 103 0 min 0,000 mm 0,0 UV-I 18 W/m 12,2 C 1,6 km/h (1 Bft)
07.08.2016 20:11 18,2 C 18,2 C 68 % 1024,6 hPa 0,0 mm 0,7 km/h (0 Bft) O-SO 103 0 min 0,000 mm 0,0 UV-I 16 W/m 12,2 C 1,6 km/h (1 Bft)
07.08.2016 20:12 18,1 C 18,2 C 69 % 1024,6 hPa 0,0 mm 0,7 km/h (0 Bft) O-SO 103 0 min 0,000 mm 0,0 UV-I 16 W/m 12,3 C 1,6 km/h (1 Bft)
07.08.2016 20:13 18,1 C 18,1 C 70 % 1024,6 hPa 0,0 mm 0,5 km/h (0 Bft) O-SO 103 0 min 0,000 mm 0,0 UV-I 16 W/m 12,5 C 1,6 km/h (1 Bft)
07.08.2016 20:14 18,0 C 18,1 C 69 % 1024,5 hPa 0,0 mm 0,7 km/h (0 Bft) O-SO 103 0 min 0,000 mm 0,0 UV-I 14 W/m 12,2 C 1,6 km/h (1 Bft)
07.08.2016 20:15 17,9 C 18,0 C 70 % 1024,6 hPa 0,0 mm 0,7 km/h (0 Bft) O-SO 103 0 min 0,000 mm 0,0 UV-I 14 W/m 12,3 C 1,6 km/h (1 Bft)
07.08.2016 20:16 17,8 C 17,9 C 70 % 1024,5 hPa 0,0 mm 0,7 km/h (0 Bft) O-SO 103 0 min 0,000 mm 0,0 UV-I 14 W/m 12,3 C 1,6 km/h (1 Bft)
07.08.2016 20:17 17,7 C 17,8 C 70 % 1024,6 hPa 0,0 mm 0,8 km/h (0 Bft) O-SO 103 0 min 0,000 mm 0,0 UV-I 14 W/m 12,2 C 1,6 km/h (1 Bft)
07.08.2016 20:18 17,6 C 17,7 C 71 % 1024,7 hPa 0,0 mm 0,7 km/h (0 Bft) O-SO 103 0 min 0,000 mm 0,0 UV-I 12 W/m 12,3 C 1,6 km/h (1 Bft)
07.08.2016 20:19 17,5 C 17,6 C 71 % 1024,6 hPa 0,0 mm 0,9 km/h (0 Bft) O-SO 103 0 min 0,000 mm 0,0 UV-I 12 W/m 12,2 C 1,6 km/h (1 Bft)
07.08.2016 20:20 17,4 C 17,5 C 71 % 1024,6 hPa 0,0 mm 1,0 km/h (0 Bft) O-SO 103 0 min 0,000 mm 0,0 UV-I 11 W/m 12,1 C 1,6 km/h (1 Bft)
07.08.2016 20:21 17,4 C 17,4 C 73 % 1024,5 hPa 0,0 mm 1,1 km/h (1 Bft) O-SO 103 0 min 0,000 mm 0,0 UV-I 11 W/m 12,5 C 1,6 km/h (1 Bft)
07.08.2016 20:22 17,3 C 17,4 C 72 % 1024,6 hPa 0,0 mm 1,3 km/h (1 Bft) O-SO 103 0 min 0,000 mm 0,0 UV-I 11 W/m 12,2 C 1,6 km/h (1 Bft)
07.08.2016 20:23 17,3 C 17,3 C 72 % 1024,6 hPa 0,0 mm 0,9 km/h (0 Bft) O-SO 103 0 min 0,000 mm 0,0 UV-I 11 W/m 12,2 C 1,6 km/h (1 Bft)
07.08.2016 20:24 17,3 C 17,3 C 72 % 1024,6 hPa 0,0 mm 0,7 km/h (0 Bft) O-SO 103 0 min 0,000 mm 0,0 UV-I 11 W/m 12,2 C 1,6 km/h (1 Bft)
07.08.2016 20:25 17,2 C 17,3 C 72 % 1024,5 hPa 0,0 mm 0,7 km/h (0 Bft) O-SO 103 0 min 0,000 mm 0,0 UV-I 11 W/m 12,1 C 1,6 km/h (1 Bft)
07.08.2016 20:26 17,1 C 17,2 C 73 % 1024,7 hPa 0,0 mm 0,9 km/h (0 Bft) O-SO 103 0 min 0,000 mm 0,0 UV-I 11 W/m 12,2 C 1,6 km/h (1 Bft)
07.08.2016 20:27 17,0 C 17,1 C 73 % 1024,6 hPa 0,0 mm 1,4 km/h (1 Bft) O-SO 103 0 min 0,000 mm 0,0 UV-I 11 W/m 12,1 C 1,6 km/h (1 Bft)
07.08.2016 20:28 16,9 C 17,0 C 73 % 1024,6 hPa 0,0 mm 1,5 km/h (1 Bft) O-SO 103 0 min 0,000 mm 0,0 UV-I 9 W/m 12,0 C 3,2 km/h (1 Bft)
07.08.2016 20:29 16,8 C 16,9 C 73 % 1024,6 hPa 0,0 mm 1,8 km/h (1 Bft) O-SO 103 0 min 0,000 mm 0,0 UV-I 9 W/m 11,9 C 3,2 km/h (1 Bft)
07.08.2016 20:30 16,7 C 16,8 C 74 % 1024,6 hPa 0,0 mm 1,6 km/h (1 Bft) O-SO 103 0 min 0,000 mm 0,0 UV-I 7 W/m 12,0 C 3,2 km/h (1 Bft)
07.08.2016 20:31 16,6 C 16,7 C 74 % 1024,6 hPa 0,0 mm 1,1 km/h (1 Bft) O-SO 103 0 min 0,000 mm 0,0 UV-I 7 W/m 11,9 C 1,6 km/h (1 Bft)
07.08.2016 20:32 16,6 C 16,6 C 74 % 1024,7 hPa 0,0 mm 1,8 km/h (1 Bft) O-SO 103 0 min 0,000 mm 0,0 UV-I 7 W/m 11,9 C 3,2 km/h (1 Bft)
07.08.2016 20:33 16,5 C 16,6 C 74 % 1024,7 hPa 0,0 mm 2,0 km/h (1 Bft) O-SO 104 0 min 0,000 mm 0,0 UV-I 7 W/m 11,8 C 3,2 km/h (1 Bft)
07.08.2016 20:34 16,4 C 16,5 C 74 % 1024,7 hPa 0,0 mm 1,4 km/h (1 Bft) O-SO 104 0 min 0,000 mm 0,0 UV-I 5 W/m 11,8 C 1,6 km/h (1 Bft)
07.08.2016 20:35 16,3 C 16,4 C 74 % 1024,7 hPa 0,0 mm 1,7 km/h (1 Bft) O-SO 104 0 min 0,000 mm 0,0 UV-I 5 W/m 11,7 C 3,2 km/h (1 Bft)
07.08.2016 20:36 16,3 C 16,3 C 75 % 1024,7 hPa 0,0 mm 1,3 km/h (1 Bft) O-SO 104 0 min 0,000 mm 0,0 UV-I 5 W/m 11,9 C 3,2 km/h (1 Bft)
07.08.2016 20:37 16,2 C 16,3 C 75 % 1024,7 hPa 0,0 mm 1,1 km/h (1 Bft) O-SO 104 0 min 0,000 mm 0,0 UV-I 5 W/m 11,8 C 1,6 km/h (1 Bft)
07.08.2016 20:38 16,0 C 16,2 C 76 % 1024,7 hPa 0,0 mm 0,9 km/h (0 Bft) O-SO 104 0 min 0,000 mm 0,0 UV-I 5 W/m 11,8 C 1,6 km/h (1 Bft)
07.08.2016 20:39 15,8 C 16,0 C 77 % 1024,7 hPa 0,0 mm 0,1 km/h (0 Bft) O-SO 104 0 min 0,000 mm 0,0 UV-I 5 W/m 11,8 C 1,6 km/h (1 Bft)
07.08.2016 20:40 15,8 C 15,8 C 77 % 1024,7 hPa 0,0 mm 0,0 km/h (0 Bft) O-SO 104 0 min 0,000 mm 0,0 UV-I 0 W/m 11,8 C 0,0 km/h (0 Bft)
07.08.2016 20:41 15,7 C 15,8 C 77 % 1024,7 hPa 0,0 mm 0,0 km/h (0 Bft) O-SO 104 0 min 0,000 mm 0,0 UV-I 0 W/m 11,7 C 0,0 km/h (0 Bft)
07.08.2016 20:42 15,7 C 15,7 C 77 % 1024,6 hPa 0,0 mm 0,6 km/h (0 Bft) O-SO 104 0 min 0,000 mm 0,0 UV-I 0 W/m 11,7 C 1,6 km/h (1 Bft)
07.08.2016 20:43 15,7 C 15,7 C 77 % 1024,7 hPa 0,0 mm 0,3 km/h (0 Bft) O-SO 104 0 min 0,000 mm 0,0 UV-I 0 W/m 11,7 C 1,6 km/h (1 Bft)
07.08.2016 20:44 15,6 C 15,7 C 77 % 1024,7 hPa 0,0 mm 0,0 km/h (0 Bft) O-SO 104 0 min 0,000 mm 0,0 UV-I 0 W/m 11,6 C 0,0 km/h (0 Bft)
07.08.2016 20:45 15,6 C 15,6 C 77 % 1024,7 hPa 0,0 mm 0,0 km/h (0 Bft) O-SO 104 0 min 0,000 mm 0,0 UV-I 0 W/m 11,6 C 0,0 km/h (0 Bft)
07.08.2016 20:46 15,5 C 15,6 C 77 % 1024,8 hPa 0,0 mm 0,0 km/h (0 Bft) O-SO 104 0 min 0,000 mm 0,0 UV-I 0 W/m 11,5 C 0,0 km/h (0 Bft)
07.08.2016 20:47 15,4 C 15,5 C 78 % 1024,7 hPa 0,0 mm 0,0 km/h (0 Bft) O-SO 104 0 min 0,000 mm 0,0 UV-I 0 W/m 11,6 C 0,0 km/h (0 Bft)
07.08.2016 20:48 15,3 C 15,4 C 78 % 1024,7 hPa 0,0 mm 0,0 km/h (0 Bft) O-SO 104 0 min 0,000 mm 0,0 UV-I 0 W/m 11,5 C 0,0 km/h (0 Bft)
07.08.2016 20:49 15,3 C 15,3 C 78 % 1024,8 hPa 0,0 mm 0,0 km/h (0 Bft) O-SO 104 0 min 0,000 mm 0,0 UV-I 0 W/m 11,5 C 0,0 km/h (0 Bft)
07.08.2016 20:50 15,2 C 15,3 C 78 % 1024,7 hPa 0,0 mm 0,0 km/h (0 Bft) O-SO 104 0 min 0,000 mm 0,0 UV-I 0 W/m 11,4 C 0,0 km/h (0 Bft)
07.08.2016 20:51 15,2 C 15,2 C 79 % 1024,8 hPa 0,0 mm 0,0 km/h (0 Bft) O-SO 104 0 min 0,000 mm 0,0 UV-I 0 W/m 11,6 C 0,0 km/h (0 Bft)
07.08.2016 20:52 15,2 C 15,2 C 79 % 1024,8 hPa 0,0 mm 0,0 km/h (0 Bft) O-SO 104 0 min 0,000 mm 0,0 UV-I 0 W/m 11,6 C 0,0 km/h (0 Bft)
07.08.2016 20:53 15,1 C 15,2 C 80 % 1024,8 hPa 0,0 mm 0,0 km/h (0 Bft) O-SO 104 0 min 0,000 mm 0,0 UV-I 0 W/m 11,7 C 0,0 km/h (0 Bft)
07.08.2016 20:54 15,1 C 15,1 C 80 % 1024,7 hPa 0,0 mm 0,0 km/h (0 Bft) O-SO 104 0 min 0,000 mm 0,0 UV-I 0 W/m 11,7 C 0,0 km/h (0 Bft)
07.08.2016 20:55 15,1 C 15,1 C 80 % 1024,7 hPa 0,0 mm 0,0 km/h (0 Bft) O-SO 104 0 min 0,000 mm 0,0 UV-I 0 W/m 11,7 C 0,0 km/h (0 Bft)
07.08.2016 20:56 15,0 C 15,1 C 80 % 1024,8 hPa 0,0 mm 0,0 km/h (0 Bft) O-SO 104 0 min 0,000 mm 0,0 UV-I 0 W/m 11,6 C 0,0 km/h (0 Bft)
07.08.2016 20:57 15,1 C 15,1 C 79 % 1024,8 hPa 0,0 mm 0,5 km/h (0 Bft) O-SO 109 0 min 0,000 mm 0,0 UV-I 0 W/m 11,5 C 1,6 km/h (1 Bft)
07.08.2016 20:58 15,1 C 15,1 C 79 % 1024,7 hPa 0,0 mm 2,0 km/h (1 Bft) SO 141 0 min 0,000 mm 0,0 UV-I 0 W/m 11,5 C 3,2 km/h (1 Bft)
07.08.2016 20:59 15,1 C 15,1 C 79 % 1024,7 hPa 0,0 mm 2,3 km/h (1 Bft) SO 143 0 min 0,000 mm 0,0 UV-I 0 W/m 11,5 C 3,2 km/h (1 Bft)
07.08.2016 21:00 15,1 C 15,1 C 79 % 1024,7 hPa 0,0 mm 2,2 km/h (1 Bft) S-SO 150 0 min 0,000 mm 0,0 UV-I 0 W/m 11,5 C 4,8 km/h (1 Bft)
07.08.2016 21:01 15,1 C 15,2 C 80 % 1024,7 hPa 0,0 mm 3,1 km/h (1 Bft) S-SO 152 0 min 0,025 mm 0,0 UV-I 0 W/m 11,7 C 3,2 km/h (1 Bft)
07.08.2016 21:02 15,1 C 15,1 C 80 % 1024,6 hPa 0,0 mm 2,6 km/h (1 Bft) S-SO 152 0 min 0,000 mm 0,0 UV-I 0 W/m 11,7 C 3,2 km/h (1 Bft)
07.08.2016 21:03 15,1 C 15,1 C 80 % 1024,7 hPa 0,0 mm 2,3 km/h (1 Bft) S-SO 153 0 min 0,000 mm 0,0 UV-I 0 W/m 11,7 C 3,2 km/h (1 Bft)
07.08.2016 21:04 15,0 C 15,1 C 81 % 1024,6 hPa 0,0 mm 2,6 km/h (1 Bft) S-SO 154 0 min 0,000 mm 0,0 UV-I 0 W/m 11,8 C 4,8 km/h (1 Bft)
07.08.2016 21:05 15,0 C 15,0 C 81 % 1024,7 hPa 0,0 mm 2,7 km/h (1 Bft) S-SO 155 0 min 0,000 mm 0,0 UV-I 0 W/m 11,8 C 4,8 km/h (1 Bft)
07.08.2016 21:06 14,9 C 15,0 C 81 % 1024,7 hPa 0,0 mm 3,1 km/h (1 Bft) S-SO 155 0 min 0,000 mm 0,0 UV-I 0 W/m 11,7 C 4,8 km/h (1 Bft)
07.08.2016 21:07 14,8 C 14,9 C 81 % 1024,7 hPa 0,0 mm 2,0 km/h (1 Bft) S-SO 155 0 min 0,000 mm 0,0 UV-I 0 W/m 11,6 C 4,8 km/h (1 Bft)
07.08.2016 21:08 14,7 C 14,8 C 82 % 1024,7 hPa 0,0 mm 3,6 km/h (1 Bft) S-SO 159 0 min 0,000 mm 0,0 UV-I 0 W/m 11,7 C 6,4 km/h (2 Bft)
07.08.2016 21:09 14,5 C 14,7 C 82 % 1024,7 hPa 0,0 mm 2,9 km/h (1 Bft) S-SO 159 0 min 0,000 mm 0,0 UV-I 0 W/m 11,5 C 6,4 km/h (2 Bft)
07.08.2016 21:10 14,4 C 14,6 C 82 % 1024,7 hPa 0,0 mm 2,5 km/h (1 Bft) S-SO 159 0 min 0,000 mm 0,0 UV-I 0 W/m 11,4 C 6,4 km/h (2 Bft)
07.08.2016 21:11 14,3 C 14,4 C 82 % 1024,7 hPa 0,0 mm 2,1 km/h (1 Bft) S-SO 166 0 min 0,000 mm 0,0 UV-I 0 W/m 11,3 C 4,8 km/h (1 Bft)
07.08.2016 21:12 14,2 C 14,3 C 83 % 1024,8 hPa 0,0 mm 3,9 km/h (1 Bft) S-SO 166 0 min 0,000 mm 0,0 UV-I 0 W/m 11,4 C 6,4 km/h (2 Bft)
07.08.2016 21:13 14,1 C 14,2 C 83 % 1024,8 hPa 0,0 mm 5,8 km/h (2 Bft) S-SO 166 0 min 0,000 mm 0,0 UV-I 0 W/m 11,3 C 6,4 km/h (2 Bft)
07.08.2016 21:14 14,1 C 14,1 C 83 % 1024,8 hPa 0,0 mm 6,2 km/h (2 Bft) S-SO 166 0 min 0,000 mm 0,0 UV-I 0 W/m 11,3 C 8,0 km/h (2 Bft)
07.08.2016 21:15 14,1 C 14,1 C 84 % 1024,8 hPa 0,0 mm 5,8 km/h (2 Bft) S-SO 166 0 min 0,000 mm 0,0 UV-I 0 W/m 11,4 C 8,0 km/h (2 Bft)
07.08.2016 21:16 14,1 C 14,1 C 84 % 1024,8 hPa 0,0 mm 4,3 km/h (1 Bft) S 169 0 min 0,000 mm 0,0 UV-I 0 W/m 11,4 C 6,4 km/h (2 Bft)
07.08.2016 21:17 14,1 C 14,1 C 84 % 1024,8 hPa 0,0 mm 4,2 km/h (1 Bft) S 169 0 min 0,000 mm 0,0 UV-I 0 W/m 11,4 C 6,4 km/h (2 Bft)
07.08.2016 21:18 14,1 C 14,1 C 84 % 1024,8 hPa 0,0 mm 3,4 km/h (1 Bft) S 169 0 min 0,000 mm 0,0 UV-I 0 W/m 11,4 C 6,4 km/h (2 Bft)
07.08.2016 21:19 14,1 C 14,1 C 83 % 1024,8 hPa 0,0 mm 3,5 km/h (1 Bft) S 169 0 min 0,000 mm 0,0 UV-I 0 W/m 11,3 C 6,4 km/h (2 Bft)
07.08.2016 21:20 14,1 C 14,1 C 83 % 1024,8 hPa 0,0 mm 2,5 km/h (1 Bft) S 169 0 min 0,000 mm 0,0 UV-I 0 W/m 11,3 C 3,2 km/h (1 Bft)
07.08.2016 21:21 14,1 C 14,1 C 83 % 1024,8 hPa 0,0 mm 2,7 km/h (1 Bft) S 169 0 min 0,000 mm 0,0 UV-I 0 W/m 11,3 C 3,2 km/h (1 Bft)
07.08.2016 21:22 14,1 C 14,1 C 83 % 1024,8 hPa 0,0 mm 2,9 km/h (1 Bft) S 169 0 min 0,000 mm 0,0 UV-I 0 W/m 11,3 C 3,2 km/h (1 Bft)
07.08.2016 21:23 14,1 C 14,1 C 83 % 1024,8 hPa 0,0 mm 2,6 km/h (1 Bft) S 169 0 min 0,000 mm 0,0 UV-I 0 W/m 11,3 C 3,2 km/h (1 Bft)
07.08.2016 21:24 14,0 C 14,1 C 84 % 1024,8 hPa 0,0 mm 2,5 km/h (1 Bft) S 169 0 min 0,000 mm 0,0 UV-I 0 W/m 11,3 C 3,2 km/h (1 Bft)
07.08.2016 21:25 14,0 C 14,1 C 84 % 1024,9 hPa 0,0 mm 1,7 km/h (1 Bft) S 169 0 min 0,000 mm 0,0 UV-I 0 W/m 11,3 C 3,2 km/h (1 Bft)
07.08.2016 21:26 14,1 C 14,1 C 84 % 1024,9 hPa 0,0 mm 2,5 km/h (1 Bft) S 169 0 min 0,000 mm 0,0 UV-I 0 W/m 11,4 C 3,2 km/h (1 Bft)
07.08.2016 21:27 14,0 C 14,1 C 84 % 1024,9 hPa 0,0 mm 2,3 km/h (1 Bft) S 169 0 min 0,000 mm 0,0 UV-I 0 W/m 11,3 C 3,2 km/h (1 Bft)
07.08.2016 21:28 13,9 C 14,0 C 84 % 1024,9 hPa 0,0 mm 2,2 km/h (1 Bft) S 169 0 min 0,000 mm 0,0 UV-I 0 W/m 11,2 C 6,4 km/h (2 Bft)
07.08.2016 21:29 13,9 C 13,9 C 84 % 1024,9 hPa 0,0 mm 2,1 km/h (1 Bft) S 169 0 min 0,000 mm 0,0 UV-I 0 W/m 11,2 C 3,2 km/h (1 Bft)
07.08.2016 21:30 13,9 C 13,9 C 85 % 1024,9 hPa 0,0 mm 2,4 km/h (1 Bft) S 169 0 min 0,000 mm 0,0 UV-I 0 W/m 11,4 C 3,2 km/h (1 Bft)
07.08.2016 21:31 13,8 C 13,9 C 85 % 1024,9 hPa 0,0 mm 2,5 km/h (1 Bft) S 169 0 min 0,000 mm 0,0 UV-I 0 W/m 11,3 C 3,2 km/h (1 Bft)
07.08.2016 21:32 13,8 C 13,8 C 85 % 1024,9 hPa 0,0 mm 4,0 km/h (1 Bft) S 169 0 min 0,000 mm 0,0 UV-I 0 W/m 11,3 C 6,4 km/h (2 Bft)
07.08.2016 21:33 13,8 C 13,9 C 85 % 1024,9 hPa 0,0 mm 2,5 km/h (1 Bft) S 169 0 min 0,000 mm 0,0 UV-I 0 W/m 11,3 C 3,2 km/h (1 Bft)
07.08.2016 21:34 13,9 C 13,9 C 85 % 1024,8 hPa 0,0 mm 2,5 km/h (1 Bft) S 169 0 min 0,000 mm 0,0 UV-I 0 W/m 11,4 C 6,4 km/h (2 Bft)
07.08.2016 21:35 13,8 C 13,9 C 85 % 1024,8 hPa 0,0 mm 4,0 km/h (1 Bft) S 169 0 min 0,000 mm 0,0 UV-I 0 W/m 11,3 C 6,4 km/h (2 Bft)
07.08.2016 21:36 13,8 C 13,8 C 85 % 1024,8 hPa 0,0 mm 3,3 km/h (1 Bft) S 169 0 min 0,000 mm 0,0 UV-I 0 W/m 11,3 C 6,4 km/h (2 Bft)
07.08.2016 21:37 13,7 C 13,8 C 85 % 1024,8 hPa 0,0 mm 2,6 km/h (1 Bft) S 169 0 min 0,000 mm 0,0 UV-I 0 W/m 11,2 C 6,4 km/h (2 Bft)
07.08.2016 21:38 13,7 C 13,7 C 85 % 1024,8 hPa 0,0 mm 2,3 km/h (1 Bft) S 169 0 min 0,000 mm 0,0 UV-I 0 W/m 11,2 C 3,2 km/h (1 Bft)
07.08.2016 21:39 13,7 C 13,7 C 86 % 1024,7 hPa 0,0 mm 2,2 km/h (1 Bft) S 169 0 min 0,000 mm 0,0 UV-I 0 W/m 11,4 C 3,2 km/h (1 Bft)
07.08.2016 21:40 13,7 C 13,7 C 86 % 1024,7 hPa 0,0 mm 1,7 km/h (1 Bft) S 169 0 min 0,000 mm 0,0 UV-I 0 W/m 11,4 C 3,2 km/h (1 Bft)
07.08.2016 21:41 13,6 C 13,7 C 86 % 1024,8 hPa 0,0 mm 2,0 km/h (1 Bft) S 169 0 min 0,000 mm 0,0 UV-I 0 W/m 11,3 C 3,2 km/h (1 Bft)
07.08.2016 21:42 13,6 C 13,6 C 86 % 1024,8 hPa 0,0 mm 1,3 km/h (1 Bft) S 169 0 min 0,000 mm 0,0 UV-I 0 W/m 11,3 C 3,2 km/h (1 Bft)
07.08.2016 21:43 13,6 C 13,7 C 86 % 1024,7 hPa 0,0 mm 1,3 km/h (1 Bft) S 169 0 min 0,000 mm 0,0 UV-I 0 W/m 11,3 C 1,6 km/h (1 Bft)
07.08.2016 21:44 13,6 C 13,6 C 85 % 1024,8 hPa 0,0 mm 1,0 km/h (0 Bft) S 169 0 min 0,000 mm 0,0 UV-I 0 W/m 11,1 C 1,6 km/h (1 Bft)
07.08.2016 21:45 13,6 C 13,6 C 85 % 1024,7 hPa 0,0 mm 1,5 km/h (1 Bft) S 169 0 min 0,000 mm 0,0 UV-I 0 W/m 11,1 C 3,2 km/h (1 Bft)
07.08.2016 21:46 13,5 C 13,6 C 85 % 1024,7 hPa 0,0 mm 1,7 km/h (1 Bft) S 169 0 min 0,000 mm 0,0 UV-I 0 W/m 11,0 C 3,2 km/h (1 Bft)
07.08.2016 21:47 13,4 C 13,5 C 85 % 1024,7 hPa 0,0 mm 0,9 km/h (0 Bft) S 169 0 min 0,000 mm 0,0 UV-I 0 W/m 10,9 C 3,2 km/h (1 Bft)
07.08.2016 21:48 13,4 C 13,4 C 86 % 1024,8 hPa 0,0 mm 0,4 km/h (0 Bft) S 169 0 min 0,000 mm 0,0 UV-I 0 W/m 11,1 C 1,6 km/h (1 Bft)
07.08.2016 21:49 13,4 C 13,4 C 86 % 1024,8 hPa 0,0 mm 1,1 km/h (1 Bft) S 169 0 min 0,000 mm 0,0 UV-I 0 W/m 11,1 C 3,2 km/h (1 Bft)
07.08.2016 21:50 13,4 C 13,4 C 86 % 1024,8 hPa 0,0 mm 0,1 km/h (0 Bft) S 169 0 min 0,000 mm 0,0 UV-I 0 W/m 11,1 C 1,6 km/h (1 Bft)
07.08.2016 21:51 13,4 C 13,4 C 86 % 1024,8 hPa 0,0 mm 0,7 km/h (0 Bft) S 169 0 min 0,000 mm 0,0 UV-I 0 W/m 11,1 C 1,6 km/h (1 Bft)
07.08.2016 21:52 13,4 C 13,4 C 86 % 1024,8 hPa 0,0 mm 0,0 km/h (0 Bft) S 169 0 min 0,000 mm 0,0 UV-I 0 W/m 11,1 C 0,0 km/h (0 Bft)
07.08.2016 21:53 13,5 C 13,5 C 86 % 1024,8 hPa 0,0 mm 0,0 km/h (0 Bft) S 169 0 min 0,000 mm 0,0 UV-I 0 W/m 11,2 C 0,0 km/h (0 Bft)
07.08.2016 21:54 13,5 C 13,5 C 86 % 1024,8 hPa 0,0 mm 0,1 km/h (0 Bft) S 169 0 min 0,000 mm 0,0 UV-I 0 W/m 11,2 C 1,6 km/h (1 Bft)
07.08.2016 21:55 13,5 C 13,5 C 86 % 1024,7 hPa 0,0 mm 0,8 km/h (0 Bft) S 169 0 min 0,000 mm 0,0 UV-I 0 W/m 11,2 C 1,6 km/h (1 Bft)
07.08.2016 21:56 13,6 C 13,6 C 85 % 1024,8 hPa 0,0 mm 0,8 km/h (0 Bft) S 169 0 min 0,000 mm 0,0 UV-I 0 W/m 11,1 C 1,6 km/h (1 Bft)
07.08.2016 21:57 13,5 C 13,6 C 85 % 1024,8 hPa 0,0 mm 0,2 km/h (0 Bft) S 169 0 min 0,000 mm 0,0 UV-I 0 W/m 11,0 C 1,6 km/h (1 Bft)
07.08.2016 21:58 13,6 C 13,6 C 85 % 1024,8 hPa 0,0 mm 0,0 km/h (0 Bft) S 169 0 min 0,000 mm 0,0 UV-I 0 W/m 11,1 C 0,0 km/h (0 Bft)
07.08.2016 21:59 13,6 C 13,6 C 85 % 1024,8 hPa 0,0 mm 0,0 km/h (0 Bft) S 169 0 min 0,000 mm 0,0 UV-I 0 W/m 11,1 C 0,0 km/h (0 Bft)
07.08.2016 22:00 13,5 C 13,6 C 85 % 1024,8 hPa 0,0 mm 0,0 km/h (0 Bft) S 169 0 min 0,000 mm 0,0 UV-I 0 W/m 11,0 C 0,0 km/h (0 Bft)
07.08.2016 22:01 13,4 C 13,5 C 85 % 1024,8 hPa 0,0 mm 0,0 km/h (0 Bft) S 169 0 min 0,000 mm 0,0 UV-I 0 W/m 10,9 C 0,0 km/h (0 Bft)
07.08.2016 22:02 13,4 C 13,4 C 86 % 1024,8 hPa 0,0 mm 0,0 km/h (0 Bft) S 169 0 min 0,000 mm 0,0 UV-I 0 W/m 11,1 C 0,0 km/h (0 Bft)
07.08.2016 22:03 13,4 C 13,4 C 86 % 1024,8 hPa 0,0 mm 0,0 km/h (0 Bft) S 169 0 min 0,000 mm 0,0 UV-I 0 W/m 11,1 C 0,0 km/h (0 Bft)
07.08.2016 22:04 13,4 C 13,4 C 86 % 1024,8 hPa 0,0 mm 0,0 km/h (0 Bft) S 169 0 min 0,000 mm 0,0 UV-I 0 W/m 11,1 C 0,0 km/h (0 Bft)
07.08.2016 22:05 13,4 C 13,4 C 87 % 1024,8 hPa 0,0 mm 0,0 km/h (0 Bft) S 169 0 min 0,000 mm 0,0 UV-I 0 W/m 11,3 C 0,0 km/h (0 Bft)
07.08.2016 22:06 13,4 C 13,4 C 87 % 1024,8 hPa 0,0 mm 0,0 km/h (0 Bft) S 169 0 min 0,000 mm 0,0 UV-I 0 W/m 11,3 C 0,0 km/h (0 Bft)
07.08.2016 22:07 13,3 C 13,4 C 87 % 1024,8 hPa 0,0 mm 0,0 km/h (0 Bft) S 169 0 min 0,000 mm 0,0 UV-I 0 W/m 11,2 C 0,0 km/h (0 Bft)
07.08.2016 22:08 13,3 C 13,4 C 87 % 1024,8 hPa 0,0 mm 0,0 km/h (0 Bft) S 169 0 min 0,000 mm 0,0 UV-I 0 W/m 11,2 C 0,0 km/h (0 Bft)
07.08.2016 22:09 13,3 C 13,3 C 87 % 1024,8 hPa 0,0 mm 0,0 km/h (0 Bft) S 169 0 min 0,000 mm 0,0 UV-I 0 W/m 11,2 C 0,0 km/h (0 Bft)
07.08.2016 22:10 13,3 C 13,3 C 87 % 1024,8 hPa 0,0 mm 0,0 km/h (0 Bft) S 169 0 min 0,000 mm 0,0 UV-I 0 W/m 11,2 C 0,0 km/h (0 Bft)
07.08.2016 22:11 13,3 C 13,3 C 87 % 1024,7 hPa 0,0 mm 0,0 km/h (0 Bft) S 169 0 min 0,000 mm 0,0 UV-I 0 W/m 11,2 C 0,0 km/h (0 Bft)
07.08.2016 22:12 13,3 C 13,3 C 87 % 1024,7 hPa 0,0 mm 0,0 km/h (0 Bft) S 169 0 min 0,000 mm 0,0 UV-I 0 W/m 11,2 C 0,0 km/h (0 Bft)
07.08.2016 22:13 13,3 C 13,3 C 87 % 1024,7 hPa 0,0 mm 0,0 km/h (0 Bft) S 169 0 min 0,000 mm 0,0 UV-I 0 W/m 11,2 C 0,0 km/h (0 Bft)
07.08.2016 22:14 13,3 C 13,3 C 87 % 1024,7 hPa 0,0 mm 0,1 km/h (0 Bft) S 169 0 min 0,000 mm 0,0 UV-I 0 W/m 11,2 C 1,6 km/h (1 Bft)
07.08.2016 22:15 13,3 C 13,3 C 86 % 1024,7 hPa 0,0 mm 0,0 km/h (0 Bft) S 169 0 min 0,000 mm 0,0 UV-I 0 W/m 11,0 C 0,0 km/h (0 Bft)
07.08.2016 22:16 13,3 C 13,3 C 86 % 1024,7 hPa 0,0 mm 0,0 km/h (0 Bft) S 169 0 min 0,000 mm 0,0 UV-I 0 W/m 11,0 C 0,0 km/h (0 Bft)
07.08.2016 22:17 13,3 C 13,3 C 86 % 1024,6 hPa 0,0 mm 0,0 km/h (0 Bft) S 169 0 min 0,000 mm 0,0 UV-I 0 W/m 11,0 C 0,0 km/h (0 Bft)
07.08.2016 22:18 13,3 C 13,3 C 87 % 1024,7 hPa 0,0 mm 0,0 km/h (0 Bft) S 169 0 min 0,000 mm 0,0 UV-I 0 W/m 11,2 C 0,0 km/h (0 Bft)
07.08.2016 22:19 13,2 C 13,3 C 87 % 1024,7 hPa 0,0 mm 0,0 km/h (0 Bft) S 169 0 min 0,000 mm 0,0 UV-I 0 W/m 11,1 C 0,0 km/h (0 Bft)
07.08.2016 22:20 13,3 C 13,3 C 87 % 1024,7 hPa 0,0 mm 0,0 km/h (0 Bft) S 169 0 min 0,000 mm 0,0 UV-I 0 W/m 11,2 C 0,0 km/h (0 Bft)
07.08.2016 22:21 13,3 C 13,3 C 87 % 1024,6 hPa 0,0 mm 0,0 km/h (0 Bft) S 169 0 min 0,000 mm 0,0 UV-I 0 W/m 11,2 C 0,0 km/h (0 Bft)
07.08.2016 22:22 13,3 C 13,3 C 87 % 1024,7 hPa 0,0 mm 0,0 km/h (0 Bft) S 169 0 min 0,000 mm 0,0 UV-I 0 W/m 11,2 C 0,0 km/h (0 Bft)
07.08.2016 22:23 13,2 C 13,3 C 87 % 1024,6 hPa 0,0 mm 0,2 km/h (0 Bft) S 169 0 min 0,000 mm 0,0 UV-I 0 W/m 11,1 C 1,6 km/h (1 Bft)
07.08.2016 22:24 13,2 C 13,3 C 86 % 1024,6 hPa 0,0 mm 0,0 km/h (0 Bft) S 169 0 min 0,000 mm 0,0 UV-I 0 W/m 10,9 C 0,0 km/h (0 Bft)
07.08.2016 22:25 13,2 C 13,2 C 87 % 1024,6 hPa 0,0 mm 0,0 km/h (0 Bft) S 169 0 min 0,000 mm 0,0 UV-I 0 W/m 11,1 C 0,0 km/h (0 Bft)
07.08.2016 22:26 13,2 C 13,2 C 87 % 1024,7 hPa 0,0 mm 0,0 km/h (0 Bft) S 169 0 min 0,000 mm 0,0 UV-I 0 W/m 11,1 C 0,0 km/h (0 Bft)
07.08.2016 22:27 13,2 C 13,2 C 87 % 1024,7 hPa 0,0 mm 0,0 km/h (0 Bft) S 169 0 min 0,000 mm 0,0 UV-I 0 W/m 11,1 C 0,0 km/h (0 Bft)
07.08.2016 22:28 13,2 C 13,2 C 87 % 1024,7 hPa 0,0 mm 0,0 km/h (0 Bft) S 169 0 min 0,000 mm 0,0 UV-I 0 W/m 11,1 C 0,0 km/h (0 Bft)
07.08.2016 22:29 13,2 C 13,2 C 87 % 1024,7 hPa 0,0 mm 0,0 km/h (0 Bft) S 169 0 min 0,000 mm 0,0 UV-I 0 W/m 11,1 C 0,0 km/h (0 Bft)
07.08.2016 22:30 13,1 C 13,2 C 87 % 1024,7 hPa 0,0 mm 0,0 km/h (0 Bft) S 169 0 min 0,000 mm 0,0 UV-I 0 W/m 11,0 C 0,0 km/h (0 Bft)
07.08.2016 22:31 13,1 C 13,1 C 87 % 1024,7 hPa 0,0 mm 0,0 km/h (0 Bft) S 169 0 min 0,000 mm 0,0 UV-I 0 W/m 11,0 C 0,0 km/h (0 Bft)
07.08.2016 22:32 13,1 C 13,1 C 87 % 1024,6 hPa 0,0 mm 0,0 km/h (0 Bft) S 169 0 min 0,000 mm 0,0 UV-I 0 W/m 11,0 C 0,0 km/h (0 Bft)
07.08.2016 22:33 13,1 C 13,1 C 88 % 1024,7 hPa 0,0 mm 0,0 km/h (0 Bft) S 169 0 min 0,000 mm 0,0 UV-I 0 W/m 11,2 C 0,0 km/h (0 Bft)
07.08.2016 22:34 13,0 C 13,1 C 88 % 1024,7 hPa 0,0 mm 0,0 km/h (0 Bft) S 169 0 min 0,000 mm 0,0 UV-I 0 W/m 11,1 C 0,0 km/h (0 Bft)
07.08.2016 22:35 12,9 C 13,0 C 88 % 1024,7 hPa 0,0 mm 0,0 km/h (0 Bft) S 169 0 min 0,000 mm 0,0 UV-I 0 W/m 11,0 C 0,0 km/h (0 Bft)
07.08.2016 22:36 12,9 C 12,9 C 89 % 1024,7 hPa 0,0 mm 0,0 km/h (0 Bft) S 169 0 min 0,000 mm 0,0 UV-I 0 W/m 11,1 C 0,0 km/h (0 Bft)
07.08.2016 22:37 12,9 C 12,9 C 89 % 1024,6 hPa 0,0 mm 0,0 km/h (0 Bft) S 169 0 min 0,000 mm 0,0 UV-I 0 W/m 11,1 C 0,0 km/h (0 Bft)
07.08.2016 22:38 12,9 C 12,9 C 89 % 1024,6 hPa 0,0 mm 0,0 km/h (0 Bft) S 169 0 min 0,000 mm 0,0 UV-I 0 W/m 11,1 C 0,0 km/h (0 Bft)
07.08.2016 22:39 12,8 C 12,9 C 89 % 1024,6 hPa 0,0 mm 0,2 km/h (0 Bft) S 169 0 min 0,000 mm 0,0 UV-I 0 W/m 11,0 C 1,6 km/h (1 Bft)
07.08.2016 22:40 12,8 C 12,9 C 89 % 1024,7 hPa 0,0 mm 0,0 km/h (0 Bft) S 169 0 min 0,000 mm 0,0 UV-I 0 W/m 11,0 C 0,0 km/h (0 Bft)
07.08.2016 22:41 12,8 C 12,8 C 89 % 1024,6 hPa 0,0 mm 0,1 km/h (0 Bft) S 169 0 min 0,000 mm 0,0 UV-I 0 W/m 11,0 C 1,6 km/h (1 Bft)
07.08.2016 22:42 12,8 C 12,8 C 89 % 1024,6 hPa 0,0 mm 0,1 km/h (0 Bft) S 169 0 min 0,000 mm 0,0 UV-I 0 W/m 11,0 C 1,6 km/h (1 Bft)
07.08.2016 22:43 12,8 C 12,8 C 88 % 1024,6 hPa 0,0 mm 0,0 km/h (0 Bft) S 169 0 min 0,000 mm 0,0 UV-I 0 W/m 10,9 C 0,0 km/h (0 Bft)
07.08.2016 22:44 12,8 C 12,8 C 88 % 1024,6 hPa 0,0 mm 0,0 km/h (0 Bft) S 169 0 min 0,000 mm 0,0 UV-I 0 W/m 10,9 C 0,0 km/h (0 Bft)
07.08.2016 22:45 12,8 C 12,8 C 88 % 1024,7 hPa 0,0 mm 0,2 km/h (0 Bft) S 169 0 min 0,000 mm 0,0 UV-I 0 W/m 10,9 C 1,6 km/h (1 Bft)
07.08.2016 22:46 12,8 C 12,8 C 88 % 1024,6 hPa 0,0 mm 0,2 km/h (0 Bft) S 169 0 min 0,000 mm 0,0 UV-I 0 W/m 10,9 C 1,6 km/h (1 Bft)
07.08.2016 22:47 12,8 C 12,8 C 88 % 1024,6 hPa 0,0 mm 0,1 km/h (0 Bft) S 169 0 min 0,000 mm 0,0 UV-I 0 W/m 10,9 C 1,6 km/h (1 Bft)
07.08.2016 22:48 12,8 C 12,8 C 89 % 1024,6 hPa 0,0 mm 0,0 km/h (0 Bft) S 169 0 min 0,000 mm 0,0 UV-I 0 W/m 11,0 C 0,0 km/h (0 Bft)
07.08.2016 22:49 12,7 C 12,8 C 89 % 1024,6 hPa 0,0 mm 0,0 km/h (0 Bft) S 169 0 min 0,000 mm 0,0 UV-I 0 W/m 10,9 C 0,0 km/h (0 Bft)
07.08.2016 22:50 12,7 C 12,7 C 89 % 1024,6 hPa 0,0 mm 0,0 km/h (0 Bft) S 169 0 min 0,000 mm 0,0 UV-I 0 W/m 10,9 C 0,0 km/h (0 Bft)
07.08.2016 22:51 12,7 C 12,7 C 89 % 1024,6 hPa 0,0 mm 0,0 km/h (0 Bft) S 169 0 min 0,000 mm 0,0 UV-I 0 W/m 10,9 C 0,0 km/h (0 Bft)
07.08.2016 22:52 12,6 C 12,7 C 89 % 1024,6 hPa 0,0 mm 0,0 km/h (0 Bft) S 169 0 min 0,000 mm 0,0 UV-I 0 W/m 10,8 C 0,0 km/h (0 Bft)
07.08.2016 22:53 12,6 C 12,6 C 89 % 1024,6 hPa 0,0 mm 0,0 km/h (0 Bft) S 169 0 min 0,000 mm 0,0 UV-I 0 W/m 10,8 C 0,0 km/h (0 Bft)
07.08.2016 22:54 12,6 C 12,6 C 89 % 1024,6 hPa 0,0 mm 0,3 km/h (0 Bft) S 169 0 min 0,000 mm 0,0 UV-I 0 W/m 10,8 C 1,6 km/h (1 Bft)
07.08.2016 22:55 12,6 C 12,6 C 89 % 1024,6 hPa 0,0 mm 0,0 km/h (0 Bft) S 169 0 min 0,000 mm 0,0 UV-I 0 W/m 10,8 C 0,0 km/h (0 Bft)
07.08.2016 22:56 12,6 C 12,6 C 89 % 1024,6 hPa 0,0 mm 0,0 km/h (0 Bft) S 169 0 min 0,000 mm 0,0 UV-I 0 W/m 10,8 C 0,0 km/h (0 Bft)
07.08.2016 22:57 12,5 C 12,6 C 90 % 1024,6 hPa 0,0 mm 0,0 km/h (0 Bft) S 169 0 min 0,000 mm 0,0 UV-I 0 W/m 10,9 C 0,0 km/h (0 Bft)
07.08.2016 22:58 12,5 C 12,6 C 90 % 1024,6 hPa 0,0 mm 0,0 km/h (0 Bft) S 169 0 min 0,000 mm 0,0 UV-I 0 W/m 10,9 C 0,0 km/h (0 Bft)
07.08.2016 22:59 12,5 C 12,6 C 89 % 1024,6 hPa 0,0 mm 0,0 km/h (0 Bft) S 169 0 min 0,000 mm 0,0 UV-I 0 W/m 10,7 C 0,0 km/h (0 Bft)
07.08.2016 23:00 12,6 C 12,6 C 89 % 1024,6 hPa 0,0 mm 0,0 km/h (0 Bft) S 169 0 min 0,000 mm 0,0 UV-I 0 W/m 10,8 C 0,0 km/h (0 Bft)
07.08.2016 23:01 12,5 C 12,6 C 90 % 1024,6 hPa 0,0 mm 0,0 km/h (0 Bft) S 169 0 min 0,000 mm 0,0 UV-I 0 W/m 10,9 C 0,0 km/h (0 Bft)
07.08.2016 23:02 12,5 C 12,5 C 90 % 1024,5 hPa 0,0 mm 0,0 km/h (0 Bft) S 169 0 min 0,000 mm 0,0 UV-I 0 W/m 10,9 C 0,0 km/h (0 Bft)
07.08.2016 23:03 12,5 C 12,5 C 90 % 1024,5 hPa 0,0 mm 0,0 km/h (0 Bft) S 169 0 min 0,000 mm 0,0 UV-I 0 W/m 10,9 C 0,0 km/h (0 Bft)
07.08.2016 23:04 12,4 C 12,5 C 90 % 1024,6 hPa 0,0 mm 0,0 km/h (0 Bft) S 169 0 min 0,000 mm 0,0 UV-I 0 W/m 10,8 C 0,0 km/h (0 Bft)
07.08.2016 23:05 12,4 C 12,4 C 90 % 1024,5 hPa 0,0 mm 0,0 km/h (0 Bft) S 169 0 min 0,000 mm 0,0 UV-I 0 W/m 10,8 C 0,0 km/h (0 Bft)
07.08.2016 23:06 12,4 C 12,4 C 90 % 1024,5 hPa 0,0 mm 0,0 km/h (0 Bft) S 169 0 min 0,000 mm 0,0 UV-I 0 W/m 10,8 C 0,0 km/h (0 Bft)
07.08.2016 23:07 12,4 C 12,4 C 90 % 1024,4 hPa 0,0 mm 0,1 km/h (0 Bft) S 169 0 min 0,000 mm 0,0 UV-I 0 W/m 10,8 C 1,6 km/h (1 Bft)
07.08.2016 23:08 12,4 C 12,4 C 90 % 1024,5 hPa 0,0 mm 0,0 km/h (0 Bft) S 169 0 min 0,000 mm 0,0 UV-I 0 W/m 10,8 C 0,0 km/h (0 Bft)
07.08.2016 23:09 12,4 C 12,4 C 90 % 1024,5 hPa 0,0 mm 0,0 km/h (0 Bft) S 169 0 min 0,000 mm 0,0 UV-I 0 W/m 10,8 C 0,0 km/h (0 Bft)
07.08.2016 23:10 12,4 C 12,4 C 90 % 1024,4 hPa 0,0 mm 0,0 km/h (0 Bft) S 169 0 min 0,000 mm 0,0 UV-I 0 W/m 10,8 C 0,0 km/h (0 Bft)
07.08.2016 23:11 12,4 C 12,5 C 90 % 1024,5 hPa 0,0 mm 0,0 km/h (0 Bft) S 169 0 min 0,000 mm 0,0 UV-I 0 W/m 10,8 C 0,0 km/h (0 Bft)
07.08.2016 23:12 12,5 C 12,5 C 90 % 1024,4 hPa 0,0 mm 0,0 km/h (0 Bft) S 169 0 min 0,000 mm 0,0 UV-I 0 W/m 10,9 C 0,0 km/h (0 Bft)
07.08.2016 23:13 12,5 C 12,5 C 90 % 1024,4 hPa 0,0 mm 0,0 km/h (0 Bft) S 169 0 min 0,000 mm 0,0 UV-I 0 W/m 10,9 C 0,0 km/h (0 Bft)
07.08.2016 23:14 12,5 C 12,5 C 91 % 1024,5 hPa 0,0 mm 0,0 km/h (0 Bft) S 169 0 min 0,000 mm 0,0 UV-I 0 W/m 11,1 C 0,0 km/h (0 Bft)
07.08.2016 23:15 12,5 C 12,5 C 91 % 1024,5 hPa 0,0 mm 0,0 km/h (0 Bft) S 169 0 min 0,000 mm 0,0 UV-I 0 W/m 11,1 C 0,0 km/h (0 Bft)
07.08.2016 23:16 12,5 C 12,5 C 91 % 1024,5 hPa 0,0 mm 0,0 km/h (0 Bft) S 169 0 min 0,000 mm 0,0 UV-I 0 W/m 11,1 C 0,0 km/h (0 Bft)
07.08.2016 23:17 12,5 C 12,5 C 91 % 1024,4 hPa 0,0 mm 0,3 km/h (0 Bft) S 169 0 min 0,000 mm 0,0 UV-I 0 W/m 11,1 C 1,6 km/h (1 Bft)
07.08.2016 23:18 12,5 C 12,5 C 91 % 1024,6 hPa 0,0 mm 0,0 km/h (0 Bft) S 169 0 min 0,000 mm 0,0 UV-I 0 W/m 11,1 C 0,0 km/h (0 Bft)
07.08.2016 23:19 12,6 C 12,6 C 91 % 1024,4 hPa 0,0 mm 0,1 km/h (0 Bft) S 169 0 min 0,000 mm 0,0 UV-I 0 W/m 11,2 C 1,6 km/h (1 Bft)
07.08.2016 23:20 12,5 C 12,6 C 91 % 1024,5 hPa 0,0 mm 0,0 km/h (0 Bft) S 169 0 min 0,000 mm 0,0 UV-I 0 W/m 11,1 C 0,0 km/h (0 Bft)
07.08.2016 23:21 12,5 C 12,6 C 91 % 1024,4 hPa 0,0 mm 0,0 km/h (0 Bft) S 169 0 min 0,000 mm 0,0 UV-I 0 W/m 11,1 C 0,0 km/h (0 Bft)
07.08.2016 23:22 12,6 C 12,6 C 91 % 1024,3 hPa 0,0 mm 0,0 km/h (0 Bft) S 169 0 min 0,000 mm 0,0 UV-I 0 W/m 11,2 C 0,0 km/h (0 Bft)
07.08.2016 23:23 12,5 C 12,6 C 90 % 1024,4 hPa 0,0 mm 0,0 km/h (0 Bft) S 169 0 min 0,000 mm 0,0 UV-I 0 W/m 10,9 C 0,0 km/h (0 Bft)
07.08.2016 23:24 12,5 C 12,6 C 91 % 1024,4 hPa 0,0 mm 0,0 km/h (0 Bft) S 169 0 min 0,000 mm 0,0 UV-I 0 W/m 11,1 C 0,0 km/h (0 Bft)
07.08.2016 23:25 12,5 C 12,5 C 90 % 1024,3 hPa 0,0 mm 0,0 km/h (0 Bft) S 169 0 min 0,000 mm 0,0 UV-I 0 W/m 10,9 C 0,0 km/h (0 Bft)
07.08.2016 23:26 12,5 C 12,5 C 90 % 1024,4 hPa 0,0 mm 0,0 km/h (0 Bft) S 169 0 min 0,000 mm 0,0 UV-I 0 W/m 10,9 C 0,0 km/h (0 Bft)
07.08.2016 23:27 12,4 C 12,5 C 89 % 1024,4 hPa 0,0 mm 0,0 km/h (0 Bft) S 169 0 min 0,000 mm 0,0 UV-I 0 W/m 10,6 C 0,0 km/h (0 Bft)
07.08.2016 23:28 12,4 C 12,4 C 89 % 1024,3 hPa 0,0 mm 0,0 km/h (0 Bft) S 169 0 min 0,000 mm 0,0 UV-I 0 W/m 10,6 C 0,0 km/h (0 Bft)
07.08.2016 23:29 12,4 C 12,4 C 90 % 1024,3 hPa 0,0 mm 0,0 km/h (0 Bft) S 169 0 min 0,000 mm 0,0 UV-I 0 W/m 10,8 C 0,0 km/h (0 Bft)
07.08.2016 23:30 12,4 C 12,4 C 90 % 1024,2 hPa 0,0 mm 0,0 km/h (0 Bft) S 169 0 min 0,000 mm 0,0 UV-I 0 W/m 10,8 C 0,0 km/h (0 Bft)
07.08.2016 23:31 12,3 C 12,4 C 90 % 1024,3 hPa 0,0 mm 0,0 km/h (0 Bft) S 169 0 min 0,000 mm 0,0 UV-I 0 W/m 10,7 C 0,0 km/h (0 Bft)
07.08.2016 23:32 12,3 C 12,3 C 90 % 1024,3 hPa 0,0 mm 0,0 km/h (0 Bft) S 169 0 min 0,000 mm 0,0 UV-I 0 W/m 10,7 C 0,0 km/h (0 Bft)
07.08.2016 23:33 12,3 C 12,3 C 90 % 1024,3 hPa 0,0 mm 0,0 km/h (0 Bft) S 169 0 min 0,000 mm 0,0 UV-I 0 W/m 10,7 C 0,0 km/h (0 Bft)
07.08.2016 23:34 12,3 C 12,3 C 90 % 1024,2 hPa 0,0 mm 0,0 km/h (0 Bft) S 169 0 min 0,000 mm 0,0 UV-I 0 W/m 10,7 C 0,0 km/h (0 Bft)
07.08.2016 23:35 12,3 C 12,3 C 90 % 1024,3 hPa 0,0 mm 0,1 km/h (0 Bft) S 169 0 min 0,000 mm 0,0 UV-I 0 W/m 10,7 C 1,6 km/h (1 Bft)
07.08.2016 23:36 12,2 C 12,3 C 90 % 1024,2 hPa 0,0 mm 1,2 km/h (1 Bft) S 169 0 min 0,000 mm 0,0 UV-I 0 W/m 10,6 C 3,2 km/h (1 Bft)
07.08.2016 23:37 12,2 C 12,2 C 90 % 1024,3 hPa 0,0 mm 0,4 km/h (0 Bft) S 169 0 min 0,000 mm 0,0 UV-I 0 W/m 10,6 C 1,6 km/h (1 Bft)
07.08.2016 23:38 12,2 C 12,2 C 91 % 1024,3 hPa 0,0 mm 0,0 km/h (0 Bft) S 169 0 min 0,000 mm 0,0 UV-I 0 W/m 10,8 C 0,0 km/h (0 Bft)
07.08.2016 23:39 12,2 C 12,3 C 91 % 1024,4 hPa 0,0 mm 0,0 km/h (0 Bft) S 169 0 min 0,000 mm 0,0 UV-I 0 W/m 10,8 C 0,0 km/h (0 Bft)
07.08.2016 23:40 12,2 C 12,2 C 91 % 1024,3 hPa 0,0 mm 0,0 km/h (0 Bft) S 169 0 min 0,000 mm 0,0 UV-I 0 W/m 10,8 C 0,0 km/h (0 Bft)
07.08.2016 23:41 12,2 C 12,2 C 91 % 1024,4 hPa 0,0 mm 0,2 km/h (0 Bft) S 169 0 min 0,000 mm 0,0 UV-I 0 W/m 10,8 C 1,6 km/h (1 Bft)
07.08.2016 23:42 12,2 C 12,2 C 91 % 1024,3 hPa 0,0 mm 0,3 km/h (0 Bft) S 169 0 min 0,000 mm 0,0 UV-I 0 W/m 10,8 C 1,6 km/h (1 Bft)
07.08.2016 23:43 12,3 C 12,3 C 90 % 1024,3 hPa 0,0 mm 0,5 km/h (0 Bft) S 169 0 min 0,000 mm 0,0 UV-I 0 W/m 10,7 C 1,6 km/h (1 Bft)
07.08.2016 23:44 12,3 C 12,3 C 90 % 1024,3 hPa 0,0 mm 0,0 km/h (0 Bft) S 169 0 min 0,000 mm 0,0 UV-I 0 W/m 10,7 C 0,0 km/h (0 Bft)
07.08.2016 23:45 12,3 C 12,3 C 90 % 1024,2 hPa 0,0 mm 0,0 km/h (0 Bft) S 169 0 min 0,000 mm 0,0 UV-I 0 W/m 10,7 C 0,0 km/h (0 Bft)
07.08.2016 23:46 12,3 C 12,3 C 90 % 1024,3 hPa 0,0 mm 0,3 km/h (0 Bft) S 169 0 min 0,000 mm 0,0 UV-I 0 W/m 10,7 C 1,6 km/h (1 Bft)
07.08.2016 23:47 12,3 C 12,3 C 90 % 1024,2 hPa 0,0 mm 0,0 km/h (0 Bft) S 169 0 min 0,000 mm 0,0 UV-I 0 W/m 10,7 C 0,0 km/h (0 Bft)
07.08.2016 23:48 12,3 C 12,4 C 90 % 1024,3 hPa 0,0 mm 0,0 km/h (0 Bft) S 169 0 min 0,000 mm 0,0 UV-I 0 W/m 10,7 C 0,0 km/h (0 Bft)
07.08.2016 23:49 12,4 C 12,4 C 90 % 1024,3 hPa 0,0 mm 0,0 km/h (0 Bft) S 169 0 min 0,000 mm 0,0 UV-I 0 W/m 10,8 C 0,0 km/h (0 Bft)
07.08.2016 23:50 12,4 C 12,4 C 89 % 1024,2 hPa 0,0 mm 0,0 km/h (0 Bft) S 169 0 min 0,000 mm 0,0 UV-I 0 W/m 10,6 C 0,0 km/h (0 Bft)
07.08.2016 23:51 12,4 C 12,4 C 89 % 1024,2 hPa 0,0 mm 0,0 km/h (0 Bft) S 169 0 min 0,000 mm 0,0 UV-I 0 W/m 10,6 C 0,0 km/h (0 Bft)
07.08.2016 23:52 12,4 C 12,4 C 89 % 1024,2 hPa 0,0 mm 0,0 km/h (0 Bft) S 169 0 min 0,000 mm 0,0 UV-I 0 W/m 10,6 C 0,0 km/h (0 Bft)
07.08.2016 23:53 12,4 C 12,4 C 90 % 1024,3 hPa 0,0 mm 0,0 km/h (0 Bft) S 169 0 min 0,000 mm 0,0 UV-I 0 W/m 10,8 C 0,0 km/h (0 Bft)
07.08.2016 23:54 12,4 C 12,4 C 89 % 1024,2 hPa 0,0 mm 0,0 km/h (0 Bft) S 169 0 min 0,000 mm 0,0 UV-I 0 W/m 10,6 C 0,0 km/h (0 Bft)
07.08.2016 23:55 12,3 C 12,4 C 90 % 1024,2 hPa 0,0 mm 0,3 km/h (0 Bft) S 169 0 min 0,000 mm 0,0 UV-I 0 W/m 10,7 C 1,6 km/h (1 Bft)
07.08.2016 23:56 12,3 C 12,3 C 90 % 1024,2 hPa 0,0 mm 0,0 km/h (0 Bft) S 169 0 min 0,000 mm 0,0 UV-I 0 W/m 10,7 C 0,0 km/h (0 Bft)
07.08.2016 23:57 12,2 C 12,3 C 90 % 1024,2 hPa 0,0 mm 0,0 km/h (0 Bft) S 169 0 min 0,000 mm 0,0 UV-I 0 W/m 10,6 C 0,0 km/h (0 Bft)
07.08.2016 23:58 12,2 C 12,2 C 90 % 1024,2 hPa 0,0 mm 0,0 km/h (0 Bft) S 169 0 min 0,000 mm 0,0 UV-I 0 W/m 10,6 C 0,0 km/h (0 Bft)
07.08.2016 23:59 12,1 C 12,2 C 90 % 1024,2 hPa 0,0 mm 0,0 km/h (0 Bft) S 169 0 min 0,000 mm 0,0 UV-I 0 W/m 10,5 C 0,0 km/h (0 Bft)
_ Min-Zeit 06:30 06:30 15:55 23:59 - 23:59 - - - - - - 06:30 23:59
Minimum _ 9,2 C 9,2 C 53 % 1024,2 hPa - 0,0 km/h (0 Bft) - - - - - - 8,6 C 0,0 km/h (0 Bft)
_ Max-Zeit 15:54 15:55 07:27 08:39 23:59 15:01 - - 16:16 15:01 13:28 13:29 15:04 16:37
Maximum _ 21,6 C 21,6 C 97 % 1028,8 hPa 0,0 mm 12,1 km/h
O (2 Bft)
- - 1 min 0,533 mm 7,5 UV-I 976 W/m 14,1 C 19,3 km/h
O (3 Bft)
Durchschnitt _ 15,5 C 15,5 C 79 % 1027,0 hPa #0,0 mm 2,3 km/h (1 Bft) NO - #8:20 h #3,581 mm 4,6 UV-I 246 W/m 11,5 C 3,7 km/h (1 Bft)